<?xml version="1.0" encoding="UTF-8" standalone="no" ?>
<gpx xmlns="http://www.topografix.com/GPX/1/1" xmlns:xsi="http://www.w3.org/2001/XMLSchema-instance" xsi:schemaLocation="http://www.topografix.com/GPX/1/1 http://www.topografix.com/GPX/1/1/gpx.xsd" version="1.1" creator="VisuGPX - https://www.visugpx.com">
  <metadata>
    <name>Ballade du 09 mai 2014</name>
    <desc><![CDATA[Avec Pat et Marcel / Bandol - port d\'Alon]]></desc>
  </metadata>
  <trk>
    <name><![CDATA[1]]></name>
    <trkseg>
      <trkpt lat="43.13246" lon="5.74833">
        <ele>41.473999</ele>
        <time>2014-05-09T10:09:51Z</time>
      </trkpt>
      <trkpt lat="43.13247" lon="5.74833">
        <ele>41.473999</ele>
        <time>2014-05-09T10:09:52Z</time>
      </trkpt>
      <trkpt lat="43.13251" lon="5.74831">
        <ele>40.993408</ele>
        <time>2014-05-09T10:09:56Z</time>
      </trkpt>
      <trkpt lat="43.13255" lon="5.74826">
        <ele>41.954712</ele>
        <time>2014-05-09T10:10:01Z</time>
      </trkpt>
      <trkpt lat="43.13268" lon="5.7487">
        <ele>-1.785278</ele>
        <time>2014-05-09T10:10:08Z</time>
      </trkpt>
      <trkpt lat="43.13279" lon="5.74869">
        <ele>-3.707886</ele>
        <time>2014-05-09T10:10:18Z</time>
      </trkpt>
      <trkpt lat="43.13288" lon="5.74866">
        <ele>-5.149902</ele>
        <time>2014-05-09T10:10:27Z</time>
      </trkpt>
      <trkpt lat="43.133" lon="5.74863">
        <ele>-6.111206</ele>
        <time>2014-05-09T10:10:38Z</time>
      </trkpt>
      <trkpt lat="43.13307" lon="5.74864">
        <ele>-5.630493</ele>
        <time>2014-05-09T10:10:46Z</time>
      </trkpt>
      <trkpt lat="43.13309" lon="5.7487">
        <ele>-4.188599</ele>
        <time>2014-05-09T10:10:53Z</time>
      </trkpt>
      <trkpt lat="43.13309" lon="5.74872">
        <ele>-4.188599</ele>
        <time>2014-05-09T10:10:55Z</time>
      </trkpt>
      <trkpt lat="43.13311" lon="5.74877">
        <ele>-4.188599</ele>
        <time>2014-05-09T10:10:59Z</time>
      </trkpt>
      <trkpt lat="43.13307" lon="5.74886">
        <ele>-5.630493</ele>
        <time>2014-05-09T10:11:07Z</time>
      </trkpt>
      <trkpt lat="43.13298" lon="5.74894">
        <ele>-7.553101</ele>
        <time>2014-05-09T10:11:17Z</time>
      </trkpt>
      <trkpt lat="43.13297" lon="5.74896">
        <ele>-8.514648</ele>
        <time>2014-05-09T10:11:22Z</time>
      </trkpt>
      <trkpt lat="43.13297" lon="5.74896">
        <ele>-8.514648</ele>
        <time>2014-05-09T10:11:28Z</time>
      </trkpt>
    </trkseg>
  </trk>
  <trk>
    <name><![CDATA[2]]></name>
    <trkseg>
      <trkpt lat="43.13506" lon="5.74301">
        <ele>5.905273</ele>
        <time>2014-05-09T10:46:22Z</time>
      </trkpt>
      <trkpt lat="43.13506" lon="5.74299">
        <ele>5.424561</ele>
        <time>2014-05-09T10:46:23Z</time>
      </trkpt>
      <trkpt lat="43.13505" lon="5.74295">
        <ele>3.982666</ele>
        <time>2014-05-09T10:46:28Z</time>
      </trkpt>
      <trkpt lat="43.13504" lon="5.74288">
        <ele>4.943848</ele>
        <time>2014-05-09T10:46:35Z</time>
      </trkpt>
      <trkpt lat="43.13504" lon="5.74287">
        <ele>4.943848</ele>
        <time>2014-05-09T10:46:36Z</time>
      </trkpt>
      <trkpt lat="43.13505" lon="5.74274">
        <ele>6.866455</ele>
        <time>2014-05-09T10:46:46Z</time>
      </trkpt>
      <trkpt lat="43.13504" lon="5.74265">
        <ele>8.308594</ele>
        <time>2014-05-09T10:46:53Z</time>
      </trkpt>
      <trkpt lat="43.13506" lon="5.74255">
        <ele>10.231201</ele>
        <time>2014-05-09T10:47:01Z</time>
      </trkpt>
      <trkpt lat="43.13506" lon="5.74245">
        <ele>11.673218</ele>
        <time>2014-05-09T10:47:09Z</time>
      </trkpt>
      <trkpt lat="43.13503" lon="5.74235">
        <ele>10.711792</ele>
        <time>2014-05-09T10:47:18Z</time>
      </trkpt>
      <trkpt lat="43.13501" lon="5.74228">
        <ele>11.673218</ele>
        <time>2014-05-09T10:47:25Z</time>
      </trkpt>
      <trkpt lat="43.13499" lon="5.74217">
        <ele>11.673218</ele>
        <time>2014-05-09T10:47:33Z</time>
      </trkpt>
      <trkpt lat="43.13492" lon="5.74211">
        <ele>11.192505</ele>
        <time>2014-05-09T10:47:41Z</time>
      </trkpt>
      <trkpt lat="43.13484" lon="5.74199">
        <ele>7.827881</ele>
        <time>2014-05-09T10:47:50Z</time>
      </trkpt>
      <trkpt lat="43.1348" lon="5.74192">
        <ele>6.385864</ele>
        <time>2014-05-09T10:47:57Z</time>
      </trkpt>
      <trkpt lat="43.13474" lon="5.74187">
        <ele>6.385864</ele>
        <time>2014-05-09T10:48:05Z</time>
      </trkpt>
      <trkpt lat="43.13472" lon="5.74185">
        <ele>5.905273</ele>
        <time>2014-05-09T10:48:09Z</time>
      </trkpt>
      <trkpt lat="43.13463" lon="5.7418">
        <ele>4.943848</ele>
        <time>2014-05-09T10:48:18Z</time>
      </trkpt>
      <trkpt lat="43.13457" lon="5.74176">
        <ele>3.982666</ele>
        <time>2014-05-09T10:48:26Z</time>
      </trkpt>
      <trkpt lat="43.13451" lon="5.7417">
        <ele>3.501953</ele>
        <time>2014-05-09T10:48:34Z</time>
      </trkpt>
      <trkpt lat="43.13444" lon="5.74164">
        <ele>3.501953</ele>
        <time>2014-05-09T10:48:44Z</time>
      </trkpt>
      <trkpt lat="43.13435" lon="5.74152">
        <ele>4.943848</ele>
        <time>2014-05-09T10:48:54Z</time>
      </trkpt>
      <trkpt lat="43.13429" lon="5.74143">
        <ele>6.866455</ele>
        <time>2014-05-09T10:49:03Z</time>
      </trkpt>
      <trkpt lat="43.13425" lon="5.74137">
        <ele>7.827881</ele>
        <time>2014-05-09T10:49:11Z</time>
      </trkpt>
      <trkpt lat="43.13419" lon="5.74131">
        <ele>7.347168</ele>
        <time>2014-05-09T10:49:19Z</time>
      </trkpt>
      <trkpt lat="43.13413" lon="5.74126">
        <ele>10.711792</ele>
        <time>2014-05-09T10:49:26Z</time>
      </trkpt>
      <trkpt lat="43.13408" lon="5.7412">
        <ele>14.076416</ele>
        <time>2014-05-09T10:49:34Z</time>
      </trkpt>
      <trkpt lat="43.13402" lon="5.74111">
        <ele>16.960449</ele>
        <time>2014-05-09T10:49:42Z</time>
      </trkpt>
      <trkpt lat="43.13397" lon="5.74103">
        <ele>17.921753</ele>
        <time>2014-05-09T10:49:50Z</time>
      </trkpt>
      <trkpt lat="43.13393" lon="5.74097">
        <ele>17.921753</ele>
        <time>2014-05-09T10:49:58Z</time>
      </trkpt>
      <trkpt lat="43.1339" lon="5.74089">
        <ele>17.921753</ele>
        <time>2014-05-09T10:50:05Z</time>
      </trkpt>
      <trkpt lat="43.13388" lon="5.74081">
        <ele>16.479736</ele>
        <time>2014-05-09T10:50:11Z</time>
      </trkpt>
      <trkpt lat="43.13387" lon="5.74077">
        <ele>15.518433</ele>
        <time>2014-05-09T10:50:14Z</time>
      </trkpt>
      <trkpt lat="43.13383" lon="5.74071">
        <ele>14.557007</ele>
        <time>2014-05-09T10:50:19Z</time>
      </trkpt>
      <trkpt lat="43.13384" lon="5.74064">
        <ele>13.595825</ele>
        <time>2014-05-09T10:50:27Z</time>
      </trkpt>
      <trkpt lat="43.13386" lon="5.74058">
        <ele>7.827881</ele>
        <time>2014-05-09T10:51:01Z</time>
      </trkpt>
      <trkpt lat="43.13387" lon="5.74057">
        <ele>6.866455</ele>
        <time>2014-05-09T10:51:20Z</time>
      </trkpt>
      <trkpt lat="43.13386" lon="5.74057">
        <ele>6.385864</ele>
        <time>2014-05-09T10:51:36Z</time>
      </trkpt>
      <trkpt lat="43.13387" lon="5.74056">
        <ele>5.905273</ele>
        <time>2014-05-09T10:51:47Z</time>
      </trkpt>
      <trkpt lat="43.13388" lon="5.74057">
        <ele>6.866455</ele>
        <time>2014-05-09T10:52:04Z</time>
      </trkpt>
      <trkpt lat="43.13391" lon="5.74057">
        <ele>7.347168</ele>
        <time>2014-05-09T10:52:11Z</time>
      </trkpt>
      <trkpt lat="43.13388" lon="5.74058">
        <ele>7.347168</ele>
        <time>2014-05-09T10:52:18Z</time>
      </trkpt>
      <trkpt lat="43.13385" lon="5.74062">
        <ele>6.866455</ele>
        <time>2014-05-09T10:52:23Z</time>
      </trkpt>
      <trkpt lat="43.13391" lon="5.74073">
        <ele>7.827881</ele>
        <time>2014-05-09T10:52:33Z</time>
      </trkpt>
      <trkpt lat="43.13398" lon="5.74078">
        <ele>9.269897</ele>
        <time>2014-05-09T10:52:41Z</time>
      </trkpt>
      <trkpt lat="43.13402" lon="5.74076">
        <ele>10.231201</ele>
        <time>2014-05-09T10:52:48Z</time>
      </trkpt>
      <trkpt lat="43.13408" lon="5.74073">
        <ele>10.711792</ele>
        <time>2014-05-09T10:52:56Z</time>
      </trkpt>
      <trkpt lat="43.13413" lon="5.74069">
        <ele>12.153809</ele>
        <time>2014-05-09T10:53:03Z</time>
      </trkpt>
      <trkpt lat="43.13417" lon="5.74068">
        <ele>14.557007</ele>
        <time>2014-05-09T10:53:09Z</time>
      </trkpt>
      <trkpt lat="43.13422" lon="5.74064">
        <ele>16.960449</ele>
        <time>2014-05-09T10:53:17Z</time>
      </trkpt>
      <trkpt lat="43.13427" lon="5.7406">
        <ele>15.999023</ele>
        <time>2014-05-09T10:53:24Z</time>
      </trkpt>
      <trkpt lat="43.13434" lon="5.74054">
        <ele>15.03772</ele>
        <time>2014-05-09T10:53:32Z</time>
      </trkpt>
      <trkpt lat="43.1344" lon="5.74048">
        <ele>11.673218</ele>
        <time>2014-05-09T10:53:40Z</time>
      </trkpt>
      <trkpt lat="43.13443" lon="5.74042">
        <ele>11.192505</ele>
        <time>2014-05-09T10:53:47Z</time>
      </trkpt>
      <trkpt lat="43.13449" lon="5.74031">
        <ele>13.115112</ele>
        <time>2014-05-09T10:53:57Z</time>
      </trkpt>
      <trkpt lat="43.13451" lon="5.74025">
        <ele>14.076416</ele>
        <time>2014-05-09T10:54:03Z</time>
      </trkpt>
      <trkpt lat="43.13453" lon="5.74015">
        <ele>13.595825</ele>
        <time>2014-05-09T10:54:11Z</time>
      </trkpt>
      <trkpt lat="43.13455" lon="5.74009">
        <ele>13.595825</ele>
        <time>2014-05-09T10:54:17Z</time>
      </trkpt>
      <trkpt lat="43.1346" lon="5.74">
        <ele>12.634399</ele>
        <time>2014-05-09T10:54:25Z</time>
      </trkpt>
      <trkpt lat="43.13463" lon="5.73989">
        <ele>12.153809</ele>
        <time>2014-05-09T10:54:33Z</time>
      </trkpt>
      <trkpt lat="43.13464" lon="5.73984">
        <ele>12.153809</ele>
        <time>2014-05-09T10:54:37Z</time>
      </trkpt>
      <trkpt lat="43.13466" lon="5.73973">
        <ele>14.557007</ele>
        <time>2014-05-09T10:54:45Z</time>
      </trkpt>
      <trkpt lat="43.13468" lon="5.7396">
        <ele>16.479736</ele>
        <time>2014-05-09T10:54:55Z</time>
      </trkpt>
      <trkpt lat="43.13467" lon="5.73954">
        <ele>19.84436</ele>
        <time>2014-05-09T10:55:02Z</time>
      </trkpt>
      <trkpt lat="43.13466" lon="5.73946">
        <ele>20.805664</ele>
        <time>2014-05-09T10:55:10Z</time>
      </trkpt>
      <trkpt lat="43.13465" lon="5.73938">
        <ele>20.324951</ele>
        <time>2014-05-09T10:55:17Z</time>
      </trkpt>
      <trkpt lat="43.13463" lon="5.73928">
        <ele>18.402344</ele>
        <time>2014-05-09T10:55:25Z</time>
      </trkpt>
      <trkpt lat="43.13461" lon="5.7392">
        <ele>18.883057</ele>
        <time>2014-05-09T10:55:32Z</time>
      </trkpt>
      <trkpt lat="43.13462" lon="5.73908">
        <ele>20.805664</ele>
        <time>2014-05-09T10:55:40Z</time>
      </trkpt>
      <trkpt lat="43.13469" lon="5.73897">
        <ele>15.999023</ele>
        <time>2014-05-09T10:55:48Z</time>
      </trkpt>
      <trkpt lat="43.13474" lon="5.73891">
        <ele>14.557007</ele>
        <time>2014-05-09T10:55:55Z</time>
      </trkpt>
      <trkpt lat="43.1348" lon="5.73887">
        <ele>14.076416</ele>
        <time>2014-05-09T10:56:02Z</time>
      </trkpt>
      <trkpt lat="43.13486" lon="5.73882">
        <ele>9.75061</ele>
        <time>2014-05-09T10:56:11Z</time>
      </trkpt>
      <trkpt lat="43.13489" lon="5.73882">
        <ele>8.789185</ele>
        <time>2014-05-09T10:56:17Z</time>
      </trkpt>
      <trkpt lat="43.13494" lon="5.73879">
        <ele>7.827881</ele>
        <time>2014-05-09T10:56:25Z</time>
      </trkpt>
      <trkpt lat="43.135" lon="5.73876">
        <ele>6.385864</ele>
        <time>2014-05-09T10:56:32Z</time>
      </trkpt>
      <trkpt lat="43.13509" lon="5.7387">
        <ele>3.501953</ele>
        <time>2014-05-09T10:56:41Z</time>
      </trkpt>
      <trkpt lat="43.13517" lon="5.73869">
        <ele>3.02124</ele>
        <time>2014-05-09T10:56:49Z</time>
      </trkpt>
      <trkpt lat="43.13526" lon="5.7387">
        <ele>4.463257</ele>
        <time>2014-05-09T10:56:57Z</time>
      </trkpt>
      <trkpt lat="43.13533" lon="5.73871">
        <ele>8.789185</ele>
        <time>2014-05-09T10:57:04Z</time>
      </trkpt>
      <trkpt lat="43.13535" lon="5.73871">
        <ele>10.711792</ele>
        <time>2014-05-09T10:57:07Z</time>
      </trkpt>
      <trkpt lat="43.13545" lon="5.73873">
        <ele>10.711792</ele>
        <time>2014-05-09T10:57:16Z</time>
      </trkpt>
      <trkpt lat="43.13552" lon="5.73876">
        <ele>11.192505</ele>
        <time>2014-05-09T10:57:25Z</time>
      </trkpt>
      <trkpt lat="43.13556" lon="5.73877">
        <ele>7.827881</ele>
        <time>2014-05-09T10:57:31Z</time>
      </trkpt>
      <trkpt lat="43.13558" lon="5.73875">
        <ele>7.347168</ele>
        <time>2014-05-09T10:57:36Z</time>
      </trkpt>
      <trkpt lat="43.13562" lon="5.73871">
        <ele>10.711792</ele>
        <time>2014-05-09T10:57:45Z</time>
      </trkpt>
      <trkpt lat="43.13566" lon="5.73865">
        <ele>13.595825</ele>
        <time>2014-05-09T10:57:54Z</time>
      </trkpt>
      <trkpt lat="43.13569" lon="5.7386">
        <ele>13.595825</ele>
        <time>2014-05-09T10:58:01Z</time>
      </trkpt>
      <trkpt lat="43.13573" lon="5.73853">
        <ele>14.557007</ele>
        <time>2014-05-09T10:58:09Z</time>
      </trkpt>
      <trkpt lat="43.13575" lon="5.73845">
        <ele>15.999023</ele>
        <time>2014-05-09T10:58:16Z</time>
      </trkpt>
      <trkpt lat="43.13577" lon="5.73837">
        <ele>15.518433</ele>
        <time>2014-05-09T10:58:25Z</time>
      </trkpt>
      <trkpt lat="43.1358" lon="5.73829">
        <ele>15.518433</ele>
        <time>2014-05-09T10:58:32Z</time>
      </trkpt>
      <trkpt lat="43.13582" lon="5.73822">
        <ele>13.595825</ele>
        <time>2014-05-09T10:58:37Z</time>
      </trkpt>
      <trkpt lat="43.13584" lon="5.73815">
        <ele>10.231201</ele>
        <time>2014-05-09T10:58:44Z</time>
      </trkpt>
      <trkpt lat="43.13591" lon="5.73803">
        <ele>6.866455</ele>
        <time>2014-05-09T10:58:52Z</time>
      </trkpt>
      <trkpt lat="43.13597" lon="5.73795">
        <ele>10.231201</ele>
        <time>2014-05-09T10:58:59Z</time>
      </trkpt>
      <trkpt lat="43.13605" lon="5.73785">
        <ele>8.308594</ele>
        <time>2014-05-09T10:59:09Z</time>
      </trkpt>
      <trkpt lat="43.13612" lon="5.73778">
        <ele>7.347168</ele>
        <time>2014-05-09T10:59:18Z</time>
      </trkpt>
      <trkpt lat="43.13616" lon="5.73775">
        <ele>11.192505</ele>
        <time>2014-05-09T10:59:25Z</time>
      </trkpt>
      <trkpt lat="43.13621" lon="5.73768">
        <ele>14.076416</ele>
        <time>2014-05-09T10:59:33Z</time>
      </trkpt>
      <trkpt lat="43.13625" lon="5.73761">
        <ele>15.518433</ele>
        <time>2014-05-09T10:59:40Z</time>
      </trkpt>
      <trkpt lat="43.1363" lon="5.73752">
        <ele>15.518433</ele>
        <time>2014-05-09T10:59:48Z</time>
      </trkpt>
      <trkpt lat="43.13635" lon="5.73738">
        <ele>14.076416</ele>
        <time>2014-05-09T10:59:57Z</time>
      </trkpt>
      <trkpt lat="43.1364" lon="5.73725">
        <ele>10.711792</ele>
        <time>2014-05-09T11:00:04Z</time>
      </trkpt>
      <trkpt lat="43.13641" lon="5.73713">
        <ele>11.192505</ele>
        <time>2014-05-09T11:00:13Z</time>
      </trkpt>
      <trkpt lat="43.13641" lon="5.73705">
        <ele>11.673218</ele>
        <time>2014-05-09T11:00:20Z</time>
      </trkpt>
      <trkpt lat="43.1364" lon="5.73703">
        <ele>13.595825</ele>
        <time>2014-05-09T11:00:22Z</time>
      </trkpt>
      <trkpt lat="43.13636" lon="5.73691">
        <ele>18.402344</ele>
        <time>2014-05-09T11:00:31Z</time>
      </trkpt>
      <trkpt lat="43.1363" lon="5.73683">
        <ele>23.689575</ele>
        <time>2014-05-09T11:00:40Z</time>
      </trkpt>
      <trkpt lat="43.13628" lon="5.73675">
        <ele>27.054321</ele>
        <time>2014-05-09T11:00:47Z</time>
      </trkpt>
      <trkpt lat="43.13627" lon="5.73666">
        <ele>28.976929</ele>
        <time>2014-05-09T11:00:54Z</time>
      </trkpt>
      <trkpt lat="43.13627" lon="5.73655">
        <ele>29.45752</ele>
        <time>2014-05-09T11:01:03Z</time>
      </trkpt>
      <trkpt lat="43.13628" lon="5.73642">
        <ele>27.054321</ele>
        <time>2014-05-09T11:01:11Z</time>
      </trkpt>
      <trkpt lat="43.13626" lon="5.73635">
        <ele>26.573608</ele>
        <time>2014-05-09T11:01:18Z</time>
      </trkpt>
      <trkpt lat="43.13627" lon="5.73626">
        <ele>23.208984</ele>
        <time>2014-05-09T11:01:25Z</time>
      </trkpt>
      <trkpt lat="43.13626" lon="5.73617">
        <ele>23.689575</ele>
        <time>2014-05-09T11:01:33Z</time>
      </trkpt>
      <trkpt lat="43.13628" lon="5.73605">
        <ele>20.324951</ele>
        <time>2014-05-09T11:01:40Z</time>
      </trkpt>
      <trkpt lat="43.13626" lon="5.73594">
        <ele>21.286377</ele>
        <time>2014-05-09T11:01:48Z</time>
      </trkpt>
      <trkpt lat="43.13626" lon="5.73585">
        <ele>26.573608</ele>
        <time>2014-05-09T11:01:55Z</time>
      </trkpt>
      <trkpt lat="43.13624" lon="5.73578">
        <ele>29.93811</ele>
        <time>2014-05-09T11:02:02Z</time>
      </trkpt>
      <trkpt lat="43.13626" lon="5.73565">
        <ele>26.573608</ele>
        <time>2014-05-09T11:02:10Z</time>
      </trkpt>
      <trkpt lat="43.13628" lon="5.73554">
        <ele>19.36377</ele>
        <time>2014-05-09T11:02:17Z</time>
      </trkpt>
      <trkpt lat="43.13631" lon="5.7354">
        <ele>10.231201</ele>
        <time>2014-05-09T11:02:25Z</time>
      </trkpt>
      <trkpt lat="43.13635" lon="5.73528">
        <ele>9.269897</ele>
        <time>2014-05-09T11:02:33Z</time>
      </trkpt>
      <trkpt lat="43.13638" lon="5.7352">
        <ele>10.711792</ele>
        <time>2014-05-09T11:02:40Z</time>
      </trkpt>
      <trkpt lat="43.13642" lon="5.73511">
        <ele>11.192505</ele>
        <time>2014-05-09T11:02:48Z</time>
      </trkpt>
      <trkpt lat="43.13647" lon="5.73503">
        <ele>12.153809</ele>
        <time>2014-05-09T11:02:56Z</time>
      </trkpt>
      <trkpt lat="43.13651" lon="5.73492">
        <ele>10.231201</ele>
        <time>2014-05-09T11:03:04Z</time>
      </trkpt>
      <trkpt lat="43.13653" lon="5.73485">
        <ele>9.269897</ele>
        <time>2014-05-09T11:03:10Z</time>
      </trkpt>
      <trkpt lat="43.13653" lon="5.73476">
        <ele>13.595825</ele>
        <time>2014-05-09T11:03:16Z</time>
      </trkpt>
      <trkpt lat="43.13657" lon="5.73466">
        <ele>12.634399</ele>
        <time>2014-05-09T11:03:24Z</time>
      </trkpt>
      <trkpt lat="43.13659" lon="5.73462">
        <ele>12.634399</ele>
        <time>2014-05-09T11:03:30Z</time>
      </trkpt>
      <trkpt lat="43.13662" lon="5.73451">
        <ele>8.308594</ele>
        <time>2014-05-09T11:03:37Z</time>
      </trkpt>
      <trkpt lat="43.13664" lon="5.73442">
        <ele>6.866455</ele>
        <time>2014-05-09T11:03:43Z</time>
      </trkpt>
      <trkpt lat="43.13663" lon="5.73436">
        <ele>12.634399</ele>
        <time>2014-05-09T11:03:50Z</time>
      </trkpt>
      <trkpt lat="43.13663" lon="5.73432">
        <ele>11.192505</ele>
        <time>2014-05-09T11:03:57Z</time>
      </trkpt>
      <trkpt lat="43.13664" lon="5.73426">
        <ele>8.308594</ele>
        <time>2014-05-09T11:04:04Z</time>
      </trkpt>
      <trkpt lat="43.13666" lon="5.73418">
        <ele>3.02124</ele>
        <time>2014-05-09T11:04:10Z</time>
      </trkpt>
      <trkpt lat="43.13667" lon="5.73406">
        <ele>2.540649</ele>
        <time>2014-05-09T11:04:19Z</time>
      </trkpt>
      <trkpt lat="43.13666" lon="5.73401">
        <ele>9.269897</ele>
        <time>2014-05-09T11:04:28Z</time>
      </trkpt>
      <trkpt lat="43.13667" lon="5.73391">
        <ele>15.518433</ele>
        <time>2014-05-09T11:04:37Z</time>
      </trkpt>
      <trkpt lat="43.13668" lon="5.73379">
        <ele>14.557007</ele>
        <time>2014-05-09T11:04:45Z</time>
      </trkpt>
      <trkpt lat="43.13669" lon="5.73367">
        <ele>17.921753</ele>
        <time>2014-05-09T11:04:54Z</time>
      </trkpt>
      <trkpt lat="43.1367" lon="5.73359">
        <ele>20.805664</ele>
        <time>2014-05-09T11:05:01Z</time>
      </trkpt>
      <trkpt lat="43.13673" lon="5.73345">
        <ele>20.805664</ele>
        <time>2014-05-09T11:05:10Z</time>
      </trkpt>
      <trkpt lat="43.13672" lon="5.73338">
        <ele>20.805664</ele>
        <time>2014-05-09T11:05:17Z</time>
      </trkpt>
      <trkpt lat="43.13671" lon="5.7333">
        <ele>21.766968</ele>
        <time>2014-05-09T11:05:25Z</time>
      </trkpt>
      <trkpt lat="43.13668" lon="5.73324">
        <ele>23.208984</ele>
        <time>2014-05-09T11:05:31Z</time>
      </trkpt>
      <trkpt lat="43.13665" lon="5.73319">
        <ele>25.131714</ele>
        <time>2014-05-09T11:05:36Z</time>
      </trkpt>
      <trkpt lat="43.13663" lon="5.73311">
        <ele>23.689575</ele>
        <time>2014-05-09T11:05:43Z</time>
      </trkpt>
      <trkpt lat="43.13661" lon="5.73304">
        <ele>21.766968</ele>
        <time>2014-05-09T11:05:51Z</time>
      </trkpt>
      <trkpt lat="43.13659" lon="5.733">
        <ele>22.247559</ele>
        <time>2014-05-09T11:05:57Z</time>
      </trkpt>
      <trkpt lat="43.13655" lon="5.73294">
        <ele>22.247559</ele>
        <time>2014-05-09T11:06:04Z</time>
      </trkpt>
      <trkpt lat="43.13652" lon="5.73286">
        <ele>25.131714</ele>
        <time>2014-05-09T11:06:12Z</time>
      </trkpt>
      <trkpt lat="43.13653" lon="5.73276">
        <ele>24.170288</ele>
        <time>2014-05-09T11:06:20Z</time>
      </trkpt>
      <trkpt lat="43.13651" lon="5.7327">
        <ele>26.573608</ele>
        <time>2014-05-09T11:06:27Z</time>
      </trkpt>
      <trkpt lat="43.1365" lon="5.73263">
        <ele>29.45752</ele>
        <time>2014-05-09T11:06:34Z</time>
      </trkpt>
      <trkpt lat="43.13648" lon="5.73255">
        <ele>33.302856</ele>
        <time>2014-05-09T11:06:42Z</time>
      </trkpt>
      <trkpt lat="43.13648" lon="5.73243">
        <ele>31.860718</ele>
        <time>2014-05-09T11:06:51Z</time>
      </trkpt>
      <trkpt lat="43.13649" lon="5.73235">
        <ele>33.783447</ele>
        <time>2014-05-09T11:06:57Z</time>
      </trkpt>
      <trkpt lat="43.13649" lon="5.73227">
        <ele>35.706055</ele>
        <time>2014-05-09T11:07:05Z</time>
      </trkpt>
      <trkpt lat="43.13649" lon="5.73218">
        <ele>36.186768</ele>
        <time>2014-05-09T11:07:13Z</time>
      </trkpt>
      <trkpt lat="43.13648" lon="5.7321">
        <ele>39.070679</ele>
        <time>2014-05-09T11:07:21Z</time>
      </trkpt>
      <trkpt lat="43.13646" lon="5.73203">
        <ele>42.435425</ele>
        <time>2014-05-09T11:07:29Z</time>
      </trkpt>
      <trkpt lat="43.13646" lon="5.7319">
        <ele>38.109375</ele>
        <time>2014-05-09T11:07:37Z</time>
      </trkpt>
      <trkpt lat="43.13645" lon="5.73181">
        <ele>36.186768</ele>
        <time>2014-05-09T11:07:44Z</time>
      </trkpt>
      <trkpt lat="43.13645" lon="5.7317">
        <ele>34.744873</ele>
        <time>2014-05-09T11:07:53Z</time>
      </trkpt>
      <trkpt lat="43.13642" lon="5.73158">
        <ele>30.899536</ele>
        <time>2014-05-09T11:08:02Z</time>
      </trkpt>
      <trkpt lat="43.13641" lon="5.7315">
        <ele>31.380127</ele>
        <time>2014-05-09T11:08:09Z</time>
      </trkpt>
      <trkpt lat="43.13638" lon="5.7314">
        <ele>30.899536</ele>
        <time>2014-05-09T11:08:18Z</time>
      </trkpt>
      <trkpt lat="43.13637" lon="5.73129">
        <ele>32.341553</ele>
        <time>2014-05-09T11:08:27Z</time>
      </trkpt>
      <trkpt lat="43.13636" lon="5.73119">
        <ele>30.899536</ele>
        <time>2014-05-09T11:08:35Z</time>
      </trkpt>
      <trkpt lat="43.13634" lon="5.73109">
        <ele>27.534912</ele>
        <time>2014-05-09T11:08:42Z</time>
      </trkpt>
      <trkpt lat="43.13632" lon="5.73097">
        <ele>28.976929</ele>
        <time>2014-05-09T11:08:51Z</time>
      </trkpt>
      <trkpt lat="43.13632" lon="5.73087">
        <ele>27.054321</ele>
        <time>2014-05-09T11:08:58Z</time>
      </trkpt>
      <trkpt lat="43.1363" lon="5.73079">
        <ele>28.015503</ele>
        <time>2014-05-09T11:09:06Z</time>
      </trkpt>
      <trkpt lat="43.13628" lon="5.73072">
        <ele>31.860718</ele>
        <time>2014-05-09T11:09:13Z</time>
      </trkpt>
      <trkpt lat="43.13629" lon="5.73061">
        <ele>32.341553</ele>
        <time>2014-05-09T11:09:19Z</time>
      </trkpt>
      <trkpt lat="43.13631" lon="5.73051">
        <ele>29.45752</ele>
        <time>2014-05-09T11:09:27Z</time>
      </trkpt>
      <trkpt lat="43.1363" lon="5.73044">
        <ele>29.93811</ele>
        <time>2014-05-09T11:09:33Z</time>
      </trkpt>
      <trkpt lat="43.1363" lon="5.73038">
        <ele>29.45752</ele>
        <time>2014-05-09T11:09:38Z</time>
      </trkpt>
      <trkpt lat="43.13631" lon="5.73024">
        <ele>26.092896</ele>
        <time>2014-05-09T11:09:45Z</time>
      </trkpt>
      <trkpt lat="43.13634" lon="5.73015">
        <ele>25.612305</ele>
        <time>2014-05-09T11:09:51Z</time>
      </trkpt>
      <trkpt lat="43.13635" lon="5.7301">
        <ele>26.092896</ele>
        <time>2014-05-09T11:09:57Z</time>
      </trkpt>
      <trkpt lat="43.13637" lon="5.73004">
        <ele>30.418823</ele>
        <time>2014-05-09T11:10:04Z</time>
      </trkpt>
      <trkpt lat="43.1364" lon="5.73">
        <ele>29.93811</ele>
        <time>2014-05-09T11:10:11Z</time>
      </trkpt>
      <trkpt lat="43.13642" lon="5.72998">
        <ele>29.45752</ele>
        <time>2014-05-09T11:10:16Z</time>
      </trkpt>
      <trkpt lat="43.13646" lon="5.72992">
        <ele>31.860718</ele>
        <time>2014-05-09T11:10:24Z</time>
      </trkpt>
      <trkpt lat="43.13646" lon="5.72982">
        <ele>30.899536</ele>
        <time>2014-05-09T11:10:30Z</time>
      </trkpt>
      <trkpt lat="43.13646" lon="5.72975">
        <ele>31.380127</ele>
        <time>2014-05-09T11:10:36Z</time>
      </trkpt>
      <trkpt lat="43.13647" lon="5.72969">
        <ele>31.860718</ele>
        <time>2014-05-09T11:10:42Z</time>
      </trkpt>
      <trkpt lat="43.13649" lon="5.72962">
        <ele>27.054321</ele>
        <time>2014-05-09T11:10:50Z</time>
      </trkpt>
      <trkpt lat="43.13648" lon="5.72956">
        <ele>25.131714</ele>
        <time>2014-05-09T11:10:55Z</time>
      </trkpt>
      <trkpt lat="43.13641" lon="5.7295">
        <ele>26.573608</ele>
        <time>2014-05-09T11:11:03Z</time>
      </trkpt>
      <trkpt lat="43.13633" lon="5.72947">
        <ele>27.054321</ele>
        <time>2014-05-09T11:11:10Z</time>
      </trkpt>
      <trkpt lat="43.1363" lon="5.72943">
        <ele>27.054321</ele>
        <time>2014-05-09T11:11:17Z</time>
      </trkpt>
      <trkpt lat="43.13624" lon="5.72941">
        <ele>23.689575</ele>
        <time>2014-05-09T11:11:23Z</time>
      </trkpt>
      <trkpt lat="43.1362" lon="5.72939">
        <ele>22.728271</ele>
        <time>2014-05-09T11:11:29Z</time>
      </trkpt>
      <trkpt lat="43.13617" lon="5.72932">
        <ele>23.689575</ele>
        <time>2014-05-09T11:11:38Z</time>
      </trkpt>
      <trkpt lat="43.13612" lon="5.72929">
        <ele>24.651001</ele>
        <time>2014-05-09T11:11:44Z</time>
      </trkpt>
      <trkpt lat="43.13607" lon="5.72926">
        <ele>25.131714</ele>
        <time>2014-05-09T11:11:51Z</time>
      </trkpt>
      <trkpt lat="43.13599" lon="5.72923">
        <ele>24.651001</ele>
        <time>2014-05-09T11:11:58Z</time>
      </trkpt>
      <trkpt lat="43.13594" lon="5.7292">
        <ele>23.208984</ele>
        <time>2014-05-09T11:12:05Z</time>
      </trkpt>
      <trkpt lat="43.1359" lon="5.72917">
        <ele>19.84436</ele>
        <time>2014-05-09T11:12:12Z</time>
      </trkpt>
      <trkpt lat="43.13582" lon="5.72918">
        <ele>26.573608</ele>
        <time>2014-05-09T11:12:19Z</time>
      </trkpt>
      <trkpt lat="43.13571" lon="5.72914">
        <ele>28.015503</ele>
        <time>2014-05-09T11:12:28Z</time>
      </trkpt>
      <trkpt lat="43.13567" lon="5.72911">
        <ele>26.573608</ele>
        <time>2014-05-09T11:12:35Z</time>
      </trkpt>
      <trkpt lat="43.13564" lon="5.7291">
        <ele>21.766968</ele>
        <time>2014-05-09T11:12:46Z</time>
      </trkpt>
      <trkpt lat="43.1356" lon="5.7291">
        <ele>24.651001</ele>
        <time>2014-05-09T11:12:57Z</time>
      </trkpt>
      <trkpt lat="43.13558" lon="5.7291">
        <ele>27.054321</ele>
        <time>2014-05-09T11:13:11Z</time>
      </trkpt>
      <trkpt lat="43.13559" lon="5.72909">
        <ele>27.054321</ele>
        <time>2014-05-09T11:13:20Z</time>
      </trkpt>
      <trkpt lat="43.1356" lon="5.72907">
        <ele>24.651001</ele>
        <time>2014-05-09T11:13:32Z</time>
      </trkpt>
      <trkpt lat="43.13561" lon="5.72903">
        <ele>28.015503</ele>
        <time>2014-05-09T11:13:39Z</time>
      </trkpt>
      <trkpt lat="43.13562" lon="5.72897">
        <ele>33.302856</ele>
        <time>2014-05-09T11:13:48Z</time>
      </trkpt>
      <trkpt lat="43.13563" lon="5.72892">
        <ele>33.302856</ele>
        <time>2014-05-09T11:13:55Z</time>
      </trkpt>
      <trkpt lat="43.13568" lon="5.72887">
        <ele>28.496216</ele>
        <time>2014-05-09T11:14:09Z</time>
      </trkpt>
      <trkpt lat="43.13569" lon="5.72882">
        <ele>29.93811</ele>
        <time>2014-05-09T11:14:16Z</time>
      </trkpt>
      <trkpt lat="43.13568" lon="5.72879">
        <ele>32.822266</ele>
        <time>2014-05-09T11:14:21Z</time>
      </trkpt>
      <trkpt lat="43.13568" lon="5.72873">
        <ele>37.148071</ele>
        <time>2014-05-09T11:14:27Z</time>
      </trkpt>
      <trkpt lat="43.13567" lon="5.72871">
        <ele>37.148071</ele>
        <time>2014-05-09T11:14:34Z</time>
      </trkpt>
      <trkpt lat="43.13567" lon="5.72866">
        <ele>37.628662</ele>
        <time>2014-05-09T11:14:39Z</time>
      </trkpt>
      <trkpt lat="43.13568" lon="5.72859">
        <ele>36.66748</ele>
        <time>2014-05-09T11:14:46Z</time>
      </trkpt>
      <trkpt lat="43.13569" lon="5.72853">
        <ele>38.109375</ele>
        <time>2014-05-09T11:14:53Z</time>
      </trkpt>
      <trkpt lat="43.13571" lon="5.72849">
        <ele>41.954712</ele>
        <time>2014-05-09T11:15:01Z</time>
      </trkpt>
      <trkpt lat="43.13572" lon="5.72844">
        <ele>43.396606</ele>
        <time>2014-05-09T11:15:07Z</time>
      </trkpt>
      <trkpt lat="43.13574" lon="5.72839">
        <ele>45.319214</ele>
        <time>2014-05-09T11:15:16Z</time>
      </trkpt>
      <trkpt lat="43.13575" lon="5.72836">
        <ele>45.319214</ele>
        <time>2014-05-09T11:15:21Z</time>
      </trkpt>
      <trkpt lat="43.13577" lon="5.7283">
        <ele>45.319214</ele>
        <time>2014-05-09T11:15:28Z</time>
      </trkpt>
      <trkpt lat="43.13578" lon="5.72825">
        <ele>44.358032</ele>
        <time>2014-05-09T11:15:35Z</time>
      </trkpt>
      <trkpt lat="43.13579" lon="5.7282">
        <ele>43.396606</ele>
        <time>2014-05-09T11:15:44Z</time>
      </trkpt>
      <trkpt lat="43.13581" lon="5.72815">
        <ele>45.319214</ele>
        <time>2014-05-09T11:15:51Z</time>
      </trkpt>
      <trkpt lat="43.13583" lon="5.7281">
        <ele>45.319214</ele>
        <time>2014-05-09T11:15:59Z</time>
      </trkpt>
      <trkpt lat="43.13585" lon="5.72806">
        <ele>43.877319</ele>
        <time>2014-05-09T11:16:04Z</time>
      </trkpt>
      <trkpt lat="43.13589" lon="5.72796">
        <ele>36.66748</ele>
        <time>2014-05-09T11:16:12Z</time>
      </trkpt>
      <trkpt lat="43.13594" lon="5.7279">
        <ele>29.45752</ele>
        <time>2014-05-09T11:16:19Z</time>
      </trkpt>
      <trkpt lat="43.13596" lon="5.72788">
        <ele>28.976929</ele>
        <time>2014-05-09T11:16:24Z</time>
      </trkpt>
      <trkpt lat="43.13597" lon="5.72784">
        <ele>27.534912</ele>
        <time>2014-05-09T11:16:30Z</time>
      </trkpt>
      <trkpt lat="43.13599" lon="5.7278">
        <ele>24.170288</ele>
        <time>2014-05-09T11:16:35Z</time>
      </trkpt>
      <trkpt lat="43.13601" lon="5.72777">
        <ele>25.131714</ele>
        <time>2014-05-09T11:16:43Z</time>
      </trkpt>
      <trkpt lat="43.13602" lon="5.72773">
        <ele>28.015503</ele>
        <time>2014-05-09T11:16:49Z</time>
      </trkpt>
      <trkpt lat="43.13604" lon="5.72767">
        <ele>24.170288</ele>
        <time>2014-05-09T11:16:58Z</time>
      </trkpt>
      <trkpt lat="43.13607" lon="5.72765">
        <ele>26.092896</ele>
        <time>2014-05-09T11:17:05Z</time>
      </trkpt>
      <trkpt lat="43.13609" lon="5.72763">
        <ele>28.496216</ele>
        <time>2014-05-09T11:17:13Z</time>
      </trkpt>
      <trkpt lat="43.13613" lon="5.7276">
        <ele>26.573608</ele>
        <time>2014-05-09T11:17:19Z</time>
      </trkpt>
      <trkpt lat="43.13617" lon="5.72753">
        <ele>19.84436</ele>
        <time>2014-05-09T11:17:25Z</time>
      </trkpt>
      <trkpt lat="43.1362" lon="5.72752">
        <ele>19.36377</ele>
        <time>2014-05-09T11:17:31Z</time>
      </trkpt>
      <trkpt lat="43.13622" lon="5.72748">
        <ele>18.883057</ele>
        <time>2014-05-09T11:17:37Z</time>
      </trkpt>
      <trkpt lat="43.13624" lon="5.72744">
        <ele>18.402344</ele>
        <time>2014-05-09T11:17:44Z</time>
      </trkpt>
      <trkpt lat="43.13626" lon="5.7274">
        <ele>17.441162</ele>
        <time>2014-05-09T11:17:51Z</time>
      </trkpt>
      <trkpt lat="43.13629" lon="5.72738">
        <ele>17.921753</ele>
        <time>2014-05-09T11:17:57Z</time>
      </trkpt>
      <trkpt lat="43.13633" lon="5.7274">
        <ele>19.36377</ele>
        <time>2014-05-09T11:18:08Z</time>
      </trkpt>
      <trkpt lat="43.13633" lon="5.72742">
        <ele>23.208984</ele>
        <time>2014-05-09T11:18:24Z</time>
      </trkpt>
      <trkpt lat="43.13635" lon="5.72737">
        <ele>19.84436</ele>
        <time>2014-05-09T11:18:30Z</time>
      </trkpt>
      <trkpt lat="43.13637" lon="5.72736">
        <ele>19.36377</ele>
        <time>2014-05-09T11:18:35Z</time>
      </trkpt>
      <trkpt lat="43.13642" lon="5.72732">
        <ele>17.441162</ele>
        <time>2014-05-09T11:18:43Z</time>
      </trkpt>
      <trkpt lat="43.13646" lon="5.72729">
        <ele>18.402344</ele>
        <time>2014-05-09T11:18:50Z</time>
      </trkpt>
      <trkpt lat="43.13648" lon="5.72725">
        <ele>17.921753</ele>
        <time>2014-05-09T11:18:56Z</time>
      </trkpt>
      <trkpt lat="43.13653" lon="5.72725">
        <ele>21.286377</ele>
        <time>2014-05-09T11:19:16Z</time>
      </trkpt>
      <trkpt lat="43.13656" lon="5.72722">
        <ele>19.36377</ele>
        <time>2014-05-09T11:19:23Z</time>
      </trkpt>
      <trkpt lat="43.13661" lon="5.72717">
        <ele>19.84436</ele>
        <time>2014-05-09T11:19:31Z</time>
      </trkpt>
      <trkpt lat="43.13665" lon="5.72712">
        <ele>22.728271</ele>
        <time>2014-05-09T11:19:39Z</time>
      </trkpt>
      <trkpt lat="43.1367" lon="5.72705">
        <ele>21.766968</ele>
        <time>2014-05-09T11:19:47Z</time>
      </trkpt>
      <trkpt lat="43.13673" lon="5.72701">
        <ele>18.883057</ele>
        <time>2014-05-09T11:19:53Z</time>
      </trkpt>
      <trkpt lat="43.13676" lon="5.72699">
        <ele>14.557007</ele>
        <time>2014-05-09T11:20:05Z</time>
      </trkpt>
      <trkpt lat="43.13673" lon="5.72702">
        <ele>19.36377</ele>
        <time>2014-05-09T11:20:13Z</time>
      </trkpt>
      <trkpt lat="43.13672" lon="5.72699">
        <ele>16.479736</ele>
        <time>2014-05-09T11:20:30Z</time>
      </trkpt>
      <trkpt lat="43.13675" lon="5.72696">
        <ele>13.115112</ele>
        <time>2014-05-09T11:20:43Z</time>
      </trkpt>
      <trkpt lat="43.13678" lon="5.72694">
        <ele>10.711792</ele>
        <time>2014-05-09T11:21:04Z</time>
      </trkpt>
      <trkpt lat="43.13677" lon="5.72691">
        <ele>16.479736</ele>
        <time>2014-05-09T11:21:16Z</time>
      </trkpt>
      <trkpt lat="43.13679" lon="5.72692">
        <ele>15.999023</ele>
        <time>2014-05-09T11:21:25Z</time>
      </trkpt>
      <trkpt lat="43.13679" lon="5.72694">
        <ele>12.153809</ele>
        <time>2014-05-09T11:21:37Z</time>
      </trkpt>
      <trkpt lat="43.1368" lon="5.72693">
        <ele>12.634399</ele>
        <time>2014-05-09T11:21:39Z</time>
      </trkpt>
      <trkpt lat="43.13684" lon="5.72683">
        <ele>16.960449</ele>
        <time>2014-05-09T11:21:47Z</time>
      </trkpt>
      <trkpt lat="43.13686" lon="5.72681">
        <ele>17.921753</ele>
        <time>2014-05-09T11:21:49Z</time>
      </trkpt>
      <trkpt lat="43.13693" lon="5.72673">
        <ele>11.673218</ele>
        <time>2014-05-09T11:21:56Z</time>
      </trkpt>
      <trkpt lat="43.13696" lon="5.72669">
        <ele>10.711792</ele>
        <time>2014-05-09T11:22:04Z</time>
      </trkpt>
      <trkpt lat="43.13699" lon="5.72665">
        <ele>10.711792</ele>
        <time>2014-05-09T11:22:12Z</time>
      </trkpt>
      <trkpt lat="43.137" lon="5.7266">
        <ele>11.673218</ele>
        <time>2014-05-09T11:22:22Z</time>
      </trkpt>
      <trkpt lat="43.13703" lon="5.72651">
        <ele>2.060059</ele>
        <time>2014-05-09T11:22:30Z</time>
      </trkpt>
      <trkpt lat="43.13703" lon="5.72644">
        <ele>-2.265991</ele>
        <time>2014-05-09T11:22:39Z</time>
      </trkpt>
      <trkpt lat="43.13702" lon="5.72641">
        <ele>-3.227295</ele>
        <time>2014-05-09T11:22:47Z</time>
      </trkpt>
      <trkpt lat="43.13697" lon="5.72636">
        <ele>-6.111206</ele>
        <time>2014-05-09T11:22:55Z</time>
      </trkpt>
      <trkpt lat="43.13697" lon="5.72635">
        <ele>-7.553101</ele>
        <time>2014-05-09T11:23:02Z</time>
      </trkpt>
      <trkpt lat="43.13696" lon="5.72634">
        <ele>-4.669312</ele>
        <time>2014-05-09T11:23:08Z</time>
      </trkpt>
      <trkpt lat="43.13697" lon="5.72628">
        <ele>-0.343384</ele>
        <time>2014-05-09T11:23:16Z</time>
      </trkpt>
      <trkpt lat="43.137" lon="5.72624">
        <ele>3.02124</ele>
        <time>2014-05-09T11:23:24Z</time>
      </trkpt>
      <trkpt lat="43.13698" lon="5.72623">
        <ele>8.789185</ele>
        <time>2014-05-09T11:23:29Z</time>
      </trkpt>
      <trkpt lat="43.13696" lon="5.72619">
        <ele>7.827881</ele>
        <time>2014-05-09T11:23:36Z</time>
      </trkpt>
      <trkpt lat="43.13693" lon="5.72618">
        <ele>-1.785278</ele>
        <time>2014-05-09T11:23:44Z</time>
      </trkpt>
      <trkpt lat="43.13695" lon="5.72616">
        <ele>-9.956543</ele>
        <time>2014-05-09T11:23:53Z</time>
      </trkpt>
      <trkpt lat="43.13697" lon="5.72614">
        <ele>-19.088989</ele>
        <time>2014-05-09T11:24:05Z</time>
      </trkpt>
      <trkpt lat="43.13699" lon="5.72614">
        <ele>-19.088989</ele>
        <time>2014-05-09T11:24:12Z</time>
      </trkpt>
      <trkpt lat="43.13698" lon="5.72613">
        <ele>-16.2052</ele>
        <time>2014-05-09T11:24:19Z</time>
      </trkpt>
      <trkpt lat="43.13695" lon="5.7261">
        <ele>-13.801758</ele>
        <time>2014-05-09T11:24:27Z</time>
      </trkpt>
      <trkpt lat="43.13693" lon="5.72602">
        <ele>-12.840454</ele>
        <time>2014-05-09T11:24:39Z</time>
      </trkpt>
      <trkpt lat="43.13692" lon="5.72601">
        <ele>-5.149902</ele>
        <time>2014-05-09T11:24:47Z</time>
      </trkpt>
      <trkpt lat="43.1369" lon="5.72596">
        <ele>-2.746704</ele>
        <time>2014-05-09T11:24:52Z</time>
      </trkpt>
      <trkpt lat="43.13689" lon="5.72592">
        <ele>-1.785278</ele>
        <time>2014-05-09T11:24:58Z</time>
      </trkpt>
      <trkpt lat="43.13687" lon="5.72586">
        <ele>1.098633</ele>
        <time>2014-05-09T11:25:03Z</time>
      </trkpt>
      <trkpt lat="43.13688" lon="5.72582">
        <ele>2.060059</ele>
        <time>2014-05-09T11:25:11Z</time>
      </trkpt>
      <trkpt lat="43.13688" lon="5.72578">
        <ele>-2.265991</ele>
        <time>2014-05-09T11:25:26Z</time>
      </trkpt>
      <trkpt lat="43.13688" lon="5.72573">
        <ele>-6.591919</ele>
        <time>2014-05-09T11:25:34Z</time>
      </trkpt>
      <trkpt lat="43.13688" lon="5.72568">
        <ele>-5.630493</ele>
        <time>2014-05-09T11:25:39Z</time>
      </trkpt>
      <trkpt lat="43.13688" lon="5.72564">
        <ele>-4.669312</ele>
        <time>2014-05-09T11:25:46Z</time>
      </trkpt>
      <trkpt lat="43.13691" lon="5.72564">
        <ele>-5.630493</ele>
        <time>2014-05-09T11:25:57Z</time>
      </trkpt>
      <trkpt lat="43.13688" lon="5.72566">
        <ele>1.579346</ele>
        <time>2014-05-09T11:26:09Z</time>
      </trkpt>
      <trkpt lat="43.13686" lon="5.72561">
        <ele>2.540649</ele>
        <time>2014-05-09T11:26:26Z</time>
      </trkpt>
      <trkpt lat="43.13686" lon="5.72562">
        <ele>2.060059</ele>
        <time>2014-05-09T11:26:38Z</time>
      </trkpt>
      <trkpt lat="43.13683" lon="5.72558">
        <ele>1.579346</ele>
        <time>2014-05-09T11:26:47Z</time>
      </trkpt>
      <trkpt lat="43.13681" lon="5.72556">
        <ele>0.618042</ele>
        <time>2014-05-09T11:26:52Z</time>
      </trkpt>
      <trkpt lat="43.13676" lon="5.72556">
        <ele>2.540649</ele>
        <time>2014-05-09T11:27:00Z</time>
      </trkpt>
      <trkpt lat="43.13673" lon="5.72555">
        <ele>1.579346</ele>
        <time>2014-05-09T11:27:06Z</time>
      </trkpt>
      <trkpt lat="43.1367" lon="5.72553">
        <ele>1.579346</ele>
        <time>2014-05-09T11:27:13Z</time>
      </trkpt>
      <trkpt lat="43.13668" lon="5.7255">
        <ele>2.060059</ele>
        <time>2014-05-09T11:27:19Z</time>
      </trkpt>
      <trkpt lat="43.13668" lon="5.72549">
        <ele>6.385864</ele>
        <time>2014-05-09T11:27:24Z</time>
      </trkpt>
      <trkpt lat="43.13667" lon="5.72547">
        <ele>7.347168</ele>
        <time>2014-05-09T11:27:31Z</time>
      </trkpt>
      <trkpt lat="43.13665" lon="5.72547">
        <ele>10.231201</ele>
        <time>2014-05-09T11:27:41Z</time>
      </trkpt>
      <trkpt lat="43.13663" lon="5.72546">
        <ele>9.269897</ele>
        <time>2014-05-09T11:27:48Z</time>
      </trkpt>
      <trkpt lat="43.13661" lon="5.72543">
        <ele>10.711792</ele>
        <time>2014-05-09T11:27:54Z</time>
      </trkpt>
      <trkpt lat="43.13659" lon="5.72541">
        <ele>10.231201</ele>
        <time>2014-05-09T11:28:02Z</time>
      </trkpt>
      <trkpt lat="43.13658" lon="5.72537">
        <ele>11.192505</ele>
        <time>2014-05-09T11:28:08Z</time>
      </trkpt>
      <trkpt lat="43.13659" lon="5.72535">
        <ele>12.153809</ele>
        <time>2014-05-09T11:28:13Z</time>
      </trkpt>
      <trkpt lat="43.13661" lon="5.72529">
        <ele>14.076416</ele>
        <time>2014-05-09T11:28:20Z</time>
      </trkpt>
      <trkpt lat="43.13662" lon="5.72526">
        <ele>17.441162</ele>
        <time>2014-05-09T11:28:28Z</time>
      </trkpt>
      <trkpt lat="43.13664" lon="5.72523">
        <ele>19.84436</ele>
        <time>2014-05-09T11:28:35Z</time>
      </trkpt>
      <trkpt lat="43.13665" lon="5.72521">
        <ele>20.805664</ele>
        <time>2014-05-09T11:28:41Z</time>
      </trkpt>
      <trkpt lat="43.13667" lon="5.72517">
        <ele>24.651001</ele>
        <time>2014-05-09T11:28:49Z</time>
      </trkpt>
      <trkpt lat="43.13667" lon="5.72515">
        <ele>27.534912</ele>
        <time>2014-05-09T11:28:57Z</time>
      </trkpt>
      <trkpt lat="43.13669" lon="5.72511">
        <ele>28.496216</ele>
        <time>2014-05-09T11:29:03Z</time>
      </trkpt>
      <trkpt lat="43.13671" lon="5.72509">
        <ele>29.93811</ele>
        <time>2014-05-09T11:29:09Z</time>
      </trkpt>
      <trkpt lat="43.13672" lon="5.72507">
        <ele>31.380127</ele>
        <time>2014-05-09T11:29:16Z</time>
      </trkpt>
      <trkpt lat="43.13673" lon="5.72506">
        <ele>30.899536</ele>
        <time>2014-05-09T11:29:25Z</time>
      </trkpt>
      <trkpt lat="43.13675" lon="5.72506">
        <ele>29.93811</ele>
        <time>2014-05-09T11:29:46Z</time>
      </trkpt>
      <trkpt lat="43.13673" lon="5.725">
        <ele>29.45752</ele>
        <time>2014-05-09T11:29:54Z</time>
      </trkpt>
      <trkpt lat="43.13675" lon="5.72494">
        <ele>29.45752</ele>
        <time>2014-05-09T11:30:01Z</time>
      </trkpt>
      <trkpt lat="43.13678" lon="5.72487">
        <ele>30.899536</ele>
        <time>2014-05-09T11:30:11Z</time>
      </trkpt>
      <trkpt lat="43.13679" lon="5.72486">
        <ele>31.380127</ele>
        <time>2014-05-09T11:30:16Z</time>
      </trkpt>
      <trkpt lat="43.13679" lon="5.72483">
        <ele>30.418823</ele>
        <time>2014-05-09T11:30:24Z</time>
      </trkpt>
      <trkpt lat="43.13679" lon="5.7248">
        <ele>29.93811</ele>
        <time>2014-05-09T11:30:28Z</time>
      </trkpt>
      <trkpt lat="43.13684" lon="5.72478">
        <ele>31.860718</ele>
        <time>2014-05-09T11:30:36Z</time>
      </trkpt>
      <trkpt lat="43.13689" lon="5.72476">
        <ele>31.860718</ele>
        <time>2014-05-09T11:30:42Z</time>
      </trkpt>
      <trkpt lat="43.13696" lon="5.72474">
        <ele>34.26416</ele>
        <time>2014-05-09T11:30:50Z</time>
      </trkpt>
      <trkpt lat="43.13702" lon="5.72475">
        <ele>36.186768</ele>
        <time>2014-05-09T11:30:57Z</time>
      </trkpt>
      <trkpt lat="43.13709" lon="5.72476">
        <ele>36.186768</ele>
        <time>2014-05-09T11:31:04Z</time>
      </trkpt>
      <trkpt lat="43.13714" lon="5.72476">
        <ele>38.109375</ele>
        <time>2014-05-09T11:31:11Z</time>
      </trkpt>
      <trkpt lat="43.13719" lon="5.72477">
        <ele>39.070679</ele>
        <time>2014-05-09T11:31:17Z</time>
      </trkpt>
      <trkpt lat="43.13724" lon="5.72481">
        <ele>40.032104</ele>
        <time>2014-05-09T11:31:25Z</time>
      </trkpt>
      <trkpt lat="43.13731" lon="5.72483">
        <ele>39.070679</ele>
        <time>2014-05-09T11:31:34Z</time>
      </trkpt>
      <trkpt lat="43.13738" lon="5.72481">
        <ele>37.148071</ele>
        <time>2014-05-09T11:31:42Z</time>
      </trkpt>
      <trkpt lat="43.13744" lon="5.7248">
        <ele>37.628662</ele>
        <time>2014-05-09T11:31:50Z</time>
      </trkpt>
      <trkpt lat="43.13749" lon="5.72479">
        <ele>38.590088</ele>
        <time>2014-05-09T11:31:56Z</time>
      </trkpt>
      <trkpt lat="43.13755" lon="5.72476">
        <ele>39.070679</ele>
        <time>2014-05-09T11:32:04Z</time>
      </trkpt>
      <trkpt lat="43.13759" lon="5.72475">
        <ele>40.993408</ele>
        <time>2014-05-09T11:32:11Z</time>
      </trkpt>
      <trkpt lat="43.13763" lon="5.72473">
        <ele>42.435425</ele>
        <time>2014-05-09T11:32:18Z</time>
      </trkpt>
      <trkpt lat="43.13769" lon="5.72473">
        <ele>42.916016</ele>
        <time>2014-05-09T11:32:26Z</time>
      </trkpt>
      <trkpt lat="43.13776" lon="5.72472">
        <ele>40.993408</ele>
        <time>2014-05-09T11:32:34Z</time>
      </trkpt>
      <trkpt lat="43.13785" lon="5.72473">
        <ele>42.435425</ele>
        <time>2014-05-09T11:32:43Z</time>
      </trkpt>
      <trkpt lat="43.13793" lon="5.72473">
        <ele>42.916016</ele>
        <time>2014-05-09T11:32:52Z</time>
      </trkpt>
      <trkpt lat="43.13799" lon="5.72475">
        <ele>43.877319</ele>
        <time>2014-05-09T11:32:59Z</time>
      </trkpt>
      <trkpt lat="43.13808" lon="5.72477">
        <ele>44.358032</ele>
        <time>2014-05-09T11:33:08Z</time>
      </trkpt>
      <trkpt lat="43.13814" lon="5.72477">
        <ele>43.877319</ele>
        <time>2014-05-09T11:33:15Z</time>
      </trkpt>
      <trkpt lat="43.1382" lon="5.72478">
        <ele>45.319214</ele>
        <time>2014-05-09T11:33:22Z</time>
      </trkpt>
      <trkpt lat="43.13827" lon="5.72476">
        <ele>47.241821</ele>
        <time>2014-05-09T11:33:29Z</time>
      </trkpt>
      <trkpt lat="43.13834" lon="5.7248">
        <ele>47.241821</ele>
        <time>2014-05-09T11:33:36Z</time>
      </trkpt>
      <trkpt lat="43.13843" lon="5.7248">
        <ele>46.76123</ele>
        <time>2014-05-09T11:33:44Z</time>
      </trkpt>
      <trkpt lat="43.13852" lon="5.72479">
        <ele>43.877319</ele>
        <time>2014-05-09T11:33:52Z</time>
      </trkpt>
      <trkpt lat="43.13858" lon="5.7248">
        <ele>42.435425</ele>
        <time>2014-05-09T11:33:59Z</time>
      </trkpt>
      <trkpt lat="43.13863" lon="5.7248">
        <ele>42.916016</ele>
        <time>2014-05-09T11:34:05Z</time>
      </trkpt>
      <trkpt lat="43.13869" lon="5.7248">
        <ele>43.877319</ele>
        <time>2014-05-09T11:34:13Z</time>
      </trkpt>
      <trkpt lat="43.13875" lon="5.72476">
        <ele>43.877319</ele>
        <time>2014-05-09T11:34:22Z</time>
      </trkpt>
      <trkpt lat="43.13878" lon="5.72475">
        <ele>44.838623</ele>
        <time>2014-05-09T11:34:27Z</time>
      </trkpt>
      <trkpt lat="43.13881" lon="5.72468">
        <ele>41.954712</ele>
        <time>2014-05-09T11:34:34Z</time>
      </trkpt>
      <trkpt lat="43.13882" lon="5.72464">
        <ele>40.512817</ele>
        <time>2014-05-09T11:34:42Z</time>
      </trkpt>
      <trkpt lat="43.13887" lon="5.72464">
        <ele>32.341553</ele>
        <time>2014-05-09T11:34:57Z</time>
      </trkpt>
      <trkpt lat="43.13887" lon="5.72463">
        <ele>30.418823</ele>
        <time>2014-05-09T11:35:07Z</time>
      </trkpt>
      <trkpt lat="43.13887" lon="5.7246">
        <ele>28.015503</ele>
        <time>2014-05-09T11:35:15Z</time>
      </trkpt>
      <trkpt lat="43.13888" lon="5.72457">
        <ele>28.496216</ele>
        <time>2014-05-09T11:35:26Z</time>
      </trkpt>
      <trkpt lat="43.13882" lon="5.72458">
        <ele>35.225464</ele>
        <time>2014-05-09T11:35:50Z</time>
      </trkpt>
      <trkpt lat="43.13879" lon="5.72453">
        <ele>42.916016</ele>
        <time>2014-05-09T11:36:05Z</time>
      </trkpt>
      <trkpt lat="43.1388" lon="5.72455">
        <ele>43.396606</ele>
        <time>2014-05-09T11:36:14Z</time>
      </trkpt>
      <trkpt lat="43.13884" lon="5.72458">
        <ele>40.512817</ele>
        <time>2014-05-09T11:36:25Z</time>
      </trkpt>
      <trkpt lat="43.13887" lon="5.72456">
        <ele>40.032104</ele>
        <time>2014-05-09T11:36:33Z</time>
      </trkpt>
      <trkpt lat="43.13888" lon="5.72452">
        <ele>39.55127</ele>
        <time>2014-05-09T11:36:40Z</time>
      </trkpt>
      <trkpt lat="43.13889" lon="5.72447">
        <ele>40.512817</ele>
        <time>2014-05-09T11:36:46Z</time>
      </trkpt>
      <trkpt lat="43.13892" lon="5.72443">
        <ele>40.993408</ele>
        <time>2014-05-09T11:36:51Z</time>
      </trkpt>
      <trkpt lat="43.13895" lon="5.72438">
        <ele>39.55127</ele>
        <time>2014-05-09T11:36:57Z</time>
      </trkpt>
      <trkpt lat="43.139" lon="5.72431">
        <ele>37.628662</ele>
        <time>2014-05-09T11:37:03Z</time>
      </trkpt>
      <trkpt lat="43.13903" lon="5.72424">
        <ele>38.109375</ele>
        <time>2014-05-09T11:37:09Z</time>
      </trkpt>
      <trkpt lat="43.13905" lon="5.72421">
        <ele>41.473999</ele>
        <time>2014-05-09T11:37:15Z</time>
      </trkpt>
      <trkpt lat="43.13909" lon="5.72417">
        <ele>43.396606</ele>
        <time>2014-05-09T11:37:23Z</time>
      </trkpt>
      <trkpt lat="43.13914" lon="5.72414">
        <ele>43.396606</ele>
        <time>2014-05-09T11:37:31Z</time>
      </trkpt>
      <trkpt lat="43.13919" lon="5.72408">
        <ele>46.28064</ele>
        <time>2014-05-09T11:37:38Z</time>
      </trkpt>
      <trkpt lat="43.13924" lon="5.72401">
        <ele>45.319214</ele>
        <time>2014-05-09T11:37:45Z</time>
      </trkpt>
      <trkpt lat="43.13927" lon="5.72397">
        <ele>44.358032</ele>
        <time>2014-05-09T11:37:51Z</time>
      </trkpt>
      <trkpt lat="43.13932" lon="5.72393">
        <ele>43.877319</ele>
        <time>2014-05-09T11:37:59Z</time>
      </trkpt>
      <trkpt lat="43.13938" lon="5.7239">
        <ele>44.358032</ele>
        <time>2014-05-09T11:38:06Z</time>
      </trkpt>
      <trkpt lat="43.13943" lon="5.72388">
        <ele>45.319214</ele>
        <time>2014-05-09T11:38:13Z</time>
      </trkpt>
      <trkpt lat="43.13949" lon="5.7238">
        <ele>42.435425</ele>
        <time>2014-05-09T11:38:21Z</time>
      </trkpt>
      <trkpt lat="43.13955" lon="5.72375">
        <ele>41.954712</ele>
        <time>2014-05-09T11:38:28Z</time>
      </trkpt>
      <trkpt lat="43.13961" lon="5.72374">
        <ele>44.358032</ele>
        <time>2014-05-09T11:38:36Z</time>
      </trkpt>
      <trkpt lat="43.13967" lon="5.72376">
        <ele>44.838623</ele>
        <time>2014-05-09T11:38:43Z</time>
      </trkpt>
      <trkpt lat="43.13974" lon="5.72378">
        <ele>44.838623</ele>
        <time>2014-05-09T11:38:51Z</time>
      </trkpt>
      <trkpt lat="43.13978" lon="5.72378">
        <ele>44.838623</ele>
        <time>2014-05-09T11:38:58Z</time>
      </trkpt>
      <trkpt lat="43.13984" lon="5.72377">
        <ele>45.319214</ele>
        <time>2014-05-09T11:39:05Z</time>
      </trkpt>
      <trkpt lat="43.13991" lon="5.72376">
        <ele>45.799927</ele>
        <time>2014-05-09T11:39:13Z</time>
      </trkpt>
      <trkpt lat="43.13998" lon="5.72373">
        <ele>42.435425</ele>
        <time>2014-05-09T11:39:20Z</time>
      </trkpt>
      <trkpt lat="43.14003" lon="5.72371">
        <ele>40.512817</ele>
        <time>2014-05-09T11:39:27Z</time>
      </trkpt>
      <trkpt lat="43.14007" lon="5.72363">
        <ele>40.993408</ele>
        <time>2014-05-09T11:39:32Z</time>
      </trkpt>
      <trkpt lat="43.14012" lon="5.72355">
        <ele>40.512817</ele>
        <time>2014-05-09T11:39:40Z</time>
      </trkpt>
      <trkpt lat="43.14018" lon="5.72354">
        <ele>40.032104</ele>
        <time>2014-05-09T11:39:46Z</time>
      </trkpt>
      <trkpt lat="43.14024" lon="5.72353">
        <ele>40.993408</ele>
        <time>2014-05-09T11:39:53Z</time>
      </trkpt>
      <trkpt lat="43.14029" lon="5.72353">
        <ele>41.954712</ele>
        <time>2014-05-09T11:39:59Z</time>
      </trkpt>
      <trkpt lat="43.14034" lon="5.72348">
        <ele>41.473999</ele>
        <time>2014-05-09T11:40:04Z</time>
      </trkpt>
      <trkpt lat="43.14039" lon="5.72342">
        <ele>39.070679</ele>
        <time>2014-05-09T11:40:10Z</time>
      </trkpt>
      <trkpt lat="43.14043" lon="5.72338">
        <ele>39.55127</ele>
        <time>2014-05-09T11:40:14Z</time>
      </trkpt>
      <trkpt lat="43.14049" lon="5.72332">
        <ele>40.993408</ele>
        <time>2014-05-09T11:40:22Z</time>
      </trkpt>
      <trkpt lat="43.14054" lon="5.72328">
        <ele>43.396606</ele>
        <time>2014-05-09T11:40:29Z</time>
      </trkpt>
      <trkpt lat="43.14059" lon="5.72323">
        <ele>45.799927</ele>
        <time>2014-05-09T11:40:39Z</time>
      </trkpt>
      <trkpt lat="43.14063" lon="5.72318">
        <ele>46.28064</ele>
        <time>2014-05-09T11:40:47Z</time>
      </trkpt>
      <trkpt lat="43.14069" lon="5.72314">
        <ele>46.76123</ele>
        <time>2014-05-09T11:40:54Z</time>
      </trkpt>
      <trkpt lat="43.14074" lon="5.72309">
        <ele>47.241821</ele>
        <time>2014-05-09T11:41:01Z</time>
      </trkpt>
      <trkpt lat="43.14079" lon="5.72305">
        <ele>47.241821</ele>
        <time>2014-05-09T11:41:08Z</time>
      </trkpt>
      <trkpt lat="43.14083" lon="5.723">
        <ele>47.722534</ele>
        <time>2014-05-09T11:41:15Z</time>
      </trkpt>
      <trkpt lat="43.14086" lon="5.72296">
        <ele>48.203369</ele>
        <time>2014-05-09T11:41:22Z</time>
      </trkpt>
      <trkpt lat="43.14091" lon="5.72293">
        <ele>47.722534</ele>
        <time>2014-05-09T11:41:29Z</time>
      </trkpt>
      <trkpt lat="43.14096" lon="5.72288">
        <ele>48.68396</ele>
        <time>2014-05-09T11:41:37Z</time>
      </trkpt>
      <trkpt lat="43.14101" lon="5.7228">
        <ele>48.68396</ele>
        <time>2014-05-09T11:41:45Z</time>
      </trkpt>
      <trkpt lat="43.14102" lon="5.72278">
        <ele>48.203369</ele>
        <time>2014-05-09T11:41:47Z</time>
      </trkpt>
      <trkpt lat="43.14108" lon="5.72272">
        <ele>48.203369</ele>
        <time>2014-05-09T11:41:56Z</time>
      </trkpt>
      <trkpt lat="43.1411" lon="5.72269">
        <ele>47.722534</ele>
        <time>2014-05-09T11:42:03Z</time>
      </trkpt>
      <trkpt lat="43.14109" lon="5.7227">
        <ele>49.164551</ele>
        <time>2014-05-09T11:42:10Z</time>
      </trkpt>
      <trkpt lat="43.14111" lon="5.72266">
        <ele>47.241821</ele>
        <time>2014-05-09T11:42:17Z</time>
      </trkpt>
      <trkpt lat="43.14114" lon="5.72262">
        <ele>47.722534</ele>
        <time>2014-05-09T11:42:24Z</time>
      </trkpt>
      <trkpt lat="43.14116" lon="5.72259">
        <ele>47.722534</ele>
        <time>2014-05-09T11:42:30Z</time>
      </trkpt>
      <trkpt lat="43.14118" lon="5.72254">
        <ele>48.203369</ele>
        <time>2014-05-09T11:42:37Z</time>
      </trkpt>
      <trkpt lat="43.14121" lon="5.72251">
        <ele>47.241821</ele>
        <time>2014-05-09T11:42:44Z</time>
      </trkpt>
      <trkpt lat="43.14124" lon="5.72246">
        <ele>45.319214</ele>
        <time>2014-05-09T11:42:51Z</time>
      </trkpt>
      <trkpt lat="43.14126" lon="5.72242">
        <ele>45.799927</ele>
        <time>2014-05-09T11:42:57Z</time>
      </trkpt>
      <trkpt lat="43.14128" lon="5.72239">
        <ele>46.76123</ele>
        <time>2014-05-09T11:43:09Z</time>
      </trkpt>
      <trkpt lat="43.14131" lon="5.72233">
        <ele>47.722534</ele>
        <time>2014-05-09T11:43:16Z</time>
      </trkpt>
      <trkpt lat="43.14135" lon="5.72233">
        <ele>49.164551</ele>
        <time>2014-05-09T11:43:23Z</time>
      </trkpt>
      <trkpt lat="43.14141" lon="5.72233">
        <ele>51.087158</ele>
        <time>2014-05-09T11:43:31Z</time>
      </trkpt>
      <trkpt lat="43.14145" lon="5.72232">
        <ele>52.048584</ele>
        <time>2014-05-09T11:43:38Z</time>
      </trkpt>
      <trkpt lat="43.1415" lon="5.72228">
        <ele>52.529175</ele>
        <time>2014-05-09T11:43:45Z</time>
      </trkpt>
      <trkpt lat="43.14156" lon="5.72226">
        <ele>50.606567</ele>
        <time>2014-05-09T11:43:53Z</time>
      </trkpt>
      <trkpt lat="43.14163" lon="5.72225">
        <ele>51.567871</ele>
        <time>2014-05-09T11:44:01Z</time>
      </trkpt>
      <trkpt lat="43.14167" lon="5.72222">
        <ele>48.68396</ele>
        <time>2014-05-09T11:44:06Z</time>
      </trkpt>
      <trkpt lat="43.1417" lon="5.72218">
        <ele>45.319214</ele>
        <time>2014-05-09T11:44:13Z</time>
      </trkpt>
      <trkpt lat="43.14173" lon="5.72214">
        <ele>46.76123</ele>
        <time>2014-05-09T11:44:21Z</time>
      </trkpt>
      <trkpt lat="43.14177" lon="5.7221">
        <ele>45.319214</ele>
        <time>2014-05-09T11:44:29Z</time>
      </trkpt>
      <trkpt lat="43.14181" lon="5.72207">
        <ele>43.877319</ele>
        <time>2014-05-09T11:44:35Z</time>
      </trkpt>
      <trkpt lat="43.14185" lon="5.72202">
        <ele>48.203369</ele>
        <time>2014-05-09T11:44:43Z</time>
      </trkpt>
      <trkpt lat="43.14187" lon="5.72198">
        <ele>50.606567</ele>
        <time>2014-05-09T11:44:49Z</time>
      </trkpt>
      <trkpt lat="43.1419" lon="5.72194">
        <ele>51.567871</ele>
        <time>2014-05-09T11:44:55Z</time>
      </trkpt>
      <trkpt lat="43.14193" lon="5.72192">
        <ele>51.567871</ele>
        <time>2014-05-09T11:45:01Z</time>
      </trkpt>
      <trkpt lat="43.14197" lon="5.72191">
        <ele>53.009766</ele>
        <time>2014-05-09T11:45:08Z</time>
      </trkpt>
      <trkpt lat="43.14202" lon="5.72191">
        <ele>58.297119</ele>
        <time>2014-05-09T11:45:16Z</time>
      </trkpt>
      <trkpt lat="43.14206" lon="5.72191">
        <ele>61.18103</ele>
        <time>2014-05-09T11:45:23Z</time>
      </trkpt>
      <trkpt lat="43.1421" lon="5.72192">
        <ele>62.142334</ele>
        <time>2014-05-09T11:45:30Z</time>
      </trkpt>
      <trkpt lat="43.14215" lon="5.72195">
        <ele>65.50708</ele>
        <time>2014-05-09T11:45:41Z</time>
      </trkpt>
      <trkpt lat="43.14223" lon="5.72196">
        <ele>64.065063</ele>
        <time>2014-05-09T11:45:49Z</time>
      </trkpt>
      <trkpt lat="43.14231" lon="5.72198">
        <ele>63.103638</ele>
        <time>2014-05-09T11:45:57Z</time>
      </trkpt>
      <trkpt lat="43.14236" lon="5.72193">
        <ele>63.103638</ele>
        <time>2014-05-09T11:46:06Z</time>
      </trkpt>
      <trkpt lat="43.14239" lon="5.72189">
        <ele>64.545654</ele>
        <time>2014-05-09T11:46:14Z</time>
      </trkpt>
      <trkpt lat="43.14243" lon="5.72185">
        <ele>62.622925</ele>
        <time>2014-05-09T11:46:20Z</time>
      </trkpt>
      <trkpt lat="43.14247" lon="5.72182">
        <ele>63.584351</ele>
        <time>2014-05-09T11:46:29Z</time>
      </trkpt>
      <trkpt lat="43.14252" lon="5.72179">
        <ele>64.065063</ele>
        <time>2014-05-09T11:46:44Z</time>
      </trkpt>
      <trkpt lat="43.14252" lon="5.72181">
        <ele>67.910278</ele>
        <time>2014-05-09T11:46:58Z</time>
      </trkpt>
      <trkpt lat="43.14253" lon="5.72178">
        <ele>69.832886</ele>
        <time>2014-05-09T11:47:14Z</time>
      </trkpt>
      <trkpt lat="43.14254" lon="5.72176">
        <ele>71.755493</ele>
        <time>2014-05-09T11:47:28Z</time>
      </trkpt>
      <trkpt lat="43.14257" lon="5.72179">
        <ele>58.77771</ele>
        <time>2014-05-09T11:47:47Z</time>
      </trkpt>
      <trkpt lat="43.14256" lon="5.72179">
        <ele>58.77771</ele>
        <time>2014-05-09T11:47:57Z</time>
      </trkpt>
      <trkpt lat="43.14255" lon="5.7218">
        <ele>60.219727</ele>
        <time>2014-05-09T11:48:06Z</time>
      </trkpt>
      <trkpt lat="43.1425" lon="5.72176">
        <ele>72.236206</ele>
        <time>2014-05-09T11:48:46Z</time>
      </trkpt>
      <trkpt lat="43.14252" lon="5.7218">
        <ele>69.352295</ele>
        <time>2014-05-09T11:49:03Z</time>
      </trkpt>
      <trkpt lat="43.14254" lon="5.72181">
        <ele>68.871582</ele>
        <time>2014-05-09T11:49:09Z</time>
      </trkpt>
      <trkpt lat="43.14256" lon="5.72182">
        <ele>69.352295</ele>
        <time>2014-05-09T11:49:19Z</time>
      </trkpt>
      <trkpt lat="43.14255" lon="5.72193">
        <ele>75.60083</ele>
        <time>2014-05-09T11:49:32Z</time>
      </trkpt>
      <trkpt lat="43.14255" lon="5.72194">
        <ele>78.484741</ele>
        <time>2014-05-09T11:49:44Z</time>
      </trkpt>
      <trkpt lat="43.14255" lon="5.72191">
        <ele>87.617188</ele>
        <time>2014-05-09T11:50:04Z</time>
      </trkpt>
      <trkpt lat="43.14254" lon="5.7219">
        <ele>84.733398</ele>
        <time>2014-05-09T11:50:11Z</time>
      </trkpt>
      <trkpt lat="43.14253" lon="5.72186">
        <ele>78.004028</ele>
        <time>2014-05-09T11:50:21Z</time>
      </trkpt>
      <trkpt lat="43.14254" lon="5.72184">
        <ele>75.60083</ele>
        <time>2014-05-09T11:50:26Z</time>
      </trkpt>
      <trkpt lat="43.14255" lon="5.72182">
        <ele>71.755493</ele>
        <time>2014-05-09T11:50:35Z</time>
      </trkpt>
      <trkpt lat="43.14257" lon="5.7218">
        <ele>67.429688</ele>
        <time>2014-05-09T11:50:44Z</time>
      </trkpt>
      <trkpt lat="43.14257" lon="5.7218">
        <ele>67.429688</ele>
        <time>2014-05-09T11:50:51Z</time>
      </trkpt>
      <trkpt lat="43.14257" lon="5.72176">
        <ele>68.871582</ele>
        <time>2014-05-09T11:51:02Z</time>
      </trkpt>
      <trkpt lat="43.14256" lon="5.72179">
        <ele>63.584351</ele>
        <time>2014-05-09T11:51:15Z</time>
      </trkpt>
      <trkpt lat="43.14256" lon="5.72179">
        <ele>65.50708</ele>
        <time>2014-05-09T11:51:22Z</time>
      </trkpt>
      <trkpt lat="43.14255" lon="5.72179">
        <ele>65.987671</ele>
        <time>2014-05-09T11:51:27Z</time>
      </trkpt>
      <trkpt lat="43.14253" lon="5.72177">
        <ele>71.274902</ele>
        <time>2014-05-09T11:51:36Z</time>
      </trkpt>
      <trkpt lat="43.1425" lon="5.72175">
        <ele>75.60083</ele>
        <time>2014-05-09T11:51:50Z</time>
      </trkpt>
      <trkpt lat="43.1425" lon="5.72175">
        <ele>75.120239</ele>
        <time>2014-05-09T11:52:02Z</time>
      </trkpt>
      <trkpt lat="43.1425" lon="5.72174">
        <ele>71.755493</ele>
        <time>2014-05-09T11:52:10Z</time>
      </trkpt>
      <trkpt lat="43.14251" lon="5.72173">
        <ele>70.794189</ele>
        <time>2014-05-09T11:52:19Z</time>
      </trkpt>
      <trkpt lat="43.1425" lon="5.72171">
        <ele>69.832886</ele>
        <time>2014-05-09T11:52:31Z</time>
      </trkpt>
      <trkpt lat="43.14251" lon="5.72173">
        <ele>68.390869</ele>
        <time>2014-05-09T11:52:42Z</time>
      </trkpt>
      <trkpt lat="43.14252" lon="5.72175">
        <ele>65.987671</ele>
        <time>2014-05-09T11:52:53Z</time>
      </trkpt>
      <trkpt lat="43.14251" lon="5.72177">
        <ele>65.50708</ele>
        <time>2014-05-09T11:53:05Z</time>
      </trkpt>
      <trkpt lat="43.14251" lon="5.72176">
        <ele>68.390869</ele>
        <time>2014-05-09T11:53:15Z</time>
      </trkpt>
      <trkpt lat="43.14253" lon="5.72174">
        <ele>65.987671</ele>
        <time>2014-05-09T11:53:25Z</time>
      </trkpt>
      <trkpt lat="43.14254" lon="5.72176">
        <ele>66.948975</ele>
        <time>2014-05-09T11:53:29Z</time>
      </trkpt>
      <trkpt lat="43.14257" lon="5.72178">
        <ele>58.297119</ele>
        <time>2014-05-09T11:53:42Z</time>
      </trkpt>
      <trkpt lat="43.14257" lon="5.72179">
        <ele>59.258423</ele>
        <time>2014-05-09T11:53:51Z</time>
      </trkpt>
      <trkpt lat="43.14256" lon="5.72178">
        <ele>66.468262</ele>
        <time>2014-05-09T11:53:58Z</time>
      </trkpt>
      <trkpt lat="43.14256" lon="5.72177">
        <ele>64.545654</ele>
        <time>2014-05-09T11:54:10Z</time>
      </trkpt>
      <trkpt lat="43.14256" lon="5.72174">
        <ele>64.545654</ele>
        <time>2014-05-09T11:54:16Z</time>
      </trkpt>
      <trkpt lat="43.1426" lon="5.7217">
        <ele>64.065063</ele>
        <time>2014-05-09T11:54:27Z</time>
      </trkpt>
      <trkpt lat="43.14261" lon="5.72172">
        <ele>70.794189</ele>
        <time>2014-05-09T11:54:43Z</time>
      </trkpt>
      <trkpt lat="43.14259" lon="5.72174">
        <ele>73.197632</ele>
        <time>2014-05-09T11:54:50Z</time>
      </trkpt>
      <trkpt lat="43.14261" lon="5.72175">
        <ele>76.081421</ele>
        <time>2014-05-09T11:54:59Z</time>
      </trkpt>
      <trkpt lat="43.1426" lon="5.72178">
        <ele>75.60083</ele>
        <time>2014-05-09T11:55:06Z</time>
      </trkpt>
      <trkpt lat="43.1426" lon="5.72179">
        <ele>70.313477</ele>
        <time>2014-05-09T11:55:19Z</time>
      </trkpt>
      <trkpt lat="43.14257" lon="5.72181">
        <ele>67.429688</ele>
        <time>2014-05-09T11:55:27Z</time>
      </trkpt>
      <trkpt lat="43.14255" lon="5.72185">
        <ele>65.50708</ele>
        <time>2014-05-09T11:55:35Z</time>
      </trkpt>
      <trkpt lat="43.14256" lon="5.72185">
        <ele>68.871582</ele>
        <time>2014-05-09T11:55:41Z</time>
      </trkpt>
      <trkpt lat="43.14254" lon="5.72187">
        <ele>70.313477</ele>
        <time>2014-05-09T11:55:52Z</time>
      </trkpt>
      <trkpt lat="43.14257" lon="5.72191">
        <ele>72.716919</ele>
        <time>2014-05-09T11:56:02Z</time>
      </trkpt>
      <trkpt lat="43.1426" lon="5.72192">
        <ele>73.197632</ele>
        <time>2014-05-09T11:56:09Z</time>
      </trkpt>
      <trkpt lat="43.14262" lon="5.72193">
        <ele>71.755493</ele>
        <time>2014-05-09T11:56:15Z</time>
      </trkpt>
      <trkpt lat="43.14265" lon="5.72194">
        <ele>70.794189</ele>
        <time>2014-05-09T11:56:23Z</time>
      </trkpt>
      <trkpt lat="43.14271" lon="5.72199">
        <ele>68.390869</ele>
        <time>2014-05-09T11:56:45Z</time>
      </trkpt>
      <trkpt lat="43.14273" lon="5.72198">
        <ele>67.910278</ele>
        <time>2014-05-09T11:56:55Z</time>
      </trkpt>
      <trkpt lat="43.14275" lon="5.72197">
        <ele>73.678223</ele>
        <time>2014-05-09T11:57:10Z</time>
      </trkpt>
      <trkpt lat="43.14278" lon="5.72192">
        <ele>78.004028</ele>
        <time>2014-05-09T11:57:17Z</time>
      </trkpt>
      <trkpt lat="43.14284" lon="5.72188">
        <ele>78.484741</ele>
        <time>2014-05-09T11:57:25Z</time>
      </trkpt>
      <trkpt lat="43.14285" lon="5.72185">
        <ele>81.368774</ele>
        <time>2014-05-09T11:57:31Z</time>
      </trkpt>
      <trkpt lat="43.14291" lon="5.72184">
        <ele>85.69458</ele>
        <time>2014-05-09T11:57:39Z</time>
      </trkpt>
      <trkpt lat="43.14297" lon="5.72185">
        <ele>85.213989</ele>
        <time>2014-05-09T11:57:47Z</time>
      </trkpt>
      <trkpt lat="43.14303" lon="5.72186">
        <ele>81.368774</ele>
        <time>2014-05-09T11:57:54Z</time>
      </trkpt>
      <trkpt lat="43.1431" lon="5.72189">
        <ele>77.042847</ele>
        <time>2014-05-09T11:58:03Z</time>
      </trkpt>
      <trkpt lat="43.14313" lon="5.72189">
        <ele>76.081421</ele>
        <time>2014-05-09T11:58:10Z</time>
      </trkpt>
      <trkpt lat="43.14315" lon="5.7219">
        <ele>74.639526</ele>
        <time>2014-05-09T11:58:17Z</time>
      </trkpt>
      <trkpt lat="43.14318" lon="5.72189">
        <ele>74.639526</ele>
        <time>2014-05-09T11:58:23Z</time>
      </trkpt>
      <trkpt lat="43.14325" lon="5.72186">
        <ele>72.236206</ele>
        <time>2014-05-09T11:58:30Z</time>
      </trkpt>
      <trkpt lat="43.1433" lon="5.72184">
        <ele>73.678223</ele>
        <time>2014-05-09T11:58:36Z</time>
      </trkpt>
      <trkpt lat="43.14337" lon="5.72179">
        <ele>77.042847</ele>
        <time>2014-05-09T11:58:44Z</time>
      </trkpt>
      <trkpt lat="43.14343" lon="5.72176">
        <ele>78.484741</ele>
        <time>2014-05-09T11:58:52Z</time>
      </trkpt>
      <trkpt lat="43.14348" lon="5.72175">
        <ele>78.965454</ele>
        <time>2014-05-09T11:58:58Z</time>
      </trkpt>
      <trkpt lat="43.14353" lon="5.72173">
        <ele>83.291382</ele>
        <time>2014-05-09T11:59:06Z</time>
      </trkpt>
      <trkpt lat="43.14358" lon="5.72172">
        <ele>84.733398</ele>
        <time>2014-05-09T11:59:13Z</time>
      </trkpt>
      <trkpt lat="43.14363" lon="5.72167">
        <ele>84.733398</ele>
        <time>2014-05-09T11:59:21Z</time>
      </trkpt>
      <trkpt lat="43.14369" lon="5.72172">
        <ele>80.888184</ele>
        <time>2014-05-09T11:59:27Z</time>
      </trkpt>
      <trkpt lat="43.14373" lon="5.72172">
        <ele>81.849365</ele>
        <time>2014-05-09T11:59:34Z</time>
      </trkpt>
      <trkpt lat="43.14375" lon="5.72176">
        <ele>79.446045</ele>
        <time>2014-05-09T11:59:41Z</time>
      </trkpt>
      <trkpt lat="43.14382" lon="5.72176">
        <ele>80.888184</ele>
        <time>2014-05-09T11:59:49Z</time>
      </trkpt>
      <trkpt lat="43.14389" lon="5.72177">
        <ele>81.849365</ele>
        <time>2014-05-09T11:59:56Z</time>
      </trkpt>
      <trkpt lat="43.14396" lon="5.72176">
        <ele>80.888184</ele>
        <time>2014-05-09T12:00:03Z</time>
      </trkpt>
      <trkpt lat="43.14403" lon="5.72176">
        <ele>82.810791</ele>
        <time>2014-05-09T12:00:11Z</time>
      </trkpt>
      <trkpt lat="43.14412" lon="5.72179">
        <ele>84.252686</ele>
        <time>2014-05-09T12:00:21Z</time>
      </trkpt>
      <trkpt lat="43.14418" lon="5.7218">
        <ele>83.291382</ele>
        <time>2014-05-09T12:00:29Z</time>
      </trkpt>
      <trkpt lat="43.14426" lon="5.72183">
        <ele>84.252686</ele>
        <time>2014-05-09T12:00:38Z</time>
      </trkpt>
      <trkpt lat="43.14431" lon="5.72182">
        <ele>85.213989</ele>
        <time>2014-05-09T12:00:46Z</time>
      </trkpt>
      <trkpt lat="43.14438" lon="5.72177">
        <ele>81.368774</ele>
        <time>2014-05-09T12:00:54Z</time>
      </trkpt>
      <trkpt lat="43.14443" lon="5.72175">
        <ele>80.888184</ele>
        <time>2014-05-09T12:01:01Z</time>
      </trkpt>
      <trkpt lat="43.14449" lon="5.72176">
        <ele>79.446045</ele>
        <time>2014-05-09T12:01:09Z</time>
      </trkpt>
      <trkpt lat="43.14457" lon="5.72177">
        <ele>76.562134</ele>
        <time>2014-05-09T12:01:17Z</time>
      </trkpt>
      <trkpt lat="43.14461" lon="5.72177">
        <ele>75.60083</ele>
        <time>2014-05-09T12:01:24Z</time>
      </trkpt>
      <trkpt lat="43.14462" lon="5.72179">
        <ele>71.755493</ele>
        <time>2014-05-09T12:01:37Z</time>
      </trkpt>
      <trkpt lat="43.14468" lon="5.72178">
        <ele>74.158813</ele>
        <time>2014-05-09T12:01:44Z</time>
      </trkpt>
      <trkpt lat="43.14475" lon="5.72176">
        <ele>76.081421</ele>
        <time>2014-05-09T12:01:52Z</time>
      </trkpt>
      <trkpt lat="43.14483" lon="5.72179">
        <ele>76.081421</ele>
        <time>2014-05-09T12:02:00Z</time>
      </trkpt>
      <trkpt lat="43.14487" lon="5.72178">
        <ele>74.639526</ele>
        <time>2014-05-09T12:02:04Z</time>
      </trkpt>
      <trkpt lat="43.14493" lon="5.7218">
        <ele>74.158813</ele>
        <time>2014-05-09T12:02:12Z</time>
      </trkpt>
      <trkpt lat="43.14498" lon="5.72181">
        <ele>72.236206</ele>
        <time>2014-05-09T12:02:19Z</time>
      </trkpt>
      <trkpt lat="43.14503" lon="5.72178">
        <ele>70.794189</ele>
        <time>2014-05-09T12:02:25Z</time>
      </trkpt>
      <trkpt lat="43.14509" lon="5.72177">
        <ele>71.755493</ele>
        <time>2014-05-09T12:02:32Z</time>
      </trkpt>
      <trkpt lat="43.14513" lon="5.72177">
        <ele>74.158813</ele>
        <time>2014-05-09T12:02:37Z</time>
      </trkpt>
      <trkpt lat="43.14521" lon="5.72174">
        <ele>76.081421</ele>
        <time>2014-05-09T12:02:45Z</time>
      </trkpt>
      <trkpt lat="43.14525" lon="5.72173">
        <ele>75.60083</ele>
        <time>2014-05-09T12:02:52Z</time>
      </trkpt>
      <trkpt lat="43.14529" lon="5.72172">
        <ele>73.197632</ele>
        <time>2014-05-09T12:03:00Z</time>
      </trkpt>
      <trkpt lat="43.14534" lon="5.72171">
        <ele>64.545654</ele>
        <time>2014-05-09T12:03:11Z</time>
      </trkpt>
      <trkpt lat="43.14537" lon="5.7217">
        <ele>67.910278</ele>
        <time>2014-05-09T12:03:17Z</time>
      </trkpt>
      <trkpt lat="43.14541" lon="5.72168">
        <ele>71.274902</ele>
        <time>2014-05-09T12:03:23Z</time>
      </trkpt>
      <trkpt lat="43.14544" lon="5.72168">
        <ele>73.678223</ele>
        <time>2014-05-09T12:03:30Z</time>
      </trkpt>
      <trkpt lat="43.1455" lon="5.72167">
        <ele>73.197632</ele>
        <time>2014-05-09T12:03:38Z</time>
      </trkpt>
      <trkpt lat="43.14555" lon="5.72167">
        <ele>71.274902</ele>
        <time>2014-05-09T12:03:45Z</time>
      </trkpt>
      <trkpt lat="43.14566" lon="5.72167">
        <ele>73.678223</ele>
        <time>2014-05-09T12:03:55Z</time>
      </trkpt>
      <trkpt lat="43.14573" lon="5.72164">
        <ele>74.639526</ele>
        <time>2014-05-09T12:04:03Z</time>
      </trkpt>
      <trkpt lat="43.14577" lon="5.7216">
        <ele>74.158813</ele>
        <time>2014-05-09T12:04:10Z</time>
      </trkpt>
      <trkpt lat="43.14582" lon="5.72158">
        <ele>72.716919</ele>
        <time>2014-05-09T12:04:18Z</time>
      </trkpt>
      <trkpt lat="43.14588" lon="5.72154">
        <ele>69.832886</ele>
        <time>2014-05-09T12:04:26Z</time>
      </trkpt>
      <trkpt lat="43.14593" lon="5.72148">
        <ele>70.794189</ele>
        <time>2014-05-09T12:04:34Z</time>
      </trkpt>
      <trkpt lat="43.14599" lon="5.72143">
        <ele>70.313477</ele>
        <time>2014-05-09T12:04:41Z</time>
      </trkpt>
      <trkpt lat="43.14604" lon="5.72139">
        <ele>72.716919</ele>
        <time>2014-05-09T12:04:49Z</time>
      </trkpt>
      <trkpt lat="43.1461" lon="5.72133">
        <ele>76.081421</ele>
        <time>2014-05-09T12:04:58Z</time>
      </trkpt>
      <trkpt lat="43.14617" lon="5.72125">
        <ele>76.562134</ele>
        <time>2014-05-09T12:05:07Z</time>
      </trkpt>
      <trkpt lat="43.14623" lon="5.72118">
        <ele>76.081421</ele>
        <time>2014-05-09T12:05:14Z</time>
      </trkpt>
      <trkpt lat="43.14628" lon="5.72116">
        <ele>78.004028</ele>
        <time>2014-05-09T12:05:19Z</time>
      </trkpt>
      <trkpt lat="43.14635" lon="5.72112">
        <ele>78.484741</ele>
        <time>2014-05-09T12:05:28Z</time>
      </trkpt>
      <trkpt lat="43.14642" lon="5.72108">
        <ele>76.562134</ele>
        <time>2014-05-09T12:05:36Z</time>
      </trkpt>
      <trkpt lat="43.14651" lon="5.72103">
        <ele>76.562134</ele>
        <time>2014-05-09T12:05:46Z</time>
      </trkpt>
      <trkpt lat="43.14655" lon="5.72101">
        <ele>76.081421</ele>
        <time>2014-05-09T12:05:51Z</time>
      </trkpt>
      <trkpt lat="43.14659" lon="5.72098">
        <ele>78.004028</ele>
        <time>2014-05-09T12:05:57Z</time>
      </trkpt>
      <trkpt lat="43.14663" lon="5.72093">
        <ele>78.004028</ele>
        <time>2014-05-09T12:06:04Z</time>
      </trkpt>
      <trkpt lat="43.14667" lon="5.72091">
        <ele>78.484741</ele>
        <time>2014-05-09T12:06:11Z</time>
      </trkpt>
      <trkpt lat="43.1467" lon="5.72089">
        <ele>78.004028</ele>
        <time>2014-05-09T12:06:17Z</time>
      </trkpt>
      <trkpt lat="43.14676" lon="5.72086">
        <ele>83.771973</ele>
        <time>2014-05-09T12:06:45Z</time>
      </trkpt>
      <trkpt lat="43.14678" lon="5.72084">
        <ele>78.004028</ele>
        <time>2014-05-09T12:06:54Z</time>
      </trkpt>
      <trkpt lat="43.14678" lon="5.72086">
        <ele>77.042847</ele>
        <time>2014-05-09T12:07:08Z</time>
      </trkpt>
      <trkpt lat="43.14677" lon="5.72089">
        <ele>72.716919</ele>
        <time>2014-05-09T12:07:33Z</time>
      </trkpt>
      <trkpt lat="43.14678" lon="5.72091">
        <ele>78.965454</ele>
        <time>2014-05-09T12:07:41Z</time>
      </trkpt>
      <trkpt lat="43.14681" lon="5.7209">
        <ele>77.523438</ele>
        <time>2014-05-09T12:07:49Z</time>
      </trkpt>
      <trkpt lat="43.14681" lon="5.72093">
        <ele>77.523438</ele>
        <time>2014-05-09T12:07:56Z</time>
      </trkpt>
      <trkpt lat="43.14685" lon="5.72097">
        <ele>85.213989</ele>
        <time>2014-05-09T12:08:08Z</time>
      </trkpt>
      <trkpt lat="43.14688" lon="5.72098">
        <ele>89.539917</ele>
        <time>2014-05-09T12:08:20Z</time>
      </trkpt>
      <trkpt lat="43.14689" lon="5.721">
        <ele>92.42395</ele>
        <time>2014-05-09T12:08:38Z</time>
      </trkpt>
      <trkpt lat="43.14692" lon="5.72099">
        <ele>93.385132</ele>
        <time>2014-05-09T12:08:44Z</time>
      </trkpt>
      <trkpt lat="43.14694" lon="5.72095">
        <ele>84.733398</ele>
        <time>2014-05-09T12:08:52Z</time>
      </trkpt>
      <trkpt lat="43.14693" lon="5.72094">
        <ele>81.849365</ele>
        <time>2014-05-09T12:08:54Z</time>
      </trkpt>
      <trkpt lat="43.14698" lon="5.72089">
        <ele>79.446045</ele>
        <time>2014-05-09T12:09:01Z</time>
      </trkpt>
      <trkpt lat="43.14705" lon="5.7208">
        <ele>77.523438</ele>
        <time>2014-05-09T12:09:09Z</time>
      </trkpt>
      <trkpt lat="43.14709" lon="5.72076">
        <ele>74.639526</ele>
        <time>2014-05-09T12:09:15Z</time>
      </trkpt>
      <trkpt lat="43.14714" lon="5.72073">
        <ele>72.716919</ele>
        <time>2014-05-09T12:09:22Z</time>
      </trkpt>
      <trkpt lat="43.14721" lon="5.72072">
        <ele>69.832886</ele>
        <time>2014-05-09T12:09:28Z</time>
      </trkpt>
      <trkpt lat="43.14723" lon="5.72072">
        <ele>62.622925</ele>
        <time>2014-05-09T12:09:34Z</time>
      </trkpt>
      <trkpt lat="43.14724" lon="5.72072">
        <ele>60.219727</ele>
        <time>2014-05-09T12:09:42Z</time>
      </trkpt>
      <trkpt lat="43.14724" lon="5.72078">
        <ele>56.855103</ele>
        <time>2014-05-09T12:10:12Z</time>
      </trkpt>
      <trkpt lat="43.14728" lon="5.72075">
        <ele>58.297119</ele>
        <time>2014-05-09T12:10:16Z</time>
      </trkpt>
      <trkpt lat="43.14736" lon="5.72071">
        <ele>58.77771</ele>
        <time>2014-05-09T12:10:23Z</time>
      </trkpt>
      <trkpt lat="43.14739" lon="5.72068">
        <ele>62.142334</ele>
        <time>2014-05-09T12:10:30Z</time>
      </trkpt>
      <trkpt lat="43.14745" lon="5.72067">
        <ele>64.065063</ele>
        <time>2014-05-09T12:10:36Z</time>
      </trkpt>
      <trkpt lat="43.14749" lon="5.72066">
        <ele>66.468262</ele>
        <time>2014-05-09T12:10:41Z</time>
      </trkpt>
      <trkpt lat="43.14753" lon="5.72058">
        <ele>68.871582</ele>
        <time>2014-05-09T12:10:49Z</time>
      </trkpt>
      <trkpt lat="43.14756" lon="5.72057">
        <ele>68.871582</ele>
        <time>2014-05-09T12:10:55Z</time>
      </trkpt>
      <trkpt lat="43.14766" lon="5.72051">
        <ele>65.50708</ele>
        <time>2014-05-09T12:11:03Z</time>
      </trkpt>
      <trkpt lat="43.14772" lon="5.72048">
        <ele>66.948975</ele>
        <time>2014-05-09T12:11:11Z</time>
      </trkpt>
      <trkpt lat="43.14775" lon="5.72046">
        <ele>71.274902</ele>
        <time>2014-05-09T12:11:18Z</time>
      </trkpt>
      <trkpt lat="43.14777" lon="5.72046">
        <ele>72.236206</ele>
        <time>2014-05-09T12:11:25Z</time>
      </trkpt>
      <trkpt lat="43.14782" lon="5.72046">
        <ele>73.197632</ele>
        <time>2014-05-09T12:11:31Z</time>
      </trkpt>
      <trkpt lat="43.1479" lon="5.72046">
        <ele>72.716919</ele>
        <time>2014-05-09T12:11:38Z</time>
      </trkpt>
      <trkpt lat="43.14801" lon="5.72043">
        <ele>71.274902</ele>
        <time>2014-05-09T12:11:45Z</time>
      </trkpt>
      <trkpt lat="43.14805" lon="5.72041">
        <ele>70.794189</ele>
        <time>2014-05-09T12:11:51Z</time>
      </trkpt>
      <trkpt lat="43.1481" lon="5.7204">
        <ele>66.948975</ele>
        <time>2014-05-09T12:11:58Z</time>
      </trkpt>
      <trkpt lat="43.14814" lon="5.72039">
        <ele>65.987671</ele>
        <time>2014-05-09T12:12:03Z</time>
      </trkpt>
      <trkpt lat="43.14821" lon="5.72039">
        <ele>65.987671</ele>
        <time>2014-05-09T12:12:11Z</time>
      </trkpt>
      <trkpt lat="43.14827" lon="5.72036">
        <ele>66.468262</ele>
        <time>2014-05-09T12:12:18Z</time>
      </trkpt>
      <trkpt lat="43.14833" lon="5.72031">
        <ele>65.987671</ele>
        <time>2014-05-09T12:12:29Z</time>
      </trkpt>
      <trkpt lat="43.14837" lon="5.7203">
        <ele>66.948975</ele>
        <time>2014-05-09T12:12:36Z</time>
      </trkpt>
      <trkpt lat="43.14839" lon="5.72027">
        <ele>63.103638</ele>
        <time>2014-05-09T12:12:43Z</time>
      </trkpt>
      <trkpt lat="43.14842" lon="5.72025">
        <ele>61.18103</ele>
        <time>2014-05-09T12:12:49Z</time>
      </trkpt>
      <trkpt lat="43.14844" lon="5.72022">
        <ele>59.258423</ele>
        <time>2014-05-09T12:12:56Z</time>
      </trkpt>
      <trkpt lat="43.14845" lon="5.72019">
        <ele>57.335815</ele>
        <time>2014-05-09T12:13:02Z</time>
      </trkpt>
      <trkpt lat="43.14846" lon="5.72014">
        <ele>55.893799</ele>
        <time>2014-05-09T12:13:10Z</time>
      </trkpt>
      <trkpt lat="43.14851" lon="5.72012">
        <ele>54.932373</ele>
        <time>2014-05-09T12:13:22Z</time>
      </trkpt>
      <trkpt lat="43.14854" lon="5.72011">
        <ele>53.009766</ele>
        <time>2014-05-09T12:13:31Z</time>
      </trkpt>
      <trkpt lat="43.14859" lon="5.72007">
        <ele>52.529175</ele>
        <time>2014-05-09T12:13:49Z</time>
      </trkpt>
      <trkpt lat="43.14862" lon="5.72006">
        <ele>52.529175</ele>
        <time>2014-05-09T12:13:55Z</time>
      </trkpt>
      <trkpt lat="43.14868" lon="5.72006">
        <ele>59.258423</ele>
        <time>2014-05-09T12:14:03Z</time>
      </trkpt>
      <trkpt lat="43.14874" lon="5.72001">
        <ele>54.932373</ele>
        <time>2014-05-09T12:14:13Z</time>
      </trkpt>
      <trkpt lat="43.14877" lon="5.71999">
        <ele>51.087158</ele>
        <time>2014-05-09T12:14:20Z</time>
      </trkpt>
      <trkpt lat="43.14884" lon="5.71996">
        <ele>55.893799</ele>
        <time>2014-05-09T12:14:33Z</time>
      </trkpt>
      <trkpt lat="43.14882" lon="5.71986">
        <ele>53.971191</ele>
        <time>2014-05-09T12:14:49Z</time>
      </trkpt>
      <trkpt lat="43.14882" lon="5.7198">
        <ele>51.567871</ele>
        <time>2014-05-09T12:14:55Z</time>
      </trkpt>
      <trkpt lat="43.14882" lon="5.71973">
        <ele>52.529175</ele>
        <time>2014-05-09T12:15:01Z</time>
      </trkpt>
      <trkpt lat="43.14881" lon="5.71966">
        <ele>53.490479</ele>
        <time>2014-05-09T12:15:09Z</time>
      </trkpt>
      <trkpt lat="43.1488" lon="5.7196">
        <ele>53.971191</ele>
        <time>2014-05-09T12:15:17Z</time>
      </trkpt>
      <trkpt lat="43.14878" lon="5.71954">
        <ele>53.490479</ele>
        <time>2014-05-09T12:15:24Z</time>
      </trkpt>
      <trkpt lat="43.14877" lon="5.71949">
        <ele>57.335815</ele>
        <time>2014-05-09T12:15:32Z</time>
      </trkpt>
      <trkpt lat="43.14878" lon="5.71942">
        <ele>60.219727</ele>
        <time>2014-05-09T12:15:39Z</time>
      </trkpt>
      <trkpt lat="43.14878" lon="5.71936">
        <ele>62.142334</ele>
        <time>2014-05-09T12:15:45Z</time>
      </trkpt>
      <trkpt lat="43.1488" lon="5.71929">
        <ele>62.142334</ele>
        <time>2014-05-09T12:15:53Z</time>
      </trkpt>
      <trkpt lat="43.14879" lon="5.71922">
        <ele>55.413086</ele>
        <time>2014-05-09T12:16:00Z</time>
      </trkpt>
      <trkpt lat="43.14879" lon="5.71917">
        <ele>53.490479</ele>
        <time>2014-05-09T12:16:07Z</time>
      </trkpt>
      <trkpt lat="43.14881" lon="5.71906">
        <ele>55.413086</ele>
        <time>2014-05-09T12:16:14Z</time>
      </trkpt>
      <trkpt lat="43.1488" lon="5.71901">
        <ele>59.258423</ele>
        <time>2014-05-09T12:16:20Z</time>
      </trkpt>
      <trkpt lat="43.14882" lon="5.71898">
        <ele>62.622925</ele>
        <time>2014-05-09T12:16:28Z</time>
      </trkpt>
      <trkpt lat="43.14884" lon="5.71895">
        <ele>65.50708</ele>
        <time>2014-05-09T12:16:39Z</time>
      </trkpt>
      <trkpt lat="43.14884" lon="5.71888">
        <ele>73.197632</ele>
        <time>2014-05-09T12:16:57Z</time>
      </trkpt>
      <trkpt lat="43.14879" lon="5.71888">
        <ele>63.103638</ele>
        <time>2014-05-09T12:17:12Z</time>
      </trkpt>
      <trkpt lat="43.14874" lon="5.71882">
        <ele>37.148071</ele>
        <time>2014-05-09T12:17:45Z</time>
      </trkpt>
      <trkpt lat="43.14876" lon="5.71879">
        <ele>45.319214</ele>
        <time>2014-05-09T12:17:48Z</time>
      </trkpt>
      <trkpt lat="43.14874" lon="5.71873">
        <ele>52.529175</ele>
        <time>2014-05-09T12:17:54Z</time>
      </trkpt>
      <trkpt lat="43.14867" lon="5.71866">
        <ele>56.374512</ele>
        <time>2014-05-09T12:18:01Z</time>
      </trkpt>
      <trkpt lat="43.1486" lon="5.71859">
        <ele>54.932373</ele>
        <time>2014-05-09T12:18:08Z</time>
      </trkpt>
      <trkpt lat="43.14854" lon="5.71853">
        <ele>54.932373</ele>
        <time>2014-05-09T12:18:15Z</time>
      </trkpt>
      <trkpt lat="43.1485" lon="5.71849">
        <ele>54.451782</ele>
        <time>2014-05-09T12:18:19Z</time>
      </trkpt>
      <trkpt lat="43.14845" lon="5.71839">
        <ele>55.893799</ele>
        <time>2014-05-09T12:18:26Z</time>
      </trkpt>
      <trkpt lat="43.14844" lon="5.71827">
        <ele>54.451782</ele>
        <time>2014-05-09T12:18:33Z</time>
      </trkpt>
      <trkpt lat="43.14845" lon="5.71815">
        <ele>55.893799</ele>
        <time>2014-05-09T12:18:40Z</time>
      </trkpt>
      <trkpt lat="43.14845" lon="5.71804">
        <ele>53.971191</ele>
        <time>2014-05-09T12:18:46Z</time>
      </trkpt>
      <trkpt lat="43.14847" lon="5.71796">
        <ele>53.490479</ele>
        <time>2014-05-09T12:18:51Z</time>
      </trkpt>
      <trkpt lat="43.14847" lon="5.71793">
        <ele>53.009766</ele>
        <time>2014-05-09T12:18:53Z</time>
      </trkpt>
      <trkpt lat="43.14848" lon="5.71786">
        <ele>51.087158</ele>
        <time>2014-05-09T12:18:57Z</time>
      </trkpt>
      <trkpt lat="43.14846" lon="5.71777">
        <ele>52.048584</ele>
        <time>2014-05-09T12:19:04Z</time>
      </trkpt>
      <trkpt lat="43.14846" lon="5.71768">
        <ele>51.087158</ele>
        <time>2014-05-09T12:19:11Z</time>
      </trkpt>
      <trkpt lat="43.14847" lon="5.71759">
        <ele>53.971191</ele>
        <time>2014-05-09T12:19:17Z</time>
      </trkpt>
      <trkpt lat="43.1485" lon="5.71749">
        <ele>55.893799</ele>
        <time>2014-05-09T12:19:23Z</time>
      </trkpt>
      <trkpt lat="43.14851" lon="5.71745">
        <ele>56.855103</ele>
        <time>2014-05-09T12:19:26Z</time>
      </trkpt>
      <trkpt lat="43.14855" lon="5.71734">
        <ele>55.893799</ele>
        <time>2014-05-09T12:19:32Z</time>
      </trkpt>
      <trkpt lat="43.14857" lon="5.71726">
        <ele>54.932373</ele>
        <time>2014-05-09T12:19:37Z</time>
      </trkpt>
      <trkpt lat="43.14858" lon="5.71716">
        <ele>55.893799</ele>
        <time>2014-05-09T12:19:44Z</time>
      </trkpt>
      <trkpt lat="43.14861" lon="5.71709">
        <ele>57.335815</ele>
        <time>2014-05-09T12:19:50Z</time>
      </trkpt>
      <trkpt lat="43.14864" lon="5.71701">
        <ele>58.297119</ele>
        <time>2014-05-09T12:19:57Z</time>
      </trkpt>
      <trkpt lat="43.14869" lon="5.71691">
        <ele>54.451782</ele>
        <time>2014-05-09T12:20:05Z</time>
      </trkpt>
      <trkpt lat="43.14869" lon="5.7169">
        <ele>53.971191</ele>
        <time>2014-05-09T12:20:06Z</time>
      </trkpt>
      <trkpt lat="43.14864" lon="5.71688">
        <ele>55.413086</ele>
        <time>2014-05-09T12:20:13Z</time>
      </trkpt>
      <trkpt lat="43.1486" lon="5.71692">
        <ele>56.374512</ele>
        <time>2014-05-09T12:20:20Z</time>
      </trkpt>
      <trkpt lat="43.14858" lon="5.71698">
        <ele>54.451782</ele>
        <time>2014-05-09T12:20:26Z</time>
      </trkpt>
      <trkpt lat="43.14853" lon="5.71705">
        <ele>51.087158</ele>
        <time>2014-05-09T12:20:32Z</time>
      </trkpt>
      <trkpt lat="43.14848" lon="5.71712">
        <ele>50.606567</ele>
        <time>2014-05-09T12:20:39Z</time>
      </trkpt>
      <trkpt lat="43.14844" lon="5.71719">
        <ele>49.164551</ele>
        <time>2014-05-09T12:20:45Z</time>
      </trkpt>
      <trkpt lat="43.14844" lon="5.7172">
        <ele>48.203369</ele>
        <time>2014-05-09T12:20:49Z</time>
      </trkpt>
      <trkpt lat="43.14842" lon="5.71723">
        <ele>49.645264</ele>
        <time>2014-05-09T12:20:52Z</time>
      </trkpt>
      <trkpt lat="43.1484" lon="5.71724">
        <ele>48.68396</ele>
        <time>2014-05-09T12:20:59Z</time>
      </trkpt>
      <trkpt lat="43.1484" lon="5.71724">
        <ele>44.838623</ele>
        <time>2014-05-09T12:21:08Z</time>
      </trkpt>
      <trkpt lat="43.14842" lon="5.71721">
        <ele>40.993408</ele>
        <time>2014-05-09T12:21:14Z</time>
      </trkpt>
      <trkpt lat="43.14844" lon="5.71719">
        <ele>40.032104</ele>
        <time>2014-05-09T12:21:34Z</time>
      </trkpt>
      <trkpt lat="43.14846" lon="5.71721">
        <ele>36.66748</ele>
        <time>2014-05-09T12:21:44Z</time>
      </trkpt>
      <trkpt lat="43.14846" lon="5.71721">
        <ele>40.993408</ele>
        <time>2014-05-09T12:21:48Z</time>
      </trkpt>
      <trkpt lat="43.14845" lon="5.71727">
        <ele>48.203369</ele>
        <time>2014-05-09T12:21:55Z</time>
      </trkpt>
      <trkpt lat="43.14846" lon="5.71724">
        <ele>50.125977</ele>
        <time>2014-05-09T12:22:02Z</time>
      </trkpt>
      <trkpt lat="43.14847" lon="5.71722">
        <ele>50.125977</ele>
        <time>2014-05-09T12:22:06Z</time>
      </trkpt>
      <trkpt lat="43.1485" lon="5.71713">
        <ele>50.606567</ele>
        <time>2014-05-09T12:22:13Z</time>
      </trkpt>
      <trkpt lat="43.14852" lon="5.7171">
        <ele>52.529175</ele>
        <time>2014-05-09T12:22:17Z</time>
      </trkpt>
      <trkpt lat="43.14857" lon="5.71701">
        <ele>52.048584</ele>
        <time>2014-05-09T12:22:24Z</time>
      </trkpt>
      <trkpt lat="43.14863" lon="5.71695">
        <ele>51.087158</ele>
        <time>2014-05-09T12:22:30Z</time>
      </trkpt>
      <trkpt lat="43.14865" lon="5.71689">
        <ele>52.048584</ele>
        <time>2014-05-09T12:22:35Z</time>
      </trkpt>
      <trkpt lat="43.14869" lon="5.71682">
        <ele>48.68396</ele>
        <time>2014-05-09T12:22:41Z</time>
      </trkpt>
      <trkpt lat="43.14871" lon="5.71676">
        <ele>45.799927</ele>
        <time>2014-05-09T12:22:54Z</time>
      </trkpt>
      <trkpt lat="43.1487" lon="5.71675">
        <ele>45.319214</ele>
        <time>2014-05-09T12:23:00Z</time>
      </trkpt>
      <trkpt lat="43.14866" lon="5.71679">
        <ele>47.241821</ele>
        <time>2014-05-09T12:23:07Z</time>
      </trkpt>
      <trkpt lat="43.14867" lon="5.71677">
        <ele>49.164551</ele>
        <time>2014-05-09T12:23:12Z</time>
      </trkpt>
      <trkpt lat="43.14872" lon="5.71673">
        <ele>50.125977</ele>
        <time>2014-05-09T12:23:19Z</time>
      </trkpt>
      <trkpt lat="43.14877" lon="5.71667">
        <ele>52.048584</ele>
        <time>2014-05-09T12:23:26Z</time>
      </trkpt>
      <trkpt lat="43.1488" lon="5.71661">
        <ele>51.567871</ele>
        <time>2014-05-09T12:23:32Z</time>
      </trkpt>
      <trkpt lat="43.14883" lon="5.71651">
        <ele>53.490479</ele>
        <time>2014-05-09T12:23:41Z</time>
      </trkpt>
      <trkpt lat="43.14886" lon="5.71642">
        <ele>53.490479</ele>
        <time>2014-05-09T12:23:50Z</time>
      </trkpt>
      <trkpt lat="43.14886" lon="5.71636">
        <ele>49.645264</ele>
        <time>2014-05-09T12:23:56Z</time>
      </trkpt>
      <trkpt lat="43.14884" lon="5.71626">
        <ele>46.76123</ele>
        <time>2014-05-09T12:24:05Z</time>
      </trkpt>
      <trkpt lat="43.14886" lon="5.71617">
        <ele>46.76123</ele>
        <time>2014-05-09T12:24:13Z</time>
      </trkpt>
      <trkpt lat="43.14885" lon="5.71606">
        <ele>44.838623</ele>
        <time>2014-05-09T12:24:20Z</time>
      </trkpt>
      <trkpt lat="43.14881" lon="5.71599">
        <ele>42.435425</ele>
        <time>2014-05-09T12:24:25Z</time>
      </trkpt>
      <trkpt lat="43.14877" lon="5.7159">
        <ele>39.55127</ele>
        <time>2014-05-09T12:24:33Z</time>
      </trkpt>
      <trkpt lat="43.14874" lon="5.71582">
        <ele>40.512817</ele>
        <time>2014-05-09T12:24:41Z</time>
      </trkpt>
      <trkpt lat="43.14871" lon="5.71574">
        <ele>38.590088</ele>
        <time>2014-05-09T12:24:48Z</time>
      </trkpt>
      <trkpt lat="43.14868" lon="5.71566">
        <ele>37.628662</ele>
        <time>2014-05-09T12:24:55Z</time>
      </trkpt>
      <trkpt lat="43.14865" lon="5.71556">
        <ele>38.590088</ele>
        <time>2014-05-09T12:25:03Z</time>
      </trkpt>
      <trkpt lat="43.14862" lon="5.71548">
        <ele>37.148071</ele>
        <time>2014-05-09T12:25:11Z</time>
      </trkpt>
      <trkpt lat="43.14861" lon="5.71541">
        <ele>39.070679</ele>
        <time>2014-05-09T12:25:18Z</time>
      </trkpt>
      <trkpt lat="43.14856" lon="5.71537">
        <ele>34.744873</ele>
        <time>2014-05-09T12:25:24Z</time>
      </trkpt>
      <trkpt lat="43.1485" lon="5.71536">
        <ele>33.783447</ele>
        <time>2014-05-09T12:25:33Z</time>
      </trkpt>
      <trkpt lat="43.1485" lon="5.7153">
        <ele>36.186768</ele>
        <time>2014-05-09T12:25:39Z</time>
      </trkpt>
      <trkpt lat="43.14851" lon="5.7153">
        <ele>40.512817</ele>
        <time>2014-05-09T12:25:46Z</time>
      </trkpt>
      <trkpt lat="43.14852" lon="5.71525">
        <ele>43.396606</ele>
        <time>2014-05-09T12:25:53Z</time>
      </trkpt>
      <trkpt lat="43.1485" lon="5.71517">
        <ele>45.319214</ele>
        <time>2014-05-09T12:26:00Z</time>
      </trkpt>
      <trkpt lat="43.14842" lon="5.71507">
        <ele>40.032104</ele>
        <time>2014-05-09T12:26:08Z</time>
      </trkpt>
      <trkpt lat="43.1484" lon="5.715">
        <ele>43.877319</ele>
        <time>2014-05-09T12:26:14Z</time>
      </trkpt>
      <trkpt lat="43.14834" lon="5.71496">
        <ele>43.396606</ele>
        <time>2014-05-09T12:26:20Z</time>
      </trkpt>
      <trkpt lat="43.14823" lon="5.7149">
        <ele>38.109375</ele>
        <time>2014-05-09T12:26:28Z</time>
      </trkpt>
      <trkpt lat="43.14815" lon="5.71484">
        <ele>36.186768</ele>
        <time>2014-05-09T12:26:35Z</time>
      </trkpt>
      <trkpt lat="43.14807" lon="5.71475">
        <ele>35.706055</ele>
        <time>2014-05-09T12:26:45Z</time>
      </trkpt>
      <trkpt lat="43.14803" lon="5.71468">
        <ele>34.744873</ele>
        <time>2014-05-09T12:26:52Z</time>
      </trkpt>
      <trkpt lat="43.148" lon="5.7146">
        <ele>33.783447</ele>
        <time>2014-05-09T12:27:00Z</time>
      </trkpt>
      <trkpt lat="43.14798" lon="5.71456">
        <ele>30.899536</ele>
        <time>2014-05-09T12:27:05Z</time>
      </trkpt>
      <trkpt lat="43.14796" lon="5.7145">
        <ele>32.341553</ele>
        <time>2014-05-09T12:27:10Z</time>
      </trkpt>
      <trkpt lat="43.14793" lon="5.71441">
        <ele>37.628662</ele>
        <time>2014-05-09T12:27:18Z</time>
      </trkpt>
      <trkpt lat="43.1479" lon="5.71435">
        <ele>40.993408</ele>
        <time>2014-05-09T12:27:24Z</time>
      </trkpt>
      <trkpt lat="43.14788" lon="5.71428">
        <ele>46.76123</ele>
        <time>2014-05-09T12:27:31Z</time>
      </trkpt>
      <trkpt lat="43.14781" lon="5.71421">
        <ele>43.877319</ele>
        <time>2014-05-09T12:27:39Z</time>
      </trkpt>
      <trkpt lat="43.14779" lon="5.71417">
        <ele>48.203369</ele>
        <time>2014-05-09T12:27:45Z</time>
      </trkpt>
      <trkpt lat="43.14775" lon="5.71409">
        <ele>48.203369</ele>
        <time>2014-05-09T12:27:52Z</time>
      </trkpt>
      <trkpt lat="43.14765" lon="5.71403">
        <ele>41.954712</ele>
        <time>2014-05-09T12:28:00Z</time>
      </trkpt>
      <trkpt lat="43.14759" lon="5.71395">
        <ele>40.512817</ele>
        <time>2014-05-09T12:28:08Z</time>
      </trkpt>
      <trkpt lat="43.14758" lon="5.71388">
        <ele>45.799927</ele>
        <time>2014-05-09T12:28:15Z</time>
      </trkpt>
      <trkpt lat="43.14751" lon="5.71383">
        <ele>45.799927</ele>
        <time>2014-05-09T12:28:22Z</time>
      </trkpt>
      <trkpt lat="43.14747" lon="5.71378">
        <ele>44.838623</ele>
        <time>2014-05-09T12:28:27Z</time>
      </trkpt>
      <trkpt lat="43.14741" lon="5.71373">
        <ele>44.838623</ele>
        <time>2014-05-09T12:28:33Z</time>
      </trkpt>
      <trkpt lat="43.14739" lon="5.71367">
        <ele>44.358032</ele>
        <time>2014-05-09T12:28:38Z</time>
      </trkpt>
      <trkpt lat="43.1473" lon="5.71358">
        <ele>37.148071</ele>
        <time>2014-05-09T12:28:45Z</time>
      </trkpt>
      <trkpt lat="43.1472" lon="5.71351">
        <ele>28.496216</ele>
        <time>2014-05-09T12:28:53Z</time>
      </trkpt>
      <trkpt lat="43.14714" lon="5.71345">
        <ele>30.418823</ele>
        <time>2014-05-09T12:28:59Z</time>
      </trkpt>
      <trkpt lat="43.14708" lon="5.71338">
        <ele>36.186768</ele>
        <time>2014-05-09T12:29:08Z</time>
      </trkpt>
      <trkpt lat="43.14701" lon="5.71329">
        <ele>32.822266</ele>
        <time>2014-05-09T12:29:16Z</time>
      </trkpt>
      <trkpt lat="43.14697" lon="5.71323">
        <ele>31.860718</ele>
        <time>2014-05-09T12:29:22Z</time>
      </trkpt>
      <trkpt lat="43.14693" lon="5.71319">
        <ele>33.783447</ele>
        <time>2014-05-09T12:29:27Z</time>
      </trkpt>
      <trkpt lat="43.14688" lon="5.71311">
        <ele>34.26416</ele>
        <time>2014-05-09T12:29:34Z</time>
      </trkpt>
      <trkpt lat="43.14682" lon="5.71301">
        <ele>34.744873</ele>
        <time>2014-05-09T12:29:43Z</time>
      </trkpt>
      <trkpt lat="43.14682" lon="5.71297">
        <ele>34.744873</ele>
        <time>2014-05-09T12:29:46Z</time>
      </trkpt>
      <trkpt lat="43.14676" lon="5.7129">
        <ele>34.744873</ele>
        <time>2014-05-09T12:29:54Z</time>
      </trkpt>
      <trkpt lat="43.14673" lon="5.71281">
        <ele>33.302856</ele>
        <time>2014-05-09T12:30:01Z</time>
      </trkpt>
      <trkpt lat="43.14667" lon="5.71271">
        <ele>29.45752</ele>
        <time>2014-05-09T12:30:09Z</time>
      </trkpt>
      <trkpt lat="43.14661" lon="5.7126">
        <ele>29.45752</ele>
        <time>2014-05-09T12:30:17Z</time>
      </trkpt>
      <trkpt lat="43.14656" lon="5.71251">
        <ele>31.380127</ele>
        <time>2014-05-09T12:30:25Z</time>
      </trkpt>
      <trkpt lat="43.14651" lon="5.71245">
        <ele>31.380127</ele>
        <time>2014-05-09T12:30:32Z</time>
      </trkpt>
      <trkpt lat="43.14647" lon="5.71238">
        <ele>31.860718</ele>
        <time>2014-05-09T12:30:40Z</time>
      </trkpt>
      <trkpt lat="43.14643" lon="5.7123">
        <ele>33.783447</ele>
        <time>2014-05-09T12:30:48Z</time>
      </trkpt>
      <trkpt lat="43.14642" lon="5.71224">
        <ele>35.225464</ele>
        <time>2014-05-09T12:30:53Z</time>
      </trkpt>
      <trkpt lat="43.14637" lon="5.7122">
        <ele>31.380127</ele>
        <time>2014-05-09T12:30:58Z</time>
      </trkpt>
      <trkpt lat="43.14634" lon="5.71214">
        <ele>28.496216</ele>
        <time>2014-05-09T12:31:05Z</time>
      </trkpt>
      <trkpt lat="43.1463" lon="5.71207">
        <ele>28.015503</ele>
        <time>2014-05-09T12:31:11Z</time>
      </trkpt>
      <trkpt lat="43.14626" lon="5.71205">
        <ele>26.092896</ele>
        <time>2014-05-09T12:31:17Z</time>
      </trkpt>
      <trkpt lat="43.1462" lon="5.71201">
        <ele>28.015503</ele>
        <time>2014-05-09T12:31:23Z</time>
      </trkpt>
      <trkpt lat="43.14614" lon="5.71196">
        <ele>26.092896</ele>
        <time>2014-05-09T12:31:29Z</time>
      </trkpt>
      <trkpt lat="43.14608" lon="5.71191">
        <ele>20.324951</ele>
        <time>2014-05-09T12:31:35Z</time>
      </trkpt>
      <trkpt lat="43.14604" lon="5.71187">
        <ele>15.03772</ele>
        <time>2014-05-09T12:31:43Z</time>
      </trkpt>
      <trkpt lat="43.14602" lon="5.71184">
        <ele>15.03772</ele>
        <time>2014-05-09T12:31:48Z</time>
      </trkpt>
      <trkpt lat="43.14599" lon="5.71181">
        <ele>15.518433</ele>
        <time>2014-05-09T12:31:52Z</time>
      </trkpt>
      <trkpt lat="43.14592" lon="5.71177">
        <ele>11.192505</ele>
        <time>2014-05-09T12:31:58Z</time>
      </trkpt>
      <trkpt lat="43.14589" lon="5.71174">
        <ele>13.595825</ele>
        <time>2014-05-09T12:32:03Z</time>
      </trkpt>
      <trkpt lat="43.14584" lon="5.71169">
        <ele>14.557007</ele>
        <time>2014-05-09T12:32:10Z</time>
      </trkpt>
      <trkpt lat="43.14577" lon="5.71164">
        <ele>13.115112</ele>
        <time>2014-05-09T12:32:17Z</time>
      </trkpt>
      <trkpt lat="43.14572" lon="5.71164">
        <ele>12.634399</ele>
        <time>2014-05-09T12:32:24Z</time>
      </trkpt>
      <trkpt lat="43.14566" lon="5.71162">
        <ele>13.595825</ele>
        <time>2014-05-09T12:32:34Z</time>
      </trkpt>
      <trkpt lat="43.14559" lon="5.7116">
        <ele>9.269897</ele>
        <time>2014-05-09T12:32:41Z</time>
      </trkpt>
      <trkpt lat="43.14555" lon="5.7116">
        <ele>9.269897</ele>
        <time>2014-05-09T12:32:46Z</time>
      </trkpt>
      <trkpt lat="43.14548" lon="5.71159">
        <ele>6.385864</ele>
        <time>2014-05-09T12:32:52Z</time>
      </trkpt>
      <trkpt lat="43.14537" lon="5.71163">
        <ele>4.943848</ele>
        <time>2014-05-09T12:33:00Z</time>
      </trkpt>
      <trkpt lat="43.14531" lon="5.71165">
        <ele>8.789185</ele>
        <time>2014-05-09T12:33:07Z</time>
      </trkpt>
      <trkpt lat="43.14529" lon="5.71164">
        <ele>12.153809</ele>
        <time>2014-05-09T12:33:14Z</time>
      </trkpt>
      <trkpt lat="43.14524" lon="5.71161">
        <ele>11.673218</ele>
        <time>2014-05-09T12:33:21Z</time>
      </trkpt>
      <trkpt lat="43.1452" lon="5.71162">
        <ele>11.192505</ele>
        <time>2014-05-09T12:33:28Z</time>
      </trkpt>
      <trkpt lat="43.14517" lon="5.71163">
        <ele>11.192505</ele>
        <time>2014-05-09T12:33:32Z</time>
      </trkpt>
      <trkpt lat="43.14517" lon="5.71164">
        <ele>8.308594</ele>
        <time>2014-05-09T12:33:43Z</time>
      </trkpt>
      <trkpt lat="43.14518" lon="5.71166">
        <ele>15.03772</ele>
        <time>2014-05-09T12:33:51Z</time>
      </trkpt>
      <trkpt lat="43.14515" lon="5.71168">
        <ele>24.170288</ele>
        <time>2014-05-09T12:34:11Z</time>
      </trkpt>
      <trkpt lat="43.14516" lon="5.71169">
        <ele>24.651001</ele>
        <time>2014-05-09T12:34:20Z</time>
      </trkpt>
      <trkpt lat="43.14518" lon="5.71169">
        <ele>23.208984</ele>
        <time>2014-05-09T12:34:29Z</time>
      </trkpt>
      <trkpt lat="43.14521" lon="5.71168">
        <ele>22.247559</ele>
        <time>2014-05-09T12:34:37Z</time>
      </trkpt>
      <trkpt lat="43.14524" lon="5.71168">
        <ele>22.728271</ele>
        <time>2014-05-09T12:34:41Z</time>
      </trkpt>
      <trkpt lat="43.1453" lon="5.71169">
        <ele>22.728271</ele>
        <time>2014-05-09T12:34:48Z</time>
      </trkpt>
      <trkpt lat="43.14536" lon="5.7117">
        <ele>23.689575</ele>
        <time>2014-05-09T12:34:55Z</time>
      </trkpt>
      <trkpt lat="43.1454" lon="5.71169">
        <ele>22.728271</ele>
        <time>2014-05-09T12:35:02Z</time>
      </trkpt>
      <trkpt lat="43.14545" lon="5.71165">
        <ele>25.131714</ele>
        <time>2014-05-09T12:35:09Z</time>
      </trkpt>
      <trkpt lat="43.14549" lon="5.71161">
        <ele>28.496216</ele>
        <time>2014-05-09T12:35:15Z</time>
      </trkpt>
      <trkpt lat="43.14552" lon="5.71155">
        <ele>33.302856</ele>
        <time>2014-05-09T12:35:21Z</time>
      </trkpt>
      <trkpt lat="43.14554" lon="5.71149">
        <ele>33.783447</ele>
        <time>2014-05-09T12:35:26Z</time>
      </trkpt>
      <trkpt lat="43.14555" lon="5.71144">
        <ele>33.783447</ele>
        <time>2014-05-09T12:35:30Z</time>
      </trkpt>
      <trkpt lat="43.14557" lon="5.71137">
        <ele>33.783447</ele>
        <time>2014-05-09T12:35:35Z</time>
      </trkpt>
      <trkpt lat="43.14558" lon="5.71126">
        <ele>32.822266</ele>
        <time>2014-05-09T12:35:43Z</time>
      </trkpt>
      <trkpt lat="43.14559" lon="5.71118">
        <ele>29.93811</ele>
        <time>2014-05-09T12:35:49Z</time>
      </trkpt>
      <trkpt lat="43.14558" lon="5.71115">
        <ele>28.976929</ele>
        <time>2014-05-09T12:35:51Z</time>
      </trkpt>
      <trkpt lat="43.14558" lon="5.71105">
        <ele>25.612305</ele>
        <time>2014-05-09T12:35:58Z</time>
      </trkpt>
      <trkpt lat="43.14556" lon="5.71096">
        <ele>25.612305</ele>
        <time>2014-05-09T12:36:05Z</time>
      </trkpt>
      <trkpt lat="43.14554" lon="5.71088">
        <ele>28.015503</ele>
        <time>2014-05-09T12:36:15Z</time>
      </trkpt>
      <trkpt lat="43.14555" lon="5.7108">
        <ele>23.689575</ele>
        <time>2014-05-09T12:36:23Z</time>
      </trkpt>
      <trkpt lat="43.14558" lon="5.71074">
        <ele>22.728271</ele>
        <time>2014-05-09T12:36:30Z</time>
      </trkpt>
      <trkpt lat="43.1456" lon="5.71067">
        <ele>23.208984</ele>
        <time>2014-05-09T12:36:39Z</time>
      </trkpt>
      <trkpt lat="43.14563" lon="5.71064">
        <ele>23.689575</ele>
        <time>2014-05-09T12:36:44Z</time>
      </trkpt>
      <trkpt lat="43.14567" lon="5.71058">
        <ele>23.689575</ele>
        <time>2014-05-09T12:36:51Z</time>
      </trkpt>
      <trkpt lat="43.14571" lon="5.71054">
        <ele>21.286377</ele>
        <time>2014-05-09T12:36:56Z</time>
      </trkpt>
      <trkpt lat="43.14578" lon="5.7105">
        <ele>20.324951</ele>
        <time>2014-05-09T12:37:02Z</time>
      </trkpt>
      <trkpt lat="43.14582" lon="5.71047">
        <ele>21.766968</ele>
        <time>2014-05-09T12:37:08Z</time>
      </trkpt>
      <trkpt lat="43.14585" lon="5.71044">
        <ele>20.324951</ele>
        <time>2014-05-09T12:37:14Z</time>
      </trkpt>
      <trkpt lat="43.14591" lon="5.71044">
        <ele>22.247559</ele>
        <time>2014-05-09T12:37:20Z</time>
      </trkpt>
      <trkpt lat="43.14596" lon="5.71044">
        <ele>24.170288</ele>
        <time>2014-05-09T12:37:26Z</time>
      </trkpt>
      <trkpt lat="43.14605" lon="5.71051">
        <ele>17.441162</ele>
        <time>2014-05-09T12:37:44Z</time>
      </trkpt>
      <trkpt lat="43.14606" lon="5.71046">
        <ele>14.557007</ele>
        <time>2014-05-09T12:38:00Z</time>
      </trkpt>
      <trkpt lat="43.14607" lon="5.71046">
        <ele>14.557007</ele>
        <time>2014-05-09T12:38:08Z</time>
      </trkpt>
      <trkpt lat="43.14607" lon="5.71043">
        <ele>13.115112</ele>
        <time>2014-05-09T12:38:12Z</time>
      </trkpt>
      <trkpt lat="43.14612" lon="5.71042">
        <ele>13.115112</ele>
        <time>2014-05-09T12:38:19Z</time>
      </trkpt>
      <trkpt lat="43.14618" lon="5.71041">
        <ele>9.75061</ele>
        <time>2014-05-09T12:38:26Z</time>
      </trkpt>
      <trkpt lat="43.14623" lon="5.71038">
        <ele>14.557007</ele>
        <time>2014-05-09T12:38:32Z</time>
      </trkpt>
      <trkpt lat="43.14629" lon="5.71037">
        <ele>18.883057</ele>
        <time>2014-05-09T12:38:40Z</time>
      </trkpt>
      <trkpt lat="43.14631" lon="5.71036">
        <ele>10.231201</ele>
        <time>2014-05-09T12:38:46Z</time>
      </trkpt>
      <trkpt lat="43.14635" lon="5.71033">
        <ele>11.673218</ele>
        <time>2014-05-09T12:38:52Z</time>
      </trkpt>
      <trkpt lat="43.14639" lon="5.71032">
        <ele>11.673218</ele>
        <time>2014-05-09T12:38:59Z</time>
      </trkpt>
      <trkpt lat="43.14647" lon="5.7103">
        <ele>14.557007</ele>
        <time>2014-05-09T12:39:07Z</time>
      </trkpt>
      <trkpt lat="43.14652" lon="5.71032">
        <ele>14.557007</ele>
        <time>2014-05-09T12:39:12Z</time>
      </trkpt>
      <trkpt lat="43.14656" lon="5.71029">
        <ele>15.518433</ele>
        <time>2014-05-09T12:39:18Z</time>
      </trkpt>
      <trkpt lat="43.1466" lon="5.71028">
        <ele>17.441162</ele>
        <time>2014-05-09T12:39:23Z</time>
      </trkpt>
      <trkpt lat="43.14667" lon="5.71025">
        <ele>18.883057</ele>
        <time>2014-05-09T12:39:30Z</time>
      </trkpt>
      <trkpt lat="43.14669" lon="5.71023">
        <ele>16.960449</ele>
        <time>2014-05-09T12:39:36Z</time>
      </trkpt>
      <trkpt lat="43.14678" lon="5.71021">
        <ele>13.595825</ele>
        <time>2014-05-09T12:39:46Z</time>
      </trkpt>
      <trkpt lat="43.14683" lon="5.71019">
        <ele>16.479736</ele>
        <time>2014-05-09T12:39:53Z</time>
      </trkpt>
      <trkpt lat="43.14686" lon="5.71019">
        <ele>15.518433</ele>
        <time>2014-05-09T12:39:56Z</time>
      </trkpt>
      <trkpt lat="43.14694" lon="5.71021">
        <ele>13.595825</ele>
        <time>2014-05-09T12:40:03Z</time>
      </trkpt>
      <trkpt lat="43.14698" lon="5.71022">
        <ele>10.231201</ele>
        <time>2014-05-09T12:40:10Z</time>
      </trkpt>
      <trkpt lat="43.14703" lon="5.71024">
        <ele>9.75061</ele>
        <time>2014-05-09T12:40:18Z</time>
      </trkpt>
      <trkpt lat="43.14712" lon="5.71027">
        <ele>9.75061</ele>
        <time>2014-05-09T12:40:30Z</time>
      </trkpt>
      <trkpt lat="43.14714" lon="5.71026">
        <ele>10.231201</ele>
        <time>2014-05-09T12:40:32Z</time>
      </trkpt>
      <trkpt lat="43.14761" lon="5.7096">
        <ele>9.75061</ele>
        <time>2014-05-09T13:40:25Z</time>
      </trkpt>
      <trkpt lat="43.14761" lon="5.70961">
        <ele>10.711792</ele>
        <time>2014-05-09T13:40:26Z</time>
      </trkpt>
      <trkpt lat="43.14761" lon="5.70963">
        <ele>12.153809</ele>
        <time>2014-05-09T13:40:32Z</time>
      </trkpt>
      <trkpt lat="43.14761" lon="5.70965">
        <ele>9.269897</ele>
        <time>2014-05-09T13:40:37Z</time>
      </trkpt>
      <trkpt lat="43.14761" lon="5.70967">
        <ele>8.308594</ele>
        <time>2014-05-09T13:40:41Z</time>
      </trkpt>
      <trkpt lat="43.1476" lon="5.70971">
        <ele>4.943848</ele>
        <time>2014-05-09T13:40:48Z</time>
      </trkpt>
      <trkpt lat="43.14758" lon="5.70972">
        <ele>3.501953</ele>
        <time>2014-05-09T13:40:56Z</time>
      </trkpt>
      <trkpt lat="43.14757" lon="5.70973">
        <ele>-0.824097</ele>
        <time>2014-05-09T13:41:04Z</time>
      </trkpt>
      <trkpt lat="43.14749" lon="5.70982">
        <ele>3.501953</ele>
        <time>2014-05-09T13:42:41Z</time>
      </trkpt>
      <trkpt lat="43.1475" lon="5.70982">
        <ele>2.540649</ele>
        <time>2014-05-09T13:42:42Z</time>
      </trkpt>
      <trkpt lat="43.14752" lon="5.70981">
        <ele>3.982666</ele>
        <time>2014-05-09T13:42:45Z</time>
      </trkpt>
      <trkpt lat="43.14752" lon="5.70982">
        <ele>4.463257</ele>
        <time>2014-05-09T13:42:46Z</time>
      </trkpt>
      <trkpt lat="43.14751" lon="5.70986">
        <ele>4.463257</ele>
        <time>2014-05-09T13:42:50Z</time>
      </trkpt>
      <trkpt lat="43.14746" lon="5.70997">
        <ele>5.424561</ele>
        <time>2014-05-09T13:43:01Z</time>
      </trkpt>
      <trkpt lat="43.1474" lon="5.71002">
        <ele>7.827881</ele>
        <time>2014-05-09T13:43:11Z</time>
      </trkpt>
      <trkpt lat="43.14737" lon="5.71005">
        <ele>8.308594</ele>
        <time>2014-05-09T13:43:18Z</time>
      </trkpt>
      <trkpt lat="43.14736" lon="5.71009">
        <ele>7.827881</ele>
        <time>2014-05-09T13:43:23Z</time>
      </trkpt>
      <trkpt lat="43.14735" lon="5.7101">
        <ele>9.75061</ele>
        <time>2014-05-09T13:43:32Z</time>
      </trkpt>
      <trkpt lat="43.14732" lon="5.7101">
        <ele>10.711792</ele>
        <time>2014-05-09T13:43:38Z</time>
      </trkpt>
      <trkpt lat="43.14728" lon="5.71007">
        <ele>16.479736</ele>
        <time>2014-05-09T13:43:47Z</time>
      </trkpt>
      <trkpt lat="43.14726" lon="5.71007">
        <ele>16.960449</ele>
        <time>2014-05-09T13:43:53Z</time>
      </trkpt>
      <trkpt lat="43.14723" lon="5.71008">
        <ele>17.441162</ele>
        <time>2014-05-09T13:43:59Z</time>
      </trkpt>
      <trkpt lat="43.14718" lon="5.71012">
        <ele>16.960449</ele>
        <time>2014-05-09T13:44:05Z</time>
      </trkpt>
      <trkpt lat="43.14712" lon="5.71015">
        <ele>14.557007</ele>
        <time>2014-05-09T13:44:11Z</time>
      </trkpt>
      <trkpt lat="43.14708" lon="5.71017">
        <ele>12.153809</ele>
        <time>2014-05-09T13:44:16Z</time>
      </trkpt>
      <trkpt lat="43.14707" lon="5.71018">
        <ele>11.673218</ele>
        <time>2014-05-09T13:44:17Z</time>
      </trkpt>
      <trkpt lat="43.14702" lon="5.71019">
        <ele>10.711792</ele>
        <time>2014-05-09T13:44:23Z</time>
      </trkpt>
      <trkpt lat="43.14697" lon="5.71016">
        <ele>11.673218</ele>
        <time>2014-05-09T13:44:32Z</time>
      </trkpt>
      <trkpt lat="43.14693" lon="5.71019">
        <ele>9.75061</ele>
        <time>2014-05-09T13:44:39Z</time>
      </trkpt>
      <trkpt lat="43.14689" lon="5.71022">
        <ele>8.789185</ele>
        <time>2014-05-09T13:44:46Z</time>
      </trkpt>
      <trkpt lat="43.14684" lon="5.71022">
        <ele>9.75061</ele>
        <time>2014-05-09T13:44:53Z</time>
      </trkpt>
      <trkpt lat="43.14679" lon="5.71022">
        <ele>9.269897</ele>
        <time>2014-05-09T13:45:00Z</time>
      </trkpt>
      <trkpt lat="43.14677" lon="5.71024">
        <ele>7.827881</ele>
        <time>2014-05-09T13:45:06Z</time>
      </trkpt>
      <trkpt lat="43.14671" lon="5.71028">
        <ele>7.347168</ele>
        <time>2014-05-09T13:45:14Z</time>
      </trkpt>
      <trkpt lat="43.14667" lon="5.71031">
        <ele>6.866455</ele>
        <time>2014-05-09T13:45:22Z</time>
      </trkpt>
      <trkpt lat="43.14665" lon="5.7103">
        <ele>7.347168</ele>
        <time>2014-05-09T13:45:28Z</time>
      </trkpt>
      <trkpt lat="43.14662" lon="5.71029">
        <ele>7.347168</ele>
        <time>2014-05-09T13:45:34Z</time>
      </trkpt>
      <trkpt lat="43.14656" lon="5.71029">
        <ele>8.308594</ele>
        <time>2014-05-09T13:45:42Z</time>
      </trkpt>
      <trkpt lat="43.14647" lon="5.71033">
        <ele>5.905273</ele>
        <time>2014-05-09T13:45:50Z</time>
      </trkpt>
      <trkpt lat="43.14639" lon="5.71033">
        <ele>8.789185</ele>
        <time>2014-05-09T13:45:58Z</time>
      </trkpt>
      <trkpt lat="43.1463" lon="5.71033">
        <ele>11.192505</ele>
        <time>2014-05-09T13:46:07Z</time>
      </trkpt>
      <trkpt lat="43.14624" lon="5.71032">
        <ele>14.076416</ele>
        <time>2014-05-09T13:46:15Z</time>
      </trkpt>
      <trkpt lat="43.14619" lon="5.71032">
        <ele>15.518433</ele>
        <time>2014-05-09T13:46:22Z</time>
      </trkpt>
      <trkpt lat="43.14614" lon="5.71033">
        <ele>16.960449</ele>
        <time>2014-05-09T13:46:28Z</time>
      </trkpt>
      <trkpt lat="43.14613" lon="5.71033">
        <ele>16.960449</ele>
        <time>2014-05-09T13:46:29Z</time>
      </trkpt>
      <trkpt lat="43.14608" lon="5.71035">
        <ele>18.883057</ele>
        <time>2014-05-09T13:46:35Z</time>
      </trkpt>
      <trkpt lat="43.14603" lon="5.71037">
        <ele>20.324951</ele>
        <time>2014-05-09T13:46:42Z</time>
      </trkpt>
      <trkpt lat="43.14598" lon="5.7104">
        <ele>18.883057</ele>
        <time>2014-05-09T13:46:48Z</time>
      </trkpt>
      <trkpt lat="43.14593" lon="5.71042">
        <ele>19.84436</ele>
        <time>2014-05-09T13:46:54Z</time>
      </trkpt>
      <trkpt lat="43.14589" lon="5.71043">
        <ele>19.84436</ele>
        <time>2014-05-09T13:46:59Z</time>
      </trkpt>
      <trkpt lat="43.14585" lon="5.71046">
        <ele>19.84436</ele>
        <time>2014-05-09T13:47:06Z</time>
      </trkpt>
      <trkpt lat="43.1458" lon="5.7105">
        <ele>19.36377</ele>
        <time>2014-05-09T13:47:13Z</time>
      </trkpt>
      <trkpt lat="43.14575" lon="5.71051">
        <ele>18.883057</ele>
        <time>2014-05-09T13:47:26Z</time>
      </trkpt>
      <trkpt lat="43.14575" lon="5.71053">
        <ele>18.883057</ele>
        <time>2014-05-09T13:47:36Z</time>
      </trkpt>
      <trkpt lat="43.14575" lon="5.71054">
        <ele>19.36377</ele>
        <time>2014-05-09T13:47:46Z</time>
      </trkpt>
      <trkpt lat="43.14575" lon="5.71055">
        <ele>23.208984</ele>
        <time>2014-05-09T13:48:04Z</time>
      </trkpt>
      <trkpt lat="43.1457" lon="5.71059">
        <ele>26.573608</ele>
        <time>2014-05-09T13:48:11Z</time>
      </trkpt>
      <trkpt lat="43.14564" lon="5.71062">
        <ele>29.93811</ele>
        <time>2014-05-09T13:48:17Z</time>
      </trkpt>
      <trkpt lat="43.14555" lon="5.71077">
        <ele>29.45752</ele>
        <time>2014-05-09T13:48:24Z</time>
      </trkpt>
      <trkpt lat="43.14552" lon="5.71092">
        <ele>28.015503</ele>
        <time>2014-05-09T13:48:31Z</time>
      </trkpt>
      <trkpt lat="43.14553" lon="5.71105">
        <ele>28.496216</ele>
        <time>2014-05-09T13:48:37Z</time>
      </trkpt>
      <trkpt lat="43.14553" lon="5.71119">
        <ele>28.976929</ele>
        <time>2014-05-09T13:48:44Z</time>
      </trkpt>
      <trkpt lat="43.14554" lon="5.71132">
        <ele>28.976929</ele>
        <time>2014-05-09T13:48:52Z</time>
      </trkpt>
      <trkpt lat="43.14555" lon="5.71143">
        <ele>27.054321</ele>
        <time>2014-05-09T13:48:59Z</time>
      </trkpt>
      <trkpt lat="43.14554" lon="5.71152">
        <ele>25.131714</ele>
        <time>2014-05-09T13:49:06Z</time>
      </trkpt>
      <trkpt lat="43.14552" lon="5.71158">
        <ele>27.534912</ele>
        <time>2014-05-09T13:49:14Z</time>
      </trkpt>
      <trkpt lat="43.14553" lon="5.7116">
        <ele>28.976929</ele>
        <time>2014-05-09T13:49:20Z</time>
      </trkpt>
      <trkpt lat="43.14558" lon="5.71163">
        <ele>28.976929</ele>
        <time>2014-05-09T13:49:28Z</time>
      </trkpt>
      <trkpt lat="43.14562" lon="5.71163">
        <ele>32.822266</ele>
        <time>2014-05-09T13:49:36Z</time>
      </trkpt>
      <trkpt lat="43.14565" lon="5.71165">
        <ele>33.783447</ele>
        <time>2014-05-09T13:49:44Z</time>
      </trkpt>
      <trkpt lat="43.1457" lon="5.71168">
        <ele>34.744873</ele>
        <time>2014-05-09T13:49:51Z</time>
      </trkpt>
      <trkpt lat="43.14574" lon="5.7117">
        <ele>34.744873</ele>
        <time>2014-05-09T13:49:58Z</time>
      </trkpt>
      <trkpt lat="43.14578" lon="5.71173">
        <ele>34.26416</ele>
        <time>2014-05-09T13:50:04Z</time>
      </trkpt>
      <trkpt lat="43.14582" lon="5.71176">
        <ele>35.706055</ele>
        <time>2014-05-09T13:50:11Z</time>
      </trkpt>
      <trkpt lat="43.14589" lon="5.71183">
        <ele>36.66748</ele>
        <time>2014-05-09T13:50:21Z</time>
      </trkpt>
      <trkpt lat="43.14593" lon="5.71187">
        <ele>38.590088</ele>
        <time>2014-05-09T13:50:29Z</time>
      </trkpt>
      <trkpt lat="43.14597" lon="5.71189">
        <ele>41.954712</ele>
        <time>2014-05-09T13:50:36Z</time>
      </trkpt>
      <trkpt lat="43.14601" lon="5.71193">
        <ele>40.993408</ele>
        <time>2014-05-09T13:50:42Z</time>
      </trkpt>
      <trkpt lat="43.14607" lon="5.71198">
        <ele>37.148071</ele>
        <time>2014-05-09T13:50:50Z</time>
      </trkpt>
      <trkpt lat="43.14612" lon="5.71202">
        <ele>38.109375</ele>
        <time>2014-05-09T13:50:57Z</time>
      </trkpt>
      <trkpt lat="43.14617" lon="5.7121">
        <ele>46.28064</ele>
        <time>2014-05-09T13:51:06Z</time>
      </trkpt>
      <trkpt lat="43.14622" lon="5.71215">
        <ele>46.28064</ele>
        <time>2014-05-09T13:51:12Z</time>
      </trkpt>
      <trkpt lat="43.14627" lon="5.71222">
        <ele>46.28064</ele>
        <time>2014-05-09T13:51:20Z</time>
      </trkpt>
      <trkpt lat="43.14635" lon="5.71229">
        <ele>42.916016</ele>
        <time>2014-05-09T13:51:30Z</time>
      </trkpt>
      <trkpt lat="43.14641" lon="5.7124">
        <ele>42.916016</ele>
        <time>2014-05-09T13:51:38Z</time>
      </trkpt>
      <trkpt lat="43.14645" lon="5.71246">
        <ele>42.435425</ele>
        <time>2014-05-09T13:51:44Z</time>
      </trkpt>
      <trkpt lat="43.1465" lon="5.71253">
        <ele>42.916016</ele>
        <time>2014-05-09T13:51:52Z</time>
      </trkpt>
      <trkpt lat="43.14653" lon="5.71261">
        <ele>43.396606</ele>
        <time>2014-05-09T13:52:00Z</time>
      </trkpt>
      <trkpt lat="43.14657" lon="5.71268">
        <ele>43.877319</ele>
        <time>2014-05-09T13:52:07Z</time>
      </trkpt>
      <trkpt lat="43.1466" lon="5.71276">
        <ele>47.241821</ele>
        <time>2014-05-09T13:52:17Z</time>
      </trkpt>
      <trkpt lat="43.14665" lon="5.71286">
        <ele>48.68396</ele>
        <time>2014-05-09T13:52:26Z</time>
      </trkpt>
      <trkpt lat="43.14669" lon="5.71292">
        <ele>48.203369</ele>
        <time>2014-05-09T13:52:33Z</time>
      </trkpt>
      <trkpt lat="43.14672" lon="5.71297">
        <ele>49.645264</ele>
        <time>2014-05-09T13:52:39Z</time>
      </trkpt>
      <trkpt lat="43.14678" lon="5.71307">
        <ele>51.567871</ele>
        <time>2014-05-09T13:52:49Z</time>
      </trkpt>
      <trkpt lat="43.14684" lon="5.71316">
        <ele>46.28064</ele>
        <time>2014-05-09T13:52:57Z</time>
      </trkpt>
      <trkpt lat="43.1469" lon="5.71323">
        <ele>48.203369</ele>
        <time>2014-05-09T13:53:05Z</time>
      </trkpt>
      <trkpt lat="43.14695" lon="5.7133">
        <ele>48.203369</ele>
        <time>2014-05-09T13:53:12Z</time>
      </trkpt>
      <trkpt lat="43.147" lon="5.71337">
        <ele>50.606567</ele>
        <time>2014-05-09T13:53:19Z</time>
      </trkpt>
      <trkpt lat="43.14706" lon="5.71344">
        <ele>51.567871</ele>
        <time>2014-05-09T13:53:27Z</time>
      </trkpt>
      <trkpt lat="43.1471" lon="5.7135">
        <ele>49.164551</ele>
        <time>2014-05-09T13:53:32Z</time>
      </trkpt>
      <trkpt lat="43.14712" lon="5.71352">
        <ele>51.567871</ele>
        <time>2014-05-09T13:53:36Z</time>
      </trkpt>
      <trkpt lat="43.14721" lon="5.71362">
        <ele>53.009766</ele>
        <time>2014-05-09T13:53:45Z</time>
      </trkpt>
      <trkpt lat="43.14725" lon="5.71364">
        <ele>54.932373</ele>
        <time>2014-05-09T13:53:51Z</time>
      </trkpt>
      <trkpt lat="43.14731" lon="5.71371">
        <ele>53.490479</ele>
        <time>2014-05-09T13:53:58Z</time>
      </trkpt>
      <trkpt lat="43.14736" lon="5.71376">
        <ele>52.529175</ele>
        <time>2014-05-09T13:54:05Z</time>
      </trkpt>
      <trkpt lat="43.14743" lon="5.71385">
        <ele>50.606567</ele>
        <time>2014-05-09T13:54:14Z</time>
      </trkpt>
      <trkpt lat="43.14749" lon="5.71391">
        <ele>50.125977</ele>
        <time>2014-05-09T13:54:22Z</time>
      </trkpt>
      <trkpt lat="43.14756" lon="5.71401">
        <ele>49.645264</ele>
        <time>2014-05-09T13:54:31Z</time>
      </trkpt>
      <trkpt lat="43.14761" lon="5.71409">
        <ele>47.722534</ele>
        <time>2014-05-09T13:54:39Z</time>
      </trkpt>
      <trkpt lat="43.14765" lon="5.71412">
        <ele>48.68396</ele>
        <time>2014-05-09T13:54:45Z</time>
      </trkpt>
      <trkpt lat="43.14769" lon="5.71419">
        <ele>47.241821</ele>
        <time>2014-05-09T13:54:51Z</time>
      </trkpt>
      <trkpt lat="43.14773" lon="5.71428">
        <ele>46.28064</ele>
        <time>2014-05-09T13:54:59Z</time>
      </trkpt>
      <trkpt lat="43.1478" lon="5.71436">
        <ele>45.319214</ele>
        <time>2014-05-09T13:55:09Z</time>
      </trkpt>
      <trkpt lat="43.14785" lon="5.71442">
        <ele>45.319214</ele>
        <time>2014-05-09T13:55:16Z</time>
      </trkpt>
      <trkpt lat="43.14786" lon="5.71444">
        <ele>47.241821</ele>
        <time>2014-05-09T13:55:20Z</time>
      </trkpt>
      <trkpt lat="43.14787" lon="5.71448">
        <ele>52.529175</ele>
        <time>2014-05-09T13:55:28Z</time>
      </trkpt>
      <trkpt lat="43.14794" lon="5.71459">
        <ele>49.645264</ele>
        <time>2014-05-09T13:55:37Z</time>
      </trkpt>
      <trkpt lat="43.14799" lon="5.71469">
        <ele>46.76123</ele>
        <time>2014-05-09T13:55:45Z</time>
      </trkpt>
      <trkpt lat="43.14805" lon="5.71476">
        <ele>45.799927</ele>
        <time>2014-05-09T13:55:54Z</time>
      </trkpt>
      <trkpt lat="43.14811" lon="5.7148">
        <ele>45.319214</ele>
        <time>2014-05-09T13:56:02Z</time>
      </trkpt>
      <trkpt lat="43.14817" lon="5.71487">
        <ele>43.877319</ele>
        <time>2014-05-09T13:56:10Z</time>
      </trkpt>
      <trkpt lat="43.14823" lon="5.71493">
        <ele>46.28064</ele>
        <time>2014-05-09T13:56:19Z</time>
      </trkpt>
      <trkpt lat="43.14829" lon="5.71499">
        <ele>49.164551</ele>
        <time>2014-05-09T13:56:28Z</time>
      </trkpt>
      <trkpt lat="43.14834" lon="5.71506">
        <ele>46.76123</ele>
        <time>2014-05-09T13:56:35Z</time>
      </trkpt>
      <trkpt lat="43.1484" lon="5.71516">
        <ele>44.358032</ele>
        <time>2014-05-09T13:56:44Z</time>
      </trkpt>
      <trkpt lat="43.14842" lon="5.71523">
        <ele>44.358032</ele>
        <time>2014-05-09T13:56:51Z</time>
      </trkpt>
      <trkpt lat="43.14843" lon="5.71529">
        <ele>48.203369</ele>
        <time>2014-05-09T13:56:59Z</time>
      </trkpt>
      <trkpt lat="43.14846" lon="5.71532">
        <ele>50.125977</ele>
        <time>2014-05-09T13:57:08Z</time>
      </trkpt>
      <trkpt lat="43.14847" lon="5.71535">
        <ele>50.606567</ele>
        <time>2014-05-09T13:57:13Z</time>
      </trkpt>
      <trkpt lat="43.14849" lon="5.71538">
        <ele>49.645264</ele>
        <time>2014-05-09T13:57:19Z</time>
      </trkpt>
      <trkpt lat="43.14854" lon="5.71547">
        <ele>47.722534</ele>
        <time>2014-05-09T13:57:25Z</time>
      </trkpt>
      <trkpt lat="43.14858" lon="5.71557">
        <ele>45.319214</ele>
        <time>2014-05-09T13:57:31Z</time>
      </trkpt>
      <trkpt lat="43.14864" lon="5.71568">
        <ele>41.473999</ele>
        <time>2014-05-09T13:57:40Z</time>
      </trkpt>
      <trkpt lat="43.14865" lon="5.71573">
        <ele>39.55127</ele>
        <time>2014-05-09T13:57:46Z</time>
      </trkpt>
      <trkpt lat="43.14868" lon="5.71578">
        <ele>40.512817</ele>
        <time>2014-05-09T13:57:51Z</time>
      </trkpt>
      <trkpt lat="43.14869" lon="5.71584">
        <ele>42.916016</ele>
        <time>2014-05-09T13:57:58Z</time>
      </trkpt>
      <trkpt lat="43.14872" lon="5.71593">
        <ele>45.799927</ele>
        <time>2014-05-09T13:58:06Z</time>
      </trkpt>
      <trkpt lat="43.14876" lon="5.71603">
        <ele>44.358032</ele>
        <time>2014-05-09T13:58:14Z</time>
      </trkpt>
      <trkpt lat="43.14877" lon="5.7161">
        <ele>44.358032</ele>
        <time>2014-05-09T13:58:22Z</time>
      </trkpt>
      <trkpt lat="43.14876" lon="5.7162">
        <ele>43.396606</ele>
        <time>2014-05-09T13:58:31Z</time>
      </trkpt>
      <trkpt lat="43.14875" lon="5.71622">
        <ele>43.877319</ele>
        <time>2014-05-09T13:58:38Z</time>
      </trkpt>
      <trkpt lat="43.14877" lon="5.71626">
        <ele>43.396606</ele>
        <time>2014-05-09T13:58:43Z</time>
      </trkpt>
      <trkpt lat="43.14877" lon="5.71634">
        <ele>43.877319</ele>
        <time>2014-05-09T13:58:51Z</time>
      </trkpt>
      <trkpt lat="43.14877" lon="5.71639">
        <ele>43.396606</ele>
        <time>2014-05-09T13:58:55Z</time>
      </trkpt>
      <trkpt lat="43.14877" lon="5.71651">
        <ele>44.838623</ele>
        <time>2014-05-09T13:59:05Z</time>
      </trkpt>
      <trkpt lat="43.14876" lon="5.71663">
        <ele>44.838623</ele>
        <time>2014-05-09T13:59:15Z</time>
      </trkpt>
      <trkpt lat="43.14874" lon="5.71671">
        <ele>44.838623</ele>
        <time>2014-05-09T13:59:23Z</time>
      </trkpt>
      <trkpt lat="43.14874" lon="5.71675">
        <ele>47.722534</ele>
        <time>2014-05-09T13:59:31Z</time>
      </trkpt>
      <trkpt lat="43.14873" lon="5.71681">
        <ele>50.606567</ele>
        <time>2014-05-09T13:59:39Z</time>
      </trkpt>
      <trkpt lat="43.14869" lon="5.7169">
        <ele>51.087158</ele>
        <time>2014-05-09T13:59:48Z</time>
      </trkpt>
      <trkpt lat="43.14863" lon="5.71697">
        <ele>51.567871</ele>
        <time>2014-05-09T13:59:55Z</time>
      </trkpt>
      <trkpt lat="43.14859" lon="5.71708">
        <ele>49.645264</ele>
        <time>2014-05-09T14:00:03Z</time>
      </trkpt>
      <trkpt lat="43.14855" lon="5.71717">
        <ele>48.203369</ele>
        <time>2014-05-09T14:00:10Z</time>
      </trkpt>
      <trkpt lat="43.14852" lon="5.71727">
        <ele>47.241821</ele>
        <time>2014-05-09T14:00:17Z</time>
      </trkpt>
      <trkpt lat="43.14849" lon="5.7174">
        <ele>47.722534</ele>
        <time>2014-05-09T14:00:27Z</time>
      </trkpt>
      <trkpt lat="43.14846" lon="5.7175">
        <ele>49.164551</ele>
        <time>2014-05-09T14:00:35Z</time>
      </trkpt>
      <trkpt lat="43.14844" lon="5.71757">
        <ele>50.125977</ele>
        <time>2014-05-09T14:00:42Z</time>
      </trkpt>
      <trkpt lat="43.14843" lon="5.71763">
        <ele>50.125977</ele>
        <time>2014-05-09T14:00:46Z</time>
      </trkpt>
      <trkpt lat="43.14843" lon="5.71771">
        <ele>49.164551</ele>
        <time>2014-05-09T14:00:51Z</time>
      </trkpt>
      <trkpt lat="43.14843" lon="5.71785">
        <ele>47.241821</ele>
        <time>2014-05-09T14:00:59Z</time>
      </trkpt>
      <trkpt lat="43.14842" lon="5.71795">
        <ele>47.241821</ele>
        <time>2014-05-09T14:01:07Z</time>
      </trkpt>
      <trkpt lat="43.14842" lon="5.71804">
        <ele>48.68396</ele>
        <time>2014-05-09T14:01:15Z</time>
      </trkpt>
      <trkpt lat="43.1484" lon="5.71814">
        <ele>50.125977</ele>
        <time>2014-05-09T14:01:23Z</time>
      </trkpt>
      <trkpt lat="43.14839" lon="5.71825">
        <ele>52.048584</ele>
        <time>2014-05-09T14:01:33Z</time>
      </trkpt>
      <trkpt lat="43.14839" lon="5.71836">
        <ele>52.529175</ele>
        <time>2014-05-09T14:01:42Z</time>
      </trkpt>
      <trkpt lat="43.14842" lon="5.71843">
        <ele>53.971191</ele>
        <time>2014-05-09T14:01:50Z</time>
      </trkpt>
      <trkpt lat="43.14845" lon="5.71847">
        <ele>55.413086</ele>
        <time>2014-05-09T14:01:56Z</time>
      </trkpt>
      <trkpt lat="43.1485" lon="5.71853">
        <ele>57.335815</ele>
        <time>2014-05-09T14:02:04Z</time>
      </trkpt>
      <trkpt lat="43.14852" lon="5.71854">
        <ele>64.545654</ele>
        <time>2014-05-09T14:02:12Z</time>
      </trkpt>
      <trkpt lat="43.14856" lon="5.71858">
        <ele>67.910278</ele>
        <time>2014-05-09T14:02:19Z</time>
      </trkpt>
      <trkpt lat="43.14862" lon="5.71863">
        <ele>66.948975</ele>
        <time>2014-05-09T14:02:26Z</time>
      </trkpt>
      <trkpt lat="43.1487" lon="5.71868">
        <ele>64.545654</ele>
        <time>2014-05-09T14:02:34Z</time>
      </trkpt>
      <trkpt lat="43.14874" lon="5.7188">
        <ele>64.065063</ele>
        <time>2014-05-09T14:02:43Z</time>
      </trkpt>
      <trkpt lat="43.14876" lon="5.71887">
        <ele>63.103638</ele>
        <time>2014-05-09T14:02:52Z</time>
      </trkpt>
      <trkpt lat="43.14881" lon="5.71886">
        <ele>62.142334</ele>
        <time>2014-05-09T14:03:13Z</time>
      </trkpt>
      <trkpt lat="43.14878" lon="5.71894">
        <ele>56.374512</ele>
        <time>2014-05-09T14:04:05Z</time>
      </trkpt>
      <trkpt lat="43.14876" lon="5.71902">
        <ele>55.893799</ele>
        <time>2014-05-09T14:04:13Z</time>
      </trkpt>
      <trkpt lat="43.14875" lon="5.71903">
        <ele>56.374512</ele>
        <time>2014-05-09T14:04:18Z</time>
      </trkpt>
      <trkpt lat="43.14875" lon="5.7191">
        <ele>56.855103</ele>
        <time>2014-05-09T14:04:24Z</time>
      </trkpt>
      <trkpt lat="43.14875" lon="5.71921">
        <ele>58.77771</ele>
        <time>2014-05-09T14:04:32Z</time>
      </trkpt>
      <trkpt lat="43.14873" lon="5.71932">
        <ele>60.219727</ele>
        <time>2014-05-09T14:04:39Z</time>
      </trkpt>
      <trkpt lat="43.14874" lon="5.71944">
        <ele>59.258423</ele>
        <time>2014-05-09T14:04:47Z</time>
      </trkpt>
      <trkpt lat="43.14873" lon="5.71954">
        <ele>59.258423</ele>
        <time>2014-05-09T14:04:54Z</time>
      </trkpt>
      <trkpt lat="43.14873" lon="5.71965">
        <ele>59.739136</ele>
        <time>2014-05-09T14:05:02Z</time>
      </trkpt>
      <trkpt lat="43.14877" lon="5.71972">
        <ele>56.374512</ele>
        <time>2014-05-09T14:05:09Z</time>
      </trkpt>
      <trkpt lat="43.14882" lon="5.71973">
        <ele>54.932373</ele>
        <time>2014-05-09T14:05:15Z</time>
      </trkpt>
      <trkpt lat="43.14875" lon="5.71981">
        <ele>57.816528</ele>
        <time>2014-05-09T14:05:22Z</time>
      </trkpt>
      <trkpt lat="43.14876" lon="5.71983">
        <ele>62.142334</ele>
        <time>2014-05-09T14:05:29Z</time>
      </trkpt>
      <trkpt lat="43.14873" lon="5.71987">
        <ele>63.584351</ele>
        <time>2014-05-09T14:05:36Z</time>
      </trkpt>
      <trkpt lat="43.14867" lon="5.71992">
        <ele>64.545654</ele>
        <time>2014-05-09T14:05:41Z</time>
      </trkpt>
      <trkpt lat="43.1486" lon="5.71998">
        <ele>63.103638</ele>
        <time>2014-05-09T14:05:49Z</time>
      </trkpt>
      <trkpt lat="43.14858" lon="5.72001">
        <ele>62.142334</ele>
        <time>2014-05-09T14:05:55Z</time>
      </trkpt>
      <trkpt lat="43.14856" lon="5.72003">
        <ele>60.700317</ele>
        <time>2014-05-09T14:06:02Z</time>
      </trkpt>
      <trkpt lat="43.14853" lon="5.72005">
        <ele>61.18103</ele>
        <time>2014-05-09T14:06:10Z</time>
      </trkpt>
      <trkpt lat="43.14851" lon="5.72008">
        <ele>61.661743</ele>
        <time>2014-05-09T14:06:17Z</time>
      </trkpt>
      <trkpt lat="43.14846" lon="5.72014">
        <ele>62.622925</ele>
        <time>2014-05-09T14:06:26Z</time>
      </trkpt>
      <trkpt lat="43.14842" lon="5.72017">
        <ele>63.103638</ele>
        <time>2014-05-09T14:06:33Z</time>
      </trkpt>
      <trkpt lat="43.14839" lon="5.7202">
        <ele>63.584351</ele>
        <time>2014-05-09T14:06:39Z</time>
      </trkpt>
      <trkpt lat="43.14837" lon="5.72023">
        <ele>64.545654</ele>
        <time>2014-05-09T14:06:45Z</time>
      </trkpt>
      <trkpt lat="43.14833" lon="5.72027">
        <ele>65.026367</ele>
        <time>2014-05-09T14:06:51Z</time>
      </trkpt>
      <trkpt lat="43.14829" lon="5.72029">
        <ele>65.50708</ele>
        <time>2014-05-09T14:06:57Z</time>
      </trkpt>
      <trkpt lat="43.14823" lon="5.72033">
        <ele>59.258423</ele>
        <time>2014-05-09T14:07:17Z</time>
      </trkpt>
      <trkpt lat="43.14819" lon="5.72032">
        <ele>62.142334</ele>
        <time>2014-05-09T14:07:23Z</time>
      </trkpt>
      <trkpt lat="43.14813" lon="5.72035">
        <ele>64.065063</ele>
        <time>2014-05-09T14:07:31Z</time>
      </trkpt>
      <trkpt lat="43.14805" lon="5.72037">
        <ele>65.50708</ele>
        <time>2014-05-09T14:07:38Z</time>
      </trkpt>
      <trkpt lat="43.14798" lon="5.72039">
        <ele>65.026367</ele>
        <time>2014-05-09T14:07:44Z</time>
      </trkpt>
      <trkpt lat="43.14793" lon="5.72039">
        <ele>66.468262</ele>
        <time>2014-05-09T14:07:50Z</time>
      </trkpt>
      <trkpt lat="43.14785" lon="5.7204">
        <ele>67.429688</ele>
        <time>2014-05-09T14:07:58Z</time>
      </trkpt>
      <trkpt lat="43.14784" lon="5.7204">
        <ele>66.948975</ele>
        <time>2014-05-09T14:07:59Z</time>
      </trkpt>
      <trkpt lat="43.14776" lon="5.72044">
        <ele>65.987671</ele>
        <time>2014-05-09T14:08:07Z</time>
      </trkpt>
      <trkpt lat="43.14771" lon="5.72045">
        <ele>67.429688</ele>
        <time>2014-05-09T14:08:13Z</time>
      </trkpt>
      <trkpt lat="43.14763" lon="5.72048">
        <ele>67.429688</ele>
        <time>2014-05-09T14:08:21Z</time>
      </trkpt>
      <trkpt lat="43.14758" lon="5.72051">
        <ele>67.910278</ele>
        <time>2014-05-09T14:08:28Z</time>
      </trkpt>
      <trkpt lat="43.14751" lon="5.72052">
        <ele>71.274902</ele>
        <time>2014-05-09T14:08:35Z</time>
      </trkpt>
      <trkpt lat="43.14745" lon="5.72054">
        <ele>72.236206</ele>
        <time>2014-05-09T14:08:43Z</time>
      </trkpt>
      <trkpt lat="43.14737" lon="5.72059">
        <ele>72.236206</ele>
        <time>2014-05-09T14:08:52Z</time>
      </trkpt>
      <trkpt lat="43.14734" lon="5.72061">
        <ele>72.716919</ele>
        <time>2014-05-09T14:08:59Z</time>
      </trkpt>
      <trkpt lat="43.1473" lon="5.72062">
        <ele>71.274902</ele>
        <time>2014-05-09T14:09:06Z</time>
      </trkpt>
      <trkpt lat="43.14729" lon="5.72063">
        <ele>70.794189</ele>
        <time>2014-05-09T14:09:13Z</time>
      </trkpt>
      <trkpt lat="43.14726" lon="5.72064">
        <ele>69.832886</ele>
        <time>2014-05-09T14:09:21Z</time>
      </trkpt>
      <trkpt lat="43.14719" lon="5.72065">
        <ele>73.678223</ele>
        <time>2014-05-09T14:09:27Z</time>
      </trkpt>
      <trkpt lat="43.14714" lon="5.72066">
        <ele>74.639526</ele>
        <time>2014-05-09T14:09:33Z</time>
      </trkpt>
      <trkpt lat="43.14708" lon="5.72068">
        <ele>75.120239</ele>
        <time>2014-05-09T14:09:41Z</time>
      </trkpt>
      <trkpt lat="43.14706" lon="5.72068">
        <ele>75.120239</ele>
        <time>2014-05-09T14:09:48Z</time>
      </trkpt>
      <trkpt lat="43.14702" lon="5.72071">
        <ele>74.639526</ele>
        <time>2014-05-09T14:09:55Z</time>
      </trkpt>
      <trkpt lat="43.14697" lon="5.72076">
        <ele>74.639526</ele>
        <time>2014-05-09T14:10:03Z</time>
      </trkpt>
      <trkpt lat="43.14691" lon="5.72081">
        <ele>75.60083</ele>
        <time>2014-05-09T14:10:11Z</time>
      </trkpt>
      <trkpt lat="43.14686" lon="5.72082">
        <ele>77.042847</ele>
        <time>2014-05-09T14:10:19Z</time>
      </trkpt>
      <trkpt lat="43.14681" lon="5.72084">
        <ele>78.484741</ele>
        <time>2014-05-09T14:10:27Z</time>
      </trkpt>
      <trkpt lat="43.14677" lon="5.72085">
        <ele>79.926636</ele>
        <time>2014-05-09T14:10:34Z</time>
      </trkpt>
      <trkpt lat="43.14672" lon="5.72087">
        <ele>80.407471</ele>
        <time>2014-05-09T14:10:42Z</time>
      </trkpt>
      <trkpt lat="43.14667" lon="5.72089">
        <ele>79.926636</ele>
        <time>2014-05-09T14:10:49Z</time>
      </trkpt>
      <trkpt lat="43.14662" lon="5.72093">
        <ele>78.965454</ele>
        <time>2014-05-09T14:10:56Z</time>
      </trkpt>
      <trkpt lat="43.14657" lon="5.72096">
        <ele>79.446045</ele>
        <time>2014-05-09T14:11:04Z</time>
      </trkpt>
      <trkpt lat="43.14651" lon="5.72099">
        <ele>79.926636</ele>
        <time>2014-05-09T14:11:11Z</time>
      </trkpt>
      <trkpt lat="43.14648" lon="5.721">
        <ele>79.926636</ele>
        <time>2014-05-09T14:11:19Z</time>
      </trkpt>
      <trkpt lat="43.14645" lon="5.72102">
        <ele>79.926636</ele>
        <time>2014-05-09T14:11:26Z</time>
      </trkpt>
      <trkpt lat="43.14643" lon="5.72105">
        <ele>79.446045</ele>
        <time>2014-05-09T14:11:32Z</time>
      </trkpt>
      <trkpt lat="43.14635" lon="5.72108">
        <ele>78.484741</ele>
        <time>2014-05-09T14:11:42Z</time>
      </trkpt>
      <trkpt lat="43.14628" lon="5.72113">
        <ele>78.484741</ele>
        <time>2014-05-09T14:11:51Z</time>
      </trkpt>
      <trkpt lat="43.14621" lon="5.72118">
        <ele>77.042847</ele>
        <time>2014-05-09T14:11:59Z</time>
      </trkpt>
      <trkpt lat="43.14616" lon="5.72122">
        <ele>77.042847</ele>
        <time>2014-05-09T14:12:06Z</time>
      </trkpt>
      <trkpt lat="43.14612" lon="5.72128">
        <ele>76.081421</ele>
        <time>2014-05-09T14:12:14Z</time>
      </trkpt>
      <trkpt lat="43.14607" lon="5.72133">
        <ele>76.081421</ele>
        <time>2014-05-09T14:12:22Z</time>
      </trkpt>
      <trkpt lat="43.14605" lon="5.72135">
        <ele>75.120239</ele>
        <time>2014-05-09T14:12:30Z</time>
      </trkpt>
      <trkpt lat="43.14601" lon="5.72141">
        <ele>75.120239</ele>
        <time>2014-05-09T14:12:38Z</time>
      </trkpt>
      <trkpt lat="43.14597" lon="5.72145">
        <ele>76.081421</ele>
        <time>2014-05-09T14:12:46Z</time>
      </trkpt>
      <trkpt lat="43.14593" lon="5.72149">
        <ele>76.562134</ele>
        <time>2014-05-09T14:12:54Z</time>
      </trkpt>
      <trkpt lat="43.14591" lon="5.72151">
        <ele>75.120239</ele>
        <time>2014-05-09T14:13:01Z</time>
      </trkpt>
      <trkpt lat="43.14583" lon="5.72158">
        <ele>75.60083</ele>
        <time>2014-05-09T14:13:22Z</time>
      </trkpt>
      <trkpt lat="43.14575" lon="5.72162">
        <ele>76.081421</ele>
        <time>2014-05-09T14:13:30Z</time>
      </trkpt>
      <trkpt lat="43.1457" lon="5.72164">
        <ele>75.60083</ele>
        <time>2014-05-09T14:13:37Z</time>
      </trkpt>
      <trkpt lat="43.14563" lon="5.72164">
        <ele>75.120239</ele>
        <time>2014-05-09T14:13:45Z</time>
      </trkpt>
      <trkpt lat="43.14555" lon="5.72166">
        <ele>74.639526</ele>
        <time>2014-05-09T14:13:53Z</time>
      </trkpt>
      <trkpt lat="43.14544" lon="5.72167">
        <ele>74.158813</ele>
        <time>2014-05-09T14:14:03Z</time>
      </trkpt>
      <trkpt lat="43.1454" lon="5.72168">
        <ele>74.158813</ele>
        <time>2014-05-09T14:14:08Z</time>
      </trkpt>
      <trkpt lat="43.1453" lon="5.72169">
        <ele>73.197632</ele>
        <time>2014-05-09T14:14:17Z</time>
      </trkpt>
      <trkpt lat="43.14522" lon="5.72169">
        <ele>73.197632</ele>
        <time>2014-05-09T14:14:25Z</time>
      </trkpt>
      <trkpt lat="43.14517" lon="5.7217">
        <ele>73.678223</ele>
        <time>2014-05-09T14:14:31Z</time>
      </trkpt>
      <trkpt lat="43.14511" lon="5.72172">
        <ele>74.158813</ele>
        <time>2014-05-09T14:14:38Z</time>
      </trkpt>
      <trkpt lat="43.14504" lon="5.72175">
        <ele>74.158813</ele>
        <time>2014-05-09T14:14:46Z</time>
      </trkpt>
      <trkpt lat="43.14494" lon="5.72175">
        <ele>73.678223</ele>
        <time>2014-05-09T14:14:54Z</time>
      </trkpt>
      <trkpt lat="43.14484" lon="5.72175">
        <ele>71.274902</ele>
        <time>2014-05-09T14:15:03Z</time>
      </trkpt>
      <trkpt lat="43.1448" lon="5.72176">
        <ele>72.236206</ele>
        <time>2014-05-09T14:15:08Z</time>
      </trkpt>
      <trkpt lat="43.14472" lon="5.72176">
        <ele>72.716919</ele>
        <time>2014-05-09T14:15:17Z</time>
      </trkpt>
      <trkpt lat="43.1447" lon="5.72176">
        <ele>72.236206</ele>
        <time>2014-05-09T14:15:25Z</time>
      </trkpt>
      <trkpt lat="43.1447" lon="5.72177">
        <ele>67.910278</ele>
        <time>2014-05-09T14:15:48Z</time>
      </trkpt>
      <trkpt lat="43.14468" lon="5.72177">
        <ele>64.545654</ele>
        <time>2014-05-09T14:16:03Z</time>
      </trkpt>
      <trkpt lat="43.14469" lon="5.72177">
        <ele>66.468262</ele>
        <time>2014-05-09T14:16:16Z</time>
      </trkpt>
      <trkpt lat="43.1447" lon="5.72178">
        <ele>69.352295</ele>
        <time>2014-05-09T14:16:33Z</time>
      </trkpt>
      <trkpt lat="43.14467" lon="5.72182">
        <ele>68.871582</ele>
        <time>2014-05-09T14:16:56Z</time>
      </trkpt>
      <trkpt lat="43.14462" lon="5.72179">
        <ele>69.352295</ele>
        <time>2014-05-09T14:17:02Z</time>
      </trkpt>
      <trkpt lat="43.14458" lon="5.72178">
        <ele>71.274902</ele>
        <time>2014-05-09T14:17:12Z</time>
      </trkpt>
      <trkpt lat="43.14452" lon="5.72174">
        <ele>72.236206</ele>
        <time>2014-05-09T14:17:20Z</time>
      </trkpt>
      <trkpt lat="43.14443" lon="5.72172">
        <ele>71.274902</ele>
        <time>2014-05-09T14:17:29Z</time>
      </trkpt>
      <trkpt lat="43.14438" lon="5.72171">
        <ele>71.755493</ele>
        <time>2014-05-09T14:17:36Z</time>
      </trkpt>
      <trkpt lat="43.14434" lon="5.72172">
        <ele>70.794189</ele>
        <time>2014-05-09T14:17:43Z</time>
      </trkpt>
      <trkpt lat="43.14428" lon="5.72175">
        <ele>68.871582</ele>
        <time>2014-05-09T14:17:51Z</time>
      </trkpt>
      <trkpt lat="43.14423" lon="5.72174">
        <ele>66.948975</ele>
        <time>2014-05-09T14:17:57Z</time>
      </trkpt>
      <trkpt lat="43.14419" lon="5.72174">
        <ele>67.910278</ele>
        <time>2014-05-09T14:18:06Z</time>
      </trkpt>
      <trkpt lat="43.14414" lon="5.72173">
        <ele>66.948975</ele>
        <time>2014-05-09T14:18:19Z</time>
      </trkpt>
      <trkpt lat="43.14408" lon="5.72173">
        <ele>65.50708</ele>
        <time>2014-05-09T14:18:26Z</time>
      </trkpt>
      <trkpt lat="43.144" lon="5.72175">
        <ele>64.065063</ele>
        <time>2014-05-09T14:18:34Z</time>
      </trkpt>
      <trkpt lat="43.14398" lon="5.72175">
        <ele>66.948975</ele>
        <time>2014-05-09T14:18:40Z</time>
      </trkpt>
      <trkpt lat="43.14398" lon="5.72176">
        <ele>78.004028</ele>
        <time>2014-05-09T14:18:52Z</time>
      </trkpt>
      <trkpt lat="43.14398" lon="5.72176">
        <ele>83.291382</ele>
        <time>2014-05-09T14:19:02Z</time>
      </trkpt>
      <trkpt lat="43.14402" lon="5.7218">
        <ele>85.69458</ele>
        <time>2014-05-09T14:19:24Z</time>
      </trkpt>
      <trkpt lat="43.14399" lon="5.7218">
        <ele>78.004028</ele>
        <time>2014-05-09T14:19:35Z</time>
      </trkpt>
      <trkpt lat="43.14392" lon="5.7218">
        <ele>73.197632</ele>
        <time>2014-05-09T14:19:48Z</time>
      </trkpt>
      <trkpt lat="43.14386" lon="5.72175">
        <ele>73.678223</ele>
        <time>2014-05-09T14:19:56Z</time>
      </trkpt>
      <trkpt lat="43.14375" lon="5.72172">
        <ele>72.716919</ele>
        <time>2014-05-09T14:20:04Z</time>
      </trkpt>
      <trkpt lat="43.14367" lon="5.72169">
        <ele>73.197632</ele>
        <time>2014-05-09T14:20:10Z</time>
      </trkpt>
      <trkpt lat="43.14357" lon="5.72168">
        <ele>74.639526</ele>
        <time>2014-05-09T14:20:17Z</time>
      </trkpt>
      <trkpt lat="43.14352" lon="5.72169">
        <ele>73.197632</ele>
        <time>2014-05-09T14:20:21Z</time>
      </trkpt>
      <trkpt lat="43.14344" lon="5.7217">
        <ele>72.716919</ele>
        <time>2014-05-09T14:20:28Z</time>
      </trkpt>
      <trkpt lat="43.14336" lon="5.72175">
        <ele>72.236206</ele>
        <time>2014-05-09T14:20:35Z</time>
      </trkpt>
      <trkpt lat="43.14324" lon="5.72182">
        <ele>69.832886</ele>
        <time>2014-05-09T14:20:42Z</time>
      </trkpt>
      <trkpt lat="43.14319" lon="5.72185">
        <ele>68.871582</ele>
        <time>2014-05-09T14:20:45Z</time>
      </trkpt>
      <trkpt lat="43.14312" lon="5.72184">
        <ele>71.755493</ele>
        <time>2014-05-09T14:20:51Z</time>
      </trkpt>
      <trkpt lat="43.14305" lon="5.72179">
        <ele>74.639526</ele>
        <time>2014-05-09T14:20:57Z</time>
      </trkpt>
      <trkpt lat="43.14301" lon="5.7218">
        <ele>74.639526</ele>
        <time>2014-05-09T14:21:02Z</time>
      </trkpt>
      <trkpt lat="43.14294" lon="5.72181">
        <ele>72.236206</ele>
        <time>2014-05-09T14:21:07Z</time>
      </trkpt>
      <trkpt lat="43.14286" lon="5.72187">
        <ele>68.871582</ele>
        <time>2014-05-09T14:21:13Z</time>
      </trkpt>
      <trkpt lat="43.14279" lon="5.72187">
        <ele>66.948975</ele>
        <time>2014-05-09T14:21:18Z</time>
      </trkpt>
      <trkpt lat="43.14273" lon="5.72191">
        <ele>64.065063</ele>
        <time>2014-05-09T14:21:23Z</time>
      </trkpt>
      <trkpt lat="43.14267" lon="5.72194">
        <ele>62.622925</ele>
        <time>2014-05-09T14:21:28Z</time>
      </trkpt>
      <trkpt lat="43.14266" lon="5.72195">
        <ele>62.622925</ele>
        <time>2014-05-09T14:21:30Z</time>
      </trkpt>
      <trkpt lat="43.14261" lon="5.72191">
        <ele>63.584351</ele>
        <time>2014-05-09T14:21:37Z</time>
      </trkpt>
      <trkpt lat="43.1426" lon="5.72189">
        <ele>63.103638</ele>
        <time>2014-05-09T14:21:42Z</time>
      </trkpt>
      <trkpt lat="43.14257" lon="5.72187">
        <ele>65.026367</ele>
        <time>2014-05-09T14:21:51Z</time>
      </trkpt>
      <trkpt lat="43.1425" lon="5.72183">
        <ele>69.352295</ele>
        <time>2014-05-09T14:22:02Z</time>
      </trkpt>
      <trkpt lat="43.1425" lon="5.72181">
        <ele>70.794189</ele>
        <time>2014-05-09T14:22:09Z</time>
      </trkpt>
      <trkpt lat="43.1425" lon="5.72179">
        <ele>70.794189</ele>
        <time>2014-05-09T14:22:16Z</time>
      </trkpt>
      <trkpt lat="43.14247" lon="5.72176">
        <ele>71.755493</ele>
        <time>2014-05-09T14:22:27Z</time>
      </trkpt>
      <trkpt lat="43.14241" lon="5.72177">
        <ele>70.794189</ele>
        <time>2014-05-09T14:22:36Z</time>
      </trkpt>
      <trkpt lat="43.14243" lon="5.72177">
        <ele>64.545654</ele>
        <time>2014-05-09T14:22:57Z</time>
      </trkpt>
      <trkpt lat="43.14245" lon="5.72178">
        <ele>63.584351</ele>
        <time>2014-05-09T14:23:06Z</time>
      </trkpt>
      <trkpt lat="43.14249" lon="5.72178">
        <ele>64.545654</ele>
        <time>2014-05-09T14:23:12Z</time>
      </trkpt>
      <trkpt lat="43.14257" lon="5.72182">
        <ele>61.661743</ele>
        <time>2014-05-09T14:23:20Z</time>
      </trkpt>
      <trkpt lat="43.1426" lon="5.72185">
        <ele>58.297119</ele>
        <time>2014-05-09T14:23:31Z</time>
      </trkpt>
      <trkpt lat="43.14261" lon="5.72189">
        <ele>55.893799</ele>
        <time>2014-05-09T14:23:41Z</time>
      </trkpt>
      <trkpt lat="43.14254" lon="5.72184">
        <ele>62.622925</ele>
        <time>2014-05-09T14:23:55Z</time>
      </trkpt>
      <trkpt lat="43.14252" lon="5.72181">
        <ele>64.065063</ele>
        <time>2014-05-09T14:24:01Z</time>
      </trkpt>
      <trkpt lat="43.14253" lon="5.72179">
        <ele>64.065063</ele>
        <time>2014-05-09T14:24:14Z</time>
      </trkpt>
      <trkpt lat="43.1425" lon="5.72174">
        <ele>65.50708</ele>
        <time>2014-05-09T14:24:33Z</time>
      </trkpt>
      <trkpt lat="43.14252" lon="5.72174">
        <ele>65.987671</ele>
        <time>2014-05-09T14:24:39Z</time>
      </trkpt>
      <trkpt lat="43.14253" lon="5.72173">
        <ele>65.026367</ele>
        <time>2014-05-09T14:24:46Z</time>
      </trkpt>
      <trkpt lat="43.14255" lon="5.72174">
        <ele>65.026367</ele>
        <time>2014-05-09T14:25:07Z</time>
      </trkpt>
      <trkpt lat="43.14254" lon="5.72177">
        <ele>63.103638</ele>
        <time>2014-05-09T14:25:13Z</time>
      </trkpt>
      <trkpt lat="43.14253" lon="5.7218">
        <ele>61.661743</ele>
        <time>2014-05-09T14:25:19Z</time>
      </trkpt>
      <trkpt lat="43.14252" lon="5.72179">
        <ele>64.065063</ele>
        <time>2014-05-09T14:25:32Z</time>
      </trkpt>
      <trkpt lat="43.14253" lon="5.72182">
        <ele>62.142334</ele>
        <time>2014-05-09T14:25:48Z</time>
      </trkpt>
      <trkpt lat="43.14253" lon="5.72183">
        <ele>63.103638</ele>
        <time>2014-05-09T14:25:56Z</time>
      </trkpt>
      <trkpt lat="43.14252" lon="5.72181">
        <ele>64.065063</ele>
        <time>2014-05-09T14:26:05Z</time>
      </trkpt>
      <trkpt lat="43.14251" lon="5.72179">
        <ele>64.545654</ele>
        <time>2014-05-09T14:26:17Z</time>
      </trkpt>
      <trkpt lat="43.1425" lon="5.72178">
        <ele>65.026367</ele>
        <time>2014-05-09T14:26:25Z</time>
      </trkpt>
      <trkpt lat="43.14249" lon="5.72175">
        <ele>69.352295</ele>
        <time>2014-05-09T14:26:35Z</time>
      </trkpt>
      <trkpt lat="43.14253" lon="5.72178">
        <ele>65.026367</ele>
        <time>2014-05-09T14:26:50Z</time>
      </trkpt>
      <trkpt lat="43.14253" lon="5.72182">
        <ele>64.545654</ele>
        <time>2014-05-09T14:27:02Z</time>
      </trkpt>
      <trkpt lat="43.14248" lon="5.72178">
        <ele>71.274902</ele>
        <time>2014-05-09T14:27:14Z</time>
      </trkpt>
      <trkpt lat="43.14245" lon="5.72176">
        <ele>74.158813</ele>
        <time>2014-05-09T14:27:28Z</time>
      </trkpt>
      <trkpt lat="43.14248" lon="5.72176">
        <ele>72.716919</ele>
        <time>2014-05-09T14:27:36Z</time>
      </trkpt>
      <trkpt lat="43.14253" lon="5.72182">
        <ele>63.584351</ele>
        <time>2014-05-09T14:27:50Z</time>
      </trkpt>
      <trkpt lat="43.14253" lon="5.7218">
        <ele>60.700317</ele>
        <time>2014-05-09T14:28:02Z</time>
      </trkpt>
      <trkpt lat="43.14255" lon="5.72179">
        <ele>59.258423</ele>
        <time>2014-05-09T14:28:17Z</time>
      </trkpt>
      <trkpt lat="43.14253" lon="5.72177">
        <ele>60.219727</ele>
        <time>2014-05-09T14:28:26Z</time>
      </trkpt>
      <trkpt lat="43.14252" lon="5.72176">
        <ele>60.219727</ele>
        <time>2014-05-09T14:28:33Z</time>
      </trkpt>
      <trkpt lat="43.1425" lon="5.72178">
        <ele>60.219727</ele>
        <time>2014-05-09T14:28:39Z</time>
      </trkpt>
      <trkpt lat="43.14248" lon="5.72182">
        <ele>60.219727</ele>
        <time>2014-05-09T14:28:46Z</time>
      </trkpt>
      <trkpt lat="43.14248" lon="5.72185">
        <ele>58.77771</ele>
        <time>2014-05-09T14:28:53Z</time>
      </trkpt>
      <trkpt lat="43.14245" lon="5.72188">
        <ele>59.258423</ele>
        <time>2014-05-09T14:29:00Z</time>
      </trkpt>
      <trkpt lat="43.14241" lon="5.7219">
        <ele>60.219727</ele>
        <time>2014-05-09T14:29:06Z</time>
      </trkpt>
      <trkpt lat="43.14236" lon="5.7219">
        <ele>62.142334</ele>
        <time>2014-05-09T14:29:12Z</time>
      </trkpt>
      <trkpt lat="43.14226" lon="5.72189">
        <ele>62.622925</ele>
        <time>2014-05-09T14:29:21Z</time>
      </trkpt>
      <trkpt lat="43.14223" lon="5.72187">
        <ele>64.545654</ele>
        <time>2014-05-09T14:29:26Z</time>
      </trkpt>
      <trkpt lat="43.14218" lon="5.72185">
        <ele>66.468262</ele>
        <time>2014-05-09T14:29:31Z</time>
      </trkpt>
      <trkpt lat="43.14215" lon="5.72184">
        <ele>65.026367</ele>
        <time>2014-05-09T14:29:36Z</time>
      </trkpt>
      <trkpt lat="43.14213" lon="5.72184">
        <ele>63.584351</ele>
        <time>2014-05-09T14:29:41Z</time>
      </trkpt>
      <trkpt lat="43.14212" lon="5.72184">
        <ele>60.700317</ele>
        <time>2014-05-09T14:29:51Z</time>
      </trkpt>
      <trkpt lat="43.1421" lon="5.72185">
        <ele>58.297119</ele>
        <time>2014-05-09T14:30:02Z</time>
      </trkpt>
      <trkpt lat="43.14208" lon="5.72186">
        <ele>58.77771</ele>
        <time>2014-05-09T14:30:12Z</time>
      </trkpt>
      <trkpt lat="43.14201" lon="5.72186">
        <ele>59.258423</ele>
        <time>2014-05-09T14:30:19Z</time>
      </trkpt>
      <trkpt lat="43.14195" lon="5.72188">
        <ele>59.258423</ele>
        <time>2014-05-09T14:30:24Z</time>
      </trkpt>
      <trkpt lat="43.14194" lon="5.72189">
        <ele>59.258423</ele>
        <time>2014-05-09T14:30:25Z</time>
      </trkpt>
      <trkpt lat="43.14187" lon="5.72197">
        <ele>58.77771</ele>
        <time>2014-05-09T14:30:31Z</time>
      </trkpt>
      <trkpt lat="43.14182" lon="5.72201">
        <ele>58.297119</ele>
        <time>2014-05-09T14:30:36Z</time>
      </trkpt>
      <trkpt lat="43.1418" lon="5.72204">
        <ele>58.77771</ele>
        <time>2014-05-09T14:30:42Z</time>
      </trkpt>
      <trkpt lat="43.14175" lon="5.7221">
        <ele>59.258423</ele>
        <time>2014-05-09T14:30:46Z</time>
      </trkpt>
      <trkpt lat="43.14167" lon="5.72214">
        <ele>61.661743</ele>
        <time>2014-05-09T14:30:51Z</time>
      </trkpt>
      <trkpt lat="43.14154" lon="5.72217">
        <ele>63.103638</ele>
        <time>2014-05-09T14:30:59Z</time>
      </trkpt>
      <trkpt lat="43.14145" lon="5.7222">
        <ele>62.622925</ele>
        <time>2014-05-09T14:31:05Z</time>
      </trkpt>
      <trkpt lat="43.14138" lon="5.72222">
        <ele>59.739136</ele>
        <time>2014-05-09T14:31:11Z</time>
      </trkpt>
      <trkpt lat="43.14131" lon="5.72226">
        <ele>57.335815</ele>
        <time>2014-05-09T14:31:19Z</time>
      </trkpt>
      <trkpt lat="43.14129" lon="5.72231">
        <ele>55.413086</ele>
        <time>2014-05-09T14:31:23Z</time>
      </trkpt>
      <trkpt lat="43.14126" lon="5.72242">
        <ele>54.451782</ele>
        <time>2014-05-09T14:31:32Z</time>
      </trkpt>
      <trkpt lat="43.14122" lon="5.72248">
        <ele>53.971191</ele>
        <time>2014-05-09T14:31:40Z</time>
      </trkpt>
      <trkpt lat="43.14122" lon="5.72254">
        <ele>53.009766</ele>
        <time>2014-05-09T14:31:46Z</time>
      </trkpt>
      <trkpt lat="43.14117" lon="5.72261">
        <ele>54.932373</ele>
        <time>2014-05-09T14:31:54Z</time>
      </trkpt>
      <trkpt lat="43.14115" lon="5.72267">
        <ele>55.893799</ele>
        <time>2014-05-09T14:32:00Z</time>
      </trkpt>
      <trkpt lat="43.14111" lon="5.72267">
        <ele>57.816528</ele>
        <time>2014-05-09T14:32:05Z</time>
      </trkpt>
      <trkpt lat="43.14108" lon="5.72272">
        <ele>57.816528</ele>
        <time>2014-05-09T14:32:11Z</time>
      </trkpt>
      <trkpt lat="43.14102" lon="5.72285">
        <ele>57.816528</ele>
        <time>2014-05-09T14:32:22Z</time>
      </trkpt>
      <trkpt lat="43.14097" lon="5.72289">
        <ele>58.297119</ele>
        <time>2014-05-09T14:32:30Z</time>
      </trkpt>
      <trkpt lat="43.14092" lon="5.72291">
        <ele>58.77771</ele>
        <time>2014-05-09T14:32:36Z</time>
      </trkpt>
      <trkpt lat="43.14091" lon="5.72292">
        <ele>58.77771</ele>
        <time>2014-05-09T14:32:37Z</time>
      </trkpt>
      <trkpt lat="43.14086" lon="5.72298">
        <ele>60.219727</ele>
        <time>2014-05-09T14:32:44Z</time>
      </trkpt>
      <trkpt lat="43.14083" lon="5.72302">
        <ele>60.700317</ele>
        <time>2014-05-09T14:32:49Z</time>
      </trkpt>
      <trkpt lat="43.14078" lon="5.72307">
        <ele>61.18103</ele>
        <time>2014-05-09T14:32:56Z</time>
      </trkpt>
      <trkpt lat="43.14072" lon="5.72312">
        <ele>60.219727</ele>
        <time>2014-05-09T14:33:05Z</time>
      </trkpt>
      <trkpt lat="43.14067" lon="5.72316">
        <ele>61.18103</ele>
        <time>2014-05-09T14:33:12Z</time>
      </trkpt>
      <trkpt lat="43.14065" lon="5.72319">
        <ele>57.816528</ele>
        <time>2014-05-09T14:33:16Z</time>
      </trkpt>
      <trkpt lat="43.1406" lon="5.72323">
        <ele>56.374512</ele>
        <time>2014-05-09T14:33:22Z</time>
      </trkpt>
      <trkpt lat="43.14054" lon="5.72325">
        <ele>56.855103</ele>
        <time>2014-05-09T14:33:29Z</time>
      </trkpt>
      <trkpt lat="43.14048" lon="5.7233">
        <ele>58.297119</ele>
        <time>2014-05-09T14:33:36Z</time>
      </trkpt>
      <trkpt lat="43.1404" lon="5.72335">
        <ele>60.219727</ele>
        <time>2014-05-09T14:33:44Z</time>
      </trkpt>
      <trkpt lat="43.14035" lon="5.72339">
        <ele>62.622925</ele>
        <time>2014-05-09T14:33:50Z</time>
      </trkpt>
      <trkpt lat="43.14031" lon="5.72342">
        <ele>62.142334</ele>
        <time>2014-05-09T14:33:55Z</time>
      </trkpt>
      <trkpt lat="43.14026" lon="5.72348">
        <ele>61.18103</ele>
        <time>2014-05-09T14:34:01Z</time>
      </trkpt>
      <trkpt lat="43.1402" lon="5.72352">
        <ele>61.18103</ele>
        <time>2014-05-09T14:34:07Z</time>
      </trkpt>
      <trkpt lat="43.14014" lon="5.72358">
        <ele>61.18103</ele>
        <time>2014-05-09T14:34:16Z</time>
      </trkpt>
      <trkpt lat="43.14011" lon="5.72361">
        <ele>57.816528</ele>
        <time>2014-05-09T14:34:20Z</time>
      </trkpt>
      <trkpt lat="43.14005" lon="5.72362">
        <ele>57.816528</ele>
        <time>2014-05-09T14:34:26Z</time>
      </trkpt>
      <trkpt lat="43.14" lon="5.72364">
        <ele>59.258423</ele>
        <time>2014-05-09T14:34:32Z</time>
      </trkpt>
      <trkpt lat="43.13992" lon="5.72369">
        <ele>60.219727</ele>
        <time>2014-05-09T14:34:41Z</time>
      </trkpt>
      <trkpt lat="43.13986" lon="5.7237">
        <ele>61.661743</ele>
        <time>2014-05-09T14:34:48Z</time>
      </trkpt>
      <trkpt lat="43.1398" lon="5.72371">
        <ele>60.219727</ele>
        <time>2014-05-09T14:34:55Z</time>
      </trkpt>
      <trkpt lat="43.13974" lon="5.72371">
        <ele>57.816528</ele>
        <time>2014-05-09T14:35:01Z</time>
      </trkpt>
      <trkpt lat="43.13968" lon="5.72369">
        <ele>56.855103</ele>
        <time>2014-05-09T14:35:08Z</time>
      </trkpt>
      <trkpt lat="43.13963" lon="5.72368">
        <ele>56.855103</ele>
        <time>2014-05-09T14:35:14Z</time>
      </trkpt>
      <trkpt lat="43.13954" lon="5.72368">
        <ele>54.451782</ele>
        <time>2014-05-09T14:35:21Z</time>
      </trkpt>
      <trkpt lat="43.13944" lon="5.72372">
        <ele>53.009766</ele>
        <time>2014-05-09T14:35:30Z</time>
      </trkpt>
      <trkpt lat="43.13938" lon="5.72376">
        <ele>54.451782</ele>
        <time>2014-05-09T14:35:37Z</time>
      </trkpt>
      <trkpt lat="43.13933" lon="5.72379">
        <ele>56.374512</ele>
        <time>2014-05-09T14:35:43Z</time>
      </trkpt>
      <trkpt lat="43.13929" lon="5.72385">
        <ele>58.77771</ele>
        <time>2014-05-09T14:35:51Z</time>
      </trkpt>
      <trkpt lat="43.13925" lon="5.72389">
        <ele>58.297119</ele>
        <time>2014-05-09T14:35:58Z</time>
      </trkpt>
      <trkpt lat="43.13924" lon="5.72393">
        <ele>57.816528</ele>
        <time>2014-05-09T14:36:08Z</time>
      </trkpt>
      <trkpt lat="43.1392" lon="5.72397">
        <ele>57.816528</ele>
        <time>2014-05-09T14:36:14Z</time>
      </trkpt>
      <trkpt lat="43.13914" lon="5.72403">
        <ele>59.739136</ele>
        <time>2014-05-09T14:36:21Z</time>
      </trkpt>
      <trkpt lat="43.13911" lon="5.72406">
        <ele>61.18103</ele>
        <time>2014-05-09T14:36:25Z</time>
      </trkpt>
      <trkpt lat="43.13903" lon="5.72419">
        <ele>61.661743</ele>
        <time>2014-05-09T14:36:35Z</time>
      </trkpt>
      <trkpt lat="43.13897" lon="5.7243">
        <ele>61.18103</ele>
        <time>2014-05-09T14:36:44Z</time>
      </trkpt>
      <trkpt lat="43.13894" lon="5.72438">
        <ele>61.18103</ele>
        <time>2014-05-09T14:36:51Z</time>
      </trkpt>
      <trkpt lat="43.13892" lon="5.72448">
        <ele>60.219727</ele>
        <time>2014-05-09T14:36:58Z</time>
      </trkpt>
      <trkpt lat="43.13889" lon="5.72458">
        <ele>59.258423</ele>
        <time>2014-05-09T14:37:07Z</time>
      </trkpt>
      <trkpt lat="43.13887" lon="5.72465">
        <ele>57.816528</ele>
        <time>2014-05-09T14:37:13Z</time>
      </trkpt>
      <trkpt lat="43.13883" lon="5.72473">
        <ele>57.335815</ele>
        <time>2014-05-09T14:37:19Z</time>
      </trkpt>
      <trkpt lat="43.13879" lon="5.72479">
        <ele>55.893799</ele>
        <time>2014-05-09T14:37:26Z</time>
      </trkpt>
      <trkpt lat="43.13875" lon="5.72481">
        <ele>56.374512</ele>
        <time>2014-05-09T14:37:31Z</time>
      </trkpt>
      <trkpt lat="43.13869" lon="5.72479">
        <ele>57.816528</ele>
        <time>2014-05-09T14:37:39Z</time>
      </trkpt>
      <trkpt lat="43.13864" lon="5.72478">
        <ele>58.77771</ele>
        <time>2014-05-09T14:37:47Z</time>
      </trkpt>
      <trkpt lat="43.13852" lon="5.72474">
        <ele>56.374512</ele>
        <time>2014-05-09T14:38:00Z</time>
      </trkpt>
      <trkpt lat="43.13847" lon="5.72472">
        <ele>55.413086</ele>
        <time>2014-05-09T14:38:06Z</time>
      </trkpt>
      <trkpt lat="43.13838" lon="5.72473">
        <ele>51.567871</ele>
        <time>2014-05-09T14:38:14Z</time>
      </trkpt>
      <trkpt lat="43.13833" lon="5.72475">
        <ele>50.606567</ele>
        <time>2014-05-09T14:38:20Z</time>
      </trkpt>
      <trkpt lat="43.13829" lon="5.72475">
        <ele>51.087158</ele>
        <time>2014-05-09T14:38:25Z</time>
      </trkpt>
      <trkpt lat="43.13822" lon="5.72474">
        <ele>51.087158</ele>
        <time>2014-05-09T14:38:33Z</time>
      </trkpt>
      <trkpt lat="43.13816" lon="5.72474">
        <ele>49.645264</ele>
        <time>2014-05-09T14:38:40Z</time>
      </trkpt>
      <trkpt lat="43.13812" lon="5.72473">
        <ele>48.68396</ele>
        <time>2014-05-09T14:38:50Z</time>
      </trkpt>
      <trkpt lat="43.13805" lon="5.72473">
        <ele>45.799927</ele>
        <time>2014-05-09T14:39:15Z</time>
      </trkpt>
      <trkpt lat="43.13802" lon="5.72472">
        <ele>46.28064</ele>
        <time>2014-05-09T14:39:24Z</time>
      </trkpt>
      <trkpt lat="43.13799" lon="5.72472">
        <ele>46.28064</ele>
        <time>2014-05-09T14:39:31Z</time>
      </trkpt>
      <trkpt lat="43.13794" lon="5.72471">
        <ele>47.241821</ele>
        <time>2014-05-09T14:39:39Z</time>
      </trkpt>
      <trkpt lat="43.13788" lon="5.72469">
        <ele>47.722534</ele>
        <time>2014-05-09T14:39:47Z</time>
      </trkpt>
      <trkpt lat="43.13783" lon="5.7247">
        <ele>47.722534</ele>
        <time>2014-05-09T14:39:54Z</time>
      </trkpt>
      <trkpt lat="43.13778" lon="5.7247">
        <ele>46.76123</ele>
        <time>2014-05-09T14:40:00Z</time>
      </trkpt>
      <trkpt lat="43.13767" lon="5.72472">
        <ele>44.838623</ele>
        <time>2014-05-09T14:40:10Z</time>
      </trkpt>
      <trkpt lat="43.13757" lon="5.72476">
        <ele>47.241821</ele>
        <time>2014-05-09T14:40:19Z</time>
      </trkpt>
      <trkpt lat="43.13751" lon="5.72479">
        <ele>46.76123</ele>
        <time>2014-05-09T14:40:27Z</time>
      </trkpt>
      <trkpt lat="43.13745" lon="5.72481">
        <ele>46.76123</ele>
        <time>2014-05-09T14:40:33Z</time>
      </trkpt>
      <trkpt lat="43.13739" lon="5.72483">
        <ele>44.838623</ele>
        <time>2014-05-09T14:40:40Z</time>
      </trkpt>
      <trkpt lat="43.13736" lon="5.72482">
        <ele>43.877319</ele>
        <time>2014-05-09T14:40:46Z</time>
      </trkpt>
      <trkpt lat="43.13731" lon="5.72481">
        <ele>42.435425</ele>
        <time>2014-05-09T14:40:51Z</time>
      </trkpt>
      <trkpt lat="43.13721" lon="5.72477">
        <ele>40.512817</ele>
        <time>2014-05-09T14:41:00Z</time>
      </trkpt>
      <trkpt lat="43.13712" lon="5.72476">
        <ele>37.628662</ele>
        <time>2014-05-09T14:41:10Z</time>
      </trkpt>
      <trkpt lat="43.13707" lon="5.72477">
        <ele>37.628662</ele>
        <time>2014-05-09T14:41:16Z</time>
      </trkpt>
      <trkpt lat="43.137" lon="5.72477">
        <ele>38.109375</ele>
        <time>2014-05-09T14:41:24Z</time>
      </trkpt>
      <trkpt lat="43.13693" lon="5.7248">
        <ele>39.55127</ele>
        <time>2014-05-09T14:41:31Z</time>
      </trkpt>
      <trkpt lat="43.13684" lon="5.72487">
        <ele>40.512817</ele>
        <time>2014-05-09T14:41:40Z</time>
      </trkpt>
      <trkpt lat="43.13679" lon="5.72496">
        <ele>39.070679</ele>
        <time>2014-05-09T14:41:49Z</time>
      </trkpt>
      <trkpt lat="43.13676" lon="5.72504">
        <ele>37.148071</ele>
        <time>2014-05-09T14:41:57Z</time>
      </trkpt>
      <trkpt lat="43.13674" lon="5.72509">
        <ele>36.186768</ele>
        <time>2014-05-09T14:42:05Z</time>
      </trkpt>
      <trkpt lat="43.13671" lon="5.72512">
        <ele>36.66748</ele>
        <time>2014-05-09T14:42:12Z</time>
      </trkpt>
      <trkpt lat="43.13668" lon="5.72516">
        <ele>35.225464</ele>
        <time>2014-05-09T14:42:17Z</time>
      </trkpt>
      <trkpt lat="43.13666" lon="5.72516">
        <ele>35.225464</ele>
        <time>2014-05-09T14:42:19Z</time>
      </trkpt>
      <trkpt lat="43.13662" lon="5.72518">
        <ele>35.225464</ele>
        <time>2014-05-09T14:42:26Z</time>
      </trkpt>
      <trkpt lat="43.1366" lon="5.72519">
        <ele>30.418823</ele>
        <time>2014-05-09T14:43:15Z</time>
      </trkpt>
      <trkpt lat="43.13662" lon="5.7252">
        <ele>30.418823</ele>
        <time>2014-05-09T14:43:30Z</time>
      </trkpt>
      <trkpt lat="43.13661" lon="5.7252">
        <ele>29.93811</ele>
        <time>2014-05-09T14:43:42Z</time>
      </trkpt>
      <trkpt lat="43.13662" lon="5.7252">
        <ele>29.45752</ele>
        <time>2014-05-09T14:43:48Z</time>
      </trkpt>
      <trkpt lat="43.13665" lon="5.72521">
        <ele>28.015503</ele>
        <time>2014-05-09T14:43:56Z</time>
      </trkpt>
      <trkpt lat="43.13664" lon="5.72523">
        <ele>28.015503</ele>
        <time>2014-05-09T14:44:03Z</time>
      </trkpt>
      <trkpt lat="43.13663" lon="5.72525">
        <ele>27.534912</ele>
        <time>2014-05-09T14:44:12Z</time>
      </trkpt>
      <trkpt lat="43.1366" lon="5.72527">
        <ele>28.015503</ele>
        <time>2014-05-09T14:44:19Z</time>
      </trkpt>
      <trkpt lat="43.13659" lon="5.7253">
        <ele>27.534912</ele>
        <time>2014-05-09T14:44:26Z</time>
      </trkpt>
      <trkpt lat="43.1366" lon="5.72531">
        <ele>27.054321</ele>
        <time>2014-05-09T14:44:35Z</time>
      </trkpt>
      <trkpt lat="43.13658" lon="5.72533">
        <ele>27.054321</ele>
        <time>2014-05-09T14:44:45Z</time>
      </trkpt>
      <trkpt lat="43.13657" lon="5.72535">
        <ele>25.612305</ele>
        <time>2014-05-09T14:44:53Z</time>
      </trkpt>
      <trkpt lat="43.13655" lon="5.72536">
        <ele>24.651001</ele>
        <time>2014-05-09T14:45:01Z</time>
      </trkpt>
      <trkpt lat="43.13655" lon="5.72536">
        <ele>24.170288</ele>
        <time>2014-05-09T14:45:17Z</time>
      </trkpt>
      <trkpt lat="43.13655" lon="5.72537">
        <ele>24.651001</ele>
        <time>2014-05-09T14:45:28Z</time>
      </trkpt>
      <trkpt lat="43.13655" lon="5.72538">
        <ele>25.131714</ele>
        <time>2014-05-09T14:45:37Z</time>
      </trkpt>
      <trkpt lat="43.13661" lon="5.7254">
        <ele>18.883057</ele>
        <time>2014-05-09T14:45:49Z</time>
      </trkpt>
      <trkpt lat="43.13664" lon="5.72546">
        <ele>13.115112</ele>
        <time>2014-05-09T14:46:07Z</time>
      </trkpt>
      <trkpt lat="43.13661" lon="5.72546">
        <ele>11.673218</ele>
        <time>2014-05-09T14:46:21Z</time>
      </trkpt>
      <trkpt lat="43.13663" lon="5.72543">
        <ele>6.385864</ele>
        <time>2014-05-09T14:46:35Z</time>
      </trkpt>
      <trkpt lat="43.13663" lon="5.72539">
        <ele>5.424561</ele>
        <time>2014-05-09T14:46:44Z</time>
      </trkpt>
      <trkpt lat="43.13663" lon="5.72538">
        <ele>5.905273</ele>
        <time>2014-05-09T14:47:00Z</time>
      </trkpt>
      <trkpt lat="43.13662" lon="5.72536">
        <ele>9.75061</ele>
        <time>2014-05-09T14:47:11Z</time>
      </trkpt>
      <trkpt lat="43.13661" lon="5.7254">
        <ele>13.595825</ele>
        <time>2014-05-09T14:47:19Z</time>
      </trkpt>
      <trkpt lat="43.1366" lon="5.72543">
        <ele>15.999023</ele>
        <time>2014-05-09T14:47:25Z</time>
      </trkpt>
      <trkpt lat="43.1366" lon="5.72545">
        <ele>16.479736</ele>
        <time>2014-05-09T14:47:32Z</time>
      </trkpt>
      <trkpt lat="43.1366" lon="5.72549">
        <ele>17.441162</ele>
        <time>2014-05-09T14:47:38Z</time>
      </trkpt>
      <trkpt lat="43.13662" lon="5.72551">
        <ele>17.441162</ele>
        <time>2014-05-09T14:47:45Z</time>
      </trkpt>
      <trkpt lat="43.13664" lon="5.72552">
        <ele>18.402344</ele>
        <time>2014-05-09T14:47:54Z</time>
      </trkpt>
      <trkpt lat="43.13664" lon="5.72547">
        <ele>22.728271</ele>
        <time>2014-05-09T14:48:06Z</time>
      </trkpt>
      <trkpt lat="43.13661" lon="5.72552">
        <ele>21.286377</ele>
        <time>2014-05-09T14:48:13Z</time>
      </trkpt>
      <trkpt lat="43.13664" lon="5.72555">
        <ele>19.84436</ele>
        <time>2014-05-09T14:48:20Z</time>
      </trkpt>
      <trkpt lat="43.13667" lon="5.72557">
        <ele>17.441162</ele>
        <time>2014-05-09T14:48:26Z</time>
      </trkpt>
      <trkpt lat="43.1367" lon="5.72562">
        <ele>16.479736</ele>
        <time>2014-05-09T14:48:32Z</time>
      </trkpt>
      <trkpt lat="43.13674" lon="5.72564">
        <ele>15.518433</ele>
        <time>2014-05-09T14:48:38Z</time>
      </trkpt>
      <trkpt lat="43.13678" lon="5.72568">
        <ele>15.999023</ele>
        <time>2014-05-09T14:48:45Z</time>
      </trkpt>
      <trkpt lat="43.1368" lon="5.72569">
        <ele>15.999023</ele>
        <time>2014-05-09T14:48:53Z</time>
      </trkpt>
      <trkpt lat="43.13678" lon="5.7257">
        <ele>19.84436</ele>
        <time>2014-05-09T14:49:16Z</time>
      </trkpt>
      <trkpt lat="43.1368" lon="5.72571">
        <ele>15.518433</ele>
        <time>2014-05-09T14:49:28Z</time>
      </trkpt>
      <trkpt lat="43.1368" lon="5.72576">
        <ele>12.634399</ele>
        <time>2014-05-09T14:49:35Z</time>
      </trkpt>
      <trkpt lat="43.13682" lon="5.72579">
        <ele>11.673218</ele>
        <time>2014-05-09T14:49:41Z</time>
      </trkpt>
      <trkpt lat="43.13683" lon="5.72582">
        <ele>9.75061</ele>
        <time>2014-05-09T14:49:47Z</time>
      </trkpt>
      <trkpt lat="43.13688" lon="5.72594">
        <ele>4.943848</ele>
        <time>2014-05-09T14:49:56Z</time>
      </trkpt>
      <trkpt lat="43.13692" lon="5.72604">
        <ele>2.060059</ele>
        <time>2014-05-09T14:50:03Z</time>
      </trkpt>
      <trkpt lat="43.13696" lon="5.72616">
        <ele>-0.824097</ele>
        <time>2014-05-09T14:50:12Z</time>
      </trkpt>
      <trkpt lat="43.137" lon="5.72625">
        <ele>-2.265991</ele>
        <time>2014-05-09T14:50:20Z</time>
      </trkpt>
      <trkpt lat="43.13703" lon="5.72634">
        <ele>-2.746704</ele>
        <time>2014-05-09T14:50:27Z</time>
      </trkpt>
      <trkpt lat="43.13707" lon="5.7264">
        <ele>-1.304688</ele>
        <time>2014-05-09T14:50:37Z</time>
      </trkpt>
      <trkpt lat="43.13707" lon="5.72645">
        <ele>1.098633</ele>
        <time>2014-05-09T14:50:46Z</time>
      </trkpt>
      <trkpt lat="43.13705" lon="5.72649">
        <ele>7.347168</ele>
        <time>2014-05-09T14:50:53Z</time>
      </trkpt>
      <trkpt lat="43.13704" lon="5.72654">
        <ele>12.153809</ele>
        <time>2014-05-09T14:51:01Z</time>
      </trkpt>
      <trkpt lat="43.13704" lon="5.72657">
        <ele>12.634399</ele>
        <time>2014-05-09T14:51:05Z</time>
      </trkpt>
      <trkpt lat="43.13698" lon="5.72661">
        <ele>20.324951</ele>
        <time>2014-05-09T14:51:15Z</time>
      </trkpt>
      <trkpt lat="43.13692" lon="5.72667">
        <ele>22.728271</ele>
        <time>2014-05-09T14:51:24Z</time>
      </trkpt>
      <trkpt lat="43.1369" lon="5.72673">
        <ele>23.208984</ele>
        <time>2014-05-09T14:51:28Z</time>
      </trkpt>
      <trkpt lat="43.13688" lon="5.72678">
        <ele>22.728271</ele>
        <time>2014-05-09T14:51:32Z</time>
      </trkpt>
      <trkpt lat="43.13686" lon="5.72683">
        <ele>22.728271</ele>
        <time>2014-05-09T14:51:36Z</time>
      </trkpt>
      <trkpt lat="43.13683" lon="5.7269">
        <ele>24.651001</ele>
        <time>2014-05-09T14:51:42Z</time>
      </trkpt>
      <trkpt lat="43.1368" lon="5.72693">
        <ele>25.612305</ele>
        <time>2014-05-09T14:51:46Z</time>
      </trkpt>
      <trkpt lat="43.13677" lon="5.72698">
        <ele>27.054321</ele>
        <time>2014-05-09T14:51:51Z</time>
      </trkpt>
      <trkpt lat="43.13674" lon="5.72702">
        <ele>28.976929</ele>
        <time>2014-05-09T14:51:55Z</time>
      </trkpt>
      <trkpt lat="43.13668" lon="5.72705">
        <ele>34.26416</ele>
        <time>2014-05-09T14:52:01Z</time>
      </trkpt>
      <trkpt lat="43.13664" lon="5.72707">
        <ele>36.66748</ele>
        <time>2014-05-09T14:52:06Z</time>
      </trkpt>
      <trkpt lat="43.13659" lon="5.72708">
        <ele>40.993408</ele>
        <time>2014-05-09T14:52:10Z</time>
      </trkpt>
      <trkpt lat="43.13653" lon="5.7271">
        <ele>43.396606</ele>
        <time>2014-05-09T14:52:16Z</time>
      </trkpt>
      <trkpt lat="43.13645" lon="5.72714">
        <ele>47.241821</ele>
        <time>2014-05-09T14:52:24Z</time>
      </trkpt>
      <trkpt lat="43.13643" lon="5.72714">
        <ele>47.241821</ele>
        <time>2014-05-09T14:52:26Z</time>
      </trkpt>
      <trkpt lat="43.13635" lon="5.72718">
        <ele>46.76123</ele>
        <time>2014-05-09T14:52:33Z</time>
      </trkpt>
      <trkpt lat="43.13632" lon="5.72721">
        <ele>45.319214</ele>
        <time>2014-05-09T14:52:37Z</time>
      </trkpt>
      <trkpt lat="43.13629" lon="5.72733">
        <ele>40.032104</ele>
        <time>2014-05-09T14:52:47Z</time>
      </trkpt>
      <trkpt lat="43.13626" lon="5.72738">
        <ele>40.032104</ele>
        <time>2014-05-09T14:52:53Z</time>
      </trkpt>
      <trkpt lat="43.13623" lon="5.72742">
        <ele>44.838623</ele>
        <time>2014-05-09T14:52:59Z</time>
      </trkpt>
      <trkpt lat="43.13622" lon="5.72746">
        <ele>43.877319</ele>
        <time>2014-05-09T14:53:05Z</time>
      </trkpt>
      <trkpt lat="43.13622" lon="5.72753">
        <ele>37.148071</ele>
        <time>2014-05-09T14:53:12Z</time>
      </trkpt>
      <trkpt lat="43.13619" lon="5.72758">
        <ele>35.706055</ele>
        <time>2014-05-09T14:53:19Z</time>
      </trkpt>
      <trkpt lat="43.13615" lon="5.72763">
        <ele>36.186768</ele>
        <time>2014-05-09T14:53:26Z</time>
      </trkpt>
      <trkpt lat="43.1361" lon="5.72768">
        <ele>40.032104</ele>
        <time>2014-05-09T14:53:34Z</time>
      </trkpt>
      <trkpt lat="43.13607" lon="5.72771">
        <ele>40.993408</ele>
        <time>2014-05-09T14:53:39Z</time>
      </trkpt>
      <trkpt lat="43.13601" lon="5.72774">
        <ele>42.435425</ele>
        <time>2014-05-09T14:53:45Z</time>
      </trkpt>
      <trkpt lat="43.136" lon="5.72772">
        <ele>41.954712</ele>
        <time>2014-05-09T14:53:51Z</time>
      </trkpt>
      <trkpt lat="43.136" lon="5.72772">
        <ele>40.032104</ele>
        <time>2014-05-09T14:54:02Z</time>
      </trkpt>
      <trkpt lat="43.13602" lon="5.72771">
        <ele>39.55127</ele>
        <time>2014-05-09T14:54:14Z</time>
      </trkpt>
      <trkpt lat="43.13603" lon="5.72771">
        <ele>36.186768</ele>
        <time>2014-05-09T14:54:24Z</time>
      </trkpt>
      <trkpt lat="43.136" lon="5.72774">
        <ele>32.822266</ele>
        <time>2014-05-09T14:54:58Z</time>
      </trkpt>
      <trkpt lat="43.13599" lon="5.72778">
        <ele>34.26416</ele>
        <time>2014-05-09T14:55:03Z</time>
      </trkpt>
      <trkpt lat="43.13595" lon="5.72784">
        <ele>37.148071</ele>
        <time>2014-05-09T14:55:10Z</time>
      </trkpt>
      <trkpt lat="43.13593" lon="5.72788">
        <ele>40.993408</ele>
        <time>2014-05-09T14:55:16Z</time>
      </trkpt>
      <trkpt lat="43.13591" lon="5.72791">
        <ele>43.396606</ele>
        <time>2014-05-09T14:55:22Z</time>
      </trkpt>
      <trkpt lat="43.13586" lon="5.72791">
        <ele>48.68396</ele>
        <time>2014-05-09T14:55:32Z</time>
      </trkpt>
      <trkpt lat="43.13583" lon="5.72793">
        <ele>50.125977</ele>
        <time>2014-05-09T14:55:39Z</time>
      </trkpt>
      <trkpt lat="43.1358" lon="5.728">
        <ele>49.164551</ele>
        <time>2014-05-09T14:55:46Z</time>
      </trkpt>
      <trkpt lat="43.13576" lon="5.72805">
        <ele>52.048584</ele>
        <time>2014-05-09T14:55:56Z</time>
      </trkpt>
      <trkpt lat="43.13573" lon="5.72812">
        <ele>53.009766</ele>
        <time>2014-05-09T14:56:04Z</time>
      </trkpt>
      <trkpt lat="43.13569" lon="5.72818">
        <ele>52.529175</ele>
        <time>2014-05-09T14:56:12Z</time>
      </trkpt>
      <trkpt lat="43.13567" lon="5.72825">
        <ele>52.529175</ele>
        <time>2014-05-09T14:56:19Z</time>
      </trkpt>
      <trkpt lat="43.13564" lon="5.72832">
        <ele>52.048584</ele>
        <time>2014-05-09T14:56:26Z</time>
      </trkpt>
      <trkpt lat="43.13564" lon="5.72841">
        <ele>52.529175</ele>
        <time>2014-05-09T14:56:33Z</time>
      </trkpt>
      <trkpt lat="43.13567" lon="5.72847">
        <ele>43.396606</ele>
        <time>2014-05-09T14:56:41Z</time>
      </trkpt>
      <trkpt lat="43.1357" lon="5.72851">
        <ele>34.744873</ele>
        <time>2014-05-09T14:56:58Z</time>
      </trkpt>
      <trkpt lat="43.1357" lon="5.72856">
        <ele>35.706055</ele>
        <time>2014-05-09T14:57:04Z</time>
      </trkpt>
      <trkpt lat="43.13567" lon="5.72865">
        <ele>37.628662</ele>
        <time>2014-05-09T14:57:11Z</time>
      </trkpt>
      <trkpt lat="43.13566" lon="5.72869">
        <ele>38.109375</ele>
        <time>2014-05-09T14:57:14Z</time>
      </trkpt>
      <trkpt lat="43.13565" lon="5.72879">
        <ele>37.148071</ele>
        <time>2014-05-09T14:57:22Z</time>
      </trkpt>
      <trkpt lat="43.13565" lon="5.72889">
        <ele>37.148071</ele>
        <time>2014-05-09T14:57:31Z</time>
      </trkpt>
      <trkpt lat="43.13564" lon="5.729">
        <ele>38.590088</ele>
        <time>2014-05-09T14:57:40Z</time>
      </trkpt>
      <trkpt lat="43.13566" lon="5.72906">
        <ele>32.822266</ele>
        <time>2014-05-09T14:57:46Z</time>
      </trkpt>
      <trkpt lat="43.1357" lon="5.72918">
        <ele>30.418823</ele>
        <time>2014-05-09T14:57:55Z</time>
      </trkpt>
      <trkpt lat="43.13575" lon="5.7292">
        <ele>30.899536</ele>
        <time>2014-05-09T14:58:02Z</time>
      </trkpt>
      <trkpt lat="43.13581" lon="5.72922">
        <ele>30.418823</ele>
        <time>2014-05-09T14:58:10Z</time>
      </trkpt>
      <trkpt lat="43.13586" lon="5.72923">
        <ele>28.496216</ele>
        <time>2014-05-09T14:58:18Z</time>
      </trkpt>
      <trkpt lat="43.1359" lon="5.72924">
        <ele>28.496216</ele>
        <time>2014-05-09T14:58:27Z</time>
      </trkpt>
      <trkpt lat="43.13593" lon="5.72927">
        <ele>31.380127</ele>
        <time>2014-05-09T14:58:41Z</time>
      </trkpt>
      <trkpt lat="43.13596" lon="5.72931">
        <ele>33.783447</ele>
        <time>2014-05-09T14:58:49Z</time>
      </trkpt>
      <trkpt lat="43.13598" lon="5.72932">
        <ele>36.66748</ele>
        <time>2014-05-09T14:58:54Z</time>
      </trkpt>
      <trkpt lat="43.136" lon="5.72931">
        <ele>37.148071</ele>
        <time>2014-05-09T14:58:59Z</time>
      </trkpt>
      <trkpt lat="43.13604" lon="5.72932">
        <ele>39.070679</ele>
        <time>2014-05-09T14:59:07Z</time>
      </trkpt>
      <trkpt lat="43.13608" lon="5.72933">
        <ele>38.590088</ele>
        <time>2014-05-09T14:59:12Z</time>
      </trkpt>
      <trkpt lat="43.13617" lon="5.72934">
        <ele>34.26416</ele>
        <time>2014-05-09T14:59:24Z</time>
      </trkpt>
      <trkpt lat="43.13623" lon="5.72936">
        <ele>28.976929</ele>
        <time>2014-05-09T14:59:43Z</time>
      </trkpt>
      <trkpt lat="43.13623" lon="5.72936">
        <ele>29.45752</ele>
        <time>2014-05-09T14:59:52Z</time>
      </trkpt>
      <trkpt lat="43.13624" lon="5.72942">
        <ele>34.26416</ele>
        <time>2014-05-09T15:00:04Z</time>
      </trkpt>
      <trkpt lat="43.13627" lon="5.72944">
        <ele>34.744873</ele>
        <time>2014-05-09T15:00:11Z</time>
      </trkpt>
      <trkpt lat="43.1363" lon="5.72945">
        <ele>36.66748</ele>
        <time>2014-05-09T15:00:15Z</time>
      </trkpt>
      <trkpt lat="43.13635" lon="5.72948">
        <ele>38.590088</ele>
        <time>2014-05-09T15:00:23Z</time>
      </trkpt>
      <trkpt lat="43.13637" lon="5.7295">
        <ele>40.032104</ele>
        <time>2014-05-09T15:00:29Z</time>
      </trkpt>
      <trkpt lat="43.1364" lon="5.7296">
        <ele>41.473999</ele>
        <time>2014-05-09T15:00:38Z</time>
      </trkpt>
      <trkpt lat="43.13644" lon="5.72968">
        <ele>32.822266</ele>
        <time>2014-05-09T15:00:47Z</time>
      </trkpt>
      <trkpt lat="43.13645" lon="5.72974">
        <ele>30.418823</ele>
        <time>2014-05-09T15:00:54Z</time>
      </trkpt>
      <trkpt lat="43.13644" lon="5.72984">
        <ele>32.822266</ele>
        <time>2014-05-09T15:01:01Z</time>
      </trkpt>
      <trkpt lat="43.13641" lon="5.72987">
        <ele>35.225464</ele>
        <time>2014-05-09T15:01:06Z</time>
      </trkpt>
      <trkpt lat="43.13637" lon="5.72992">
        <ele>36.66748</ele>
        <time>2014-05-09T15:01:13Z</time>
      </trkpt>
      <trkpt lat="43.13632" lon="5.73003">
        <ele>38.590088</ele>
        <time>2014-05-09T15:01:22Z</time>
      </trkpt>
      <trkpt lat="43.13631" lon="5.73012">
        <ele>38.109375</ele>
        <time>2014-05-09T15:01:30Z</time>
      </trkpt>
      <trkpt lat="43.13628" lon="5.73018">
        <ele>45.319214</ele>
        <time>2014-05-09T15:01:37Z</time>
      </trkpt>
      <trkpt lat="43.13628" lon="5.7302">
        <ele>43.877319</ele>
        <time>2014-05-09T15:01:39Z</time>
      </trkpt>
      <trkpt lat="43.13623" lon="5.7303">
        <ele>49.164551</ele>
        <time>2014-05-09T15:01:46Z</time>
      </trkpt>
      <trkpt lat="43.13622" lon="5.7304">
        <ele>52.048584</ele>
        <time>2014-05-09T15:01:54Z</time>
      </trkpt>
      <trkpt lat="43.13619" lon="5.73047">
        <ele>57.816528</ele>
        <time>2014-05-09T15:02:01Z</time>
      </trkpt>
      <trkpt lat="43.13618" lon="5.73053">
        <ele>59.739136</ele>
        <time>2014-05-09T15:02:08Z</time>
      </trkpt>
      <trkpt lat="43.13615" lon="5.73062">
        <ele>66.468262</ele>
        <time>2014-05-09T15:02:16Z</time>
      </trkpt>
      <trkpt lat="43.13614" lon="5.73073">
        <ele>69.832886</ele>
        <time>2014-05-09T15:02:25Z</time>
      </trkpt>
      <trkpt lat="43.13613" lon="5.73085">
        <ele>73.197632</ele>
        <time>2014-05-09T15:02:33Z</time>
      </trkpt>
      <trkpt lat="43.13619" lon="5.73103">
        <ele>58.77771</ele>
        <time>2014-05-09T15:02:42Z</time>
      </trkpt>
      <trkpt lat="43.13618" lon="5.73112">
        <ele>58.297119</ele>
        <time>2014-05-09T15:02:49Z</time>
      </trkpt>
      <trkpt lat="43.13621" lon="5.73121">
        <ele>55.413086</ele>
        <time>2014-05-09T15:02:57Z</time>
      </trkpt>
      <trkpt lat="43.13626" lon="5.73132">
        <ele>51.087158</ele>
        <time>2014-05-09T15:03:05Z</time>
      </trkpt>
      <trkpt lat="43.13634" lon="5.73143">
        <ele>40.993408</ele>
        <time>2014-05-09T15:03:12Z</time>
      </trkpt>
      <trkpt lat="43.13638" lon="5.73151">
        <ele>38.590088</ele>
        <time>2014-05-09T15:03:17Z</time>
      </trkpt>
      <trkpt lat="43.13644" lon="5.73165">
        <ele>33.783447</ele>
        <time>2014-05-09T15:03:26Z</time>
      </trkpt>
      <trkpt lat="43.13644" lon="5.73168">
        <ele>33.302856</ele>
        <time>2014-05-09T15:03:28Z</time>
      </trkpt>
      <trkpt lat="43.13643" lon="5.73174">
        <ele>32.822266</ele>
        <time>2014-05-09T15:03:32Z</time>
      </trkpt>
      <trkpt lat="43.13644" lon="5.73177">
        <ele>31.860718</ele>
        <time>2014-05-09T15:03:34Z</time>
      </trkpt>
      <trkpt lat="43.13649" lon="5.7319">
        <ele>28.976929</ele>
        <time>2014-05-09T15:03:43Z</time>
      </trkpt>
      <trkpt lat="43.13649" lon="5.73199">
        <ele>27.534912</ele>
        <time>2014-05-09T15:03:51Z</time>
      </trkpt>
      <trkpt lat="43.1365" lon="5.73207">
        <ele>26.573608</ele>
        <time>2014-05-09T15:03:58Z</time>
      </trkpt>
      <trkpt lat="43.13651" lon="5.73212">
        <ele>26.092896</ele>
        <time>2014-05-09T15:04:05Z</time>
      </trkpt>
      <trkpt lat="43.1365" lon="5.73228">
        <ele>24.170288</ele>
        <time>2014-05-09T15:04:17Z</time>
      </trkpt>
      <trkpt lat="43.1365" lon="5.7324">
        <ele>24.170288</ele>
        <time>2014-05-09T15:04:26Z</time>
      </trkpt>
      <trkpt lat="43.13651" lon="5.73249">
        <ele>24.651001</ele>
        <time>2014-05-09T15:04:33Z</time>
      </trkpt>
      <trkpt lat="43.13652" lon="5.7326">
        <ele>23.689575</ele>
        <time>2014-05-09T15:04:41Z</time>
      </trkpt>
      <trkpt lat="43.13651" lon="5.73267">
        <ele>26.092896</ele>
        <time>2014-05-09T15:04:47Z</time>
      </trkpt>
      <trkpt lat="43.1365" lon="5.73274">
        <ele>24.651001</ele>
        <time>2014-05-09T15:04:52Z</time>
      </trkpt>
      <trkpt lat="43.13653" lon="5.7329">
        <ele>28.496216</ele>
        <time>2014-05-09T15:05:04Z</time>
      </trkpt>
      <trkpt lat="43.13658" lon="5.73303">
        <ele>30.418823</ele>
        <time>2014-05-09T15:05:14Z</time>
      </trkpt>
      <trkpt lat="43.13663" lon="5.73313">
        <ele>30.899536</ele>
        <time>2014-05-09T15:05:23Z</time>
      </trkpt>
      <trkpt lat="43.13666" lon="5.73325">
        <ele>29.93811</ele>
        <time>2014-05-09T15:05:32Z</time>
      </trkpt>
      <trkpt lat="43.13666" lon="5.73328">
        <ele>27.534912</ele>
        <time>2014-05-09T15:05:37Z</time>
      </trkpt>
      <trkpt lat="43.13668" lon="5.73332">
        <ele>25.131714</ele>
        <time>2014-05-09T15:05:45Z</time>
      </trkpt>
      <trkpt lat="43.1367" lon="5.73335">
        <ele>22.728271</ele>
        <time>2014-05-09T15:06:15Z</time>
      </trkpt>
      <trkpt lat="43.13673" lon="5.73336">
        <ele>22.728271</ele>
        <time>2014-05-09T15:06:29Z</time>
      </trkpt>
      <trkpt lat="43.13674" lon="5.73337">
        <ele>24.170288</ele>
        <time>2014-05-09T15:06:41Z</time>
      </trkpt>
      <trkpt lat="43.1367" lon="5.73334">
        <ele>23.689575</ele>
        <time>2014-05-09T15:07:10Z</time>
      </trkpt>
      <trkpt lat="43.13669" lon="5.73335">
        <ele>23.689575</ele>
        <time>2014-05-09T15:07:27Z</time>
      </trkpt>
      <trkpt lat="43.13671" lon="5.73341">
        <ele>19.36377</ele>
        <time>2014-05-09T15:08:04Z</time>
      </trkpt>
      <trkpt lat="43.13671" lon="5.73348">
        <ele>19.36377</ele>
        <time>2014-05-09T15:08:10Z</time>
      </trkpt>
      <trkpt lat="43.13667" lon="5.73359">
        <ele>25.612305</ele>
        <time>2014-05-09T15:08:19Z</time>
      </trkpt>
      <trkpt lat="43.13665" lon="5.73371">
        <ele>22.247559</ele>
        <time>2014-05-09T15:08:29Z</time>
      </trkpt>
      <trkpt lat="43.13666" lon="5.73377">
        <ele>22.247559</ele>
        <time>2014-05-09T15:08:36Z</time>
      </trkpt>
      <trkpt lat="43.13663" lon="5.73387">
        <ele>25.612305</ele>
        <time>2014-05-09T15:08:44Z</time>
      </trkpt>
      <trkpt lat="43.1366" lon="5.73395">
        <ele>30.899536</ele>
        <time>2014-05-09T15:08:51Z</time>
      </trkpt>
      <trkpt lat="43.13659" lon="5.73401">
        <ele>29.93811</ele>
        <time>2014-05-09T15:08:57Z</time>
      </trkpt>
      <trkpt lat="43.13658" lon="5.73409">
        <ele>28.976929</ele>
        <time>2014-05-09T15:09:05Z</time>
      </trkpt>
      <trkpt lat="43.13656" lon="5.73416">
        <ele>29.45752</ele>
        <time>2014-05-09T15:09:11Z</time>
      </trkpt>
      <trkpt lat="43.13655" lon="5.73425">
        <ele>28.015503</ele>
        <time>2014-05-09T15:09:18Z</time>
      </trkpt>
      <trkpt lat="43.13654" lon="5.73432">
        <ele>29.45752</ele>
        <time>2014-05-09T15:09:25Z</time>
      </trkpt>
      <trkpt lat="43.13649" lon="5.7344">
        <ele>33.783447</ele>
        <time>2014-05-09T15:09:34Z</time>
      </trkpt>
      <trkpt lat="43.13647" lon="5.73449">
        <ele>33.302856</ele>
        <time>2014-05-09T15:09:44Z</time>
      </trkpt>
      <trkpt lat="43.13646" lon="5.7346">
        <ele>28.976929</ele>
        <time>2014-05-09T15:09:51Z</time>
      </trkpt>
      <trkpt lat="43.13647" lon="5.73471">
        <ele>22.728271</ele>
        <time>2014-05-09T15:09:58Z</time>
      </trkpt>
      <trkpt lat="43.13647" lon="5.73478">
        <ele>18.402344</ele>
        <time>2014-05-09T15:10:03Z</time>
      </trkpt>
      <trkpt lat="43.13644" lon="5.73483">
        <ele>19.36377</ele>
        <time>2014-05-09T15:10:09Z</time>
      </trkpt>
      <trkpt lat="43.1364" lon="5.73488">
        <ele>20.324951</ele>
        <time>2014-05-09T15:10:16Z</time>
      </trkpt>
      <trkpt lat="43.1364" lon="5.73493">
        <ele>16.960449</ele>
        <time>2014-05-09T15:10:21Z</time>
      </trkpt>
      <trkpt lat="43.13638" lon="5.735">
        <ele>15.999023</ele>
        <time>2014-05-09T15:10:28Z</time>
      </trkpt>
      <trkpt lat="43.13635" lon="5.73505">
        <ele>17.441162</ele>
        <time>2014-05-09T15:10:33Z</time>
      </trkpt>
      <trkpt lat="43.13628" lon="5.73517">
        <ele>24.170288</ele>
        <time>2014-05-09T15:10:41Z</time>
      </trkpt>
      <trkpt lat="43.13624" lon="5.73527">
        <ele>25.612305</ele>
        <time>2014-05-09T15:10:50Z</time>
      </trkpt>
      <trkpt lat="43.13623" lon="5.73535">
        <ele>19.84436</ele>
        <time>2014-05-09T15:10:58Z</time>
      </trkpt>
      <trkpt lat="43.13623" lon="5.73543">
        <ele>19.36377</ele>
        <time>2014-05-09T15:11:04Z</time>
      </trkpt>
      <trkpt lat="43.13622" lon="5.73555">
        <ele>22.728271</ele>
        <time>2014-05-09T15:11:13Z</time>
      </trkpt>
      <trkpt lat="43.13622" lon="5.73568">
        <ele>28.976929</ele>
        <time>2014-05-09T15:11:22Z</time>
      </trkpt>
      <trkpt lat="43.13624" lon="5.73582">
        <ele>25.131714</ele>
        <time>2014-05-09T15:11:32Z</time>
      </trkpt>
      <trkpt lat="43.13625" lon="5.73595">
        <ele>20.805664</ele>
        <time>2014-05-09T15:11:41Z</time>
      </trkpt>
      <trkpt lat="43.13625" lon="5.73605">
        <ele>18.883057</ele>
        <time>2014-05-09T15:11:48Z</time>
      </trkpt>
      <trkpt lat="43.13624" lon="5.73613">
        <ele>20.805664</ele>
        <time>2014-05-09T15:11:54Z</time>
      </trkpt>
      <trkpt lat="43.13622" lon="5.73623">
        <ele>27.534912</ele>
        <time>2014-05-09T15:12:03Z</time>
      </trkpt>
      <trkpt lat="43.1362" lon="5.73632">
        <ele>31.860718</ele>
        <time>2014-05-09T15:12:09Z</time>
      </trkpt>
      <trkpt lat="43.13622" lon="5.73648">
        <ele>28.015503</ele>
        <time>2014-05-09T15:12:20Z</time>
      </trkpt>
      <trkpt lat="43.13623" lon="5.73651">
        <ele>26.092896</ele>
        <time>2014-05-09T15:12:22Z</time>
      </trkpt>
      <trkpt lat="43.13628" lon="5.73667">
        <ele>20.324951</ele>
        <time>2014-05-09T15:12:33Z</time>
      </trkpt>
      <trkpt lat="43.13632" lon="5.73679">
        <ele>18.883057</ele>
        <time>2014-05-09T15:12:42Z</time>
      </trkpt>
      <trkpt lat="43.13635" lon="5.73691">
        <ele>17.921753</ele>
        <time>2014-05-09T15:12:51Z</time>
      </trkpt>
      <trkpt lat="43.13637" lon="5.73703">
        <ele>15.518433</ele>
        <time>2014-05-09T15:13:00Z</time>
      </trkpt>
      <trkpt lat="43.13636" lon="5.73713">
        <ele>19.84436</ele>
        <time>2014-05-09T15:13:09Z</time>
      </trkpt>
      <trkpt lat="43.13635" lon="5.73723">
        <ele>15.03772</ele>
        <time>2014-05-09T15:13:17Z</time>
      </trkpt>
      <trkpt lat="43.13634" lon="5.73732">
        <ele>11.192505</ele>
        <time>2014-05-09T15:13:26Z</time>
      </trkpt>
      <trkpt lat="43.13633" lon="5.73741">
        <ele>11.192505</ele>
        <time>2014-05-09T15:13:34Z</time>
      </trkpt>
      <trkpt lat="43.1363" lon="5.7375">
        <ele>7.347168</ele>
        <time>2014-05-09T15:13:43Z</time>
      </trkpt>
      <trkpt lat="43.13626" lon="5.73759">
        <ele>5.424561</ele>
        <time>2014-05-09T15:13:52Z</time>
      </trkpt>
      <trkpt lat="43.13623" lon="5.73763">
        <ele>4.463257</ele>
        <time>2014-05-09T15:13:58Z</time>
      </trkpt>
      <trkpt lat="43.1362" lon="5.73766">
        <ele>3.982666</ele>
        <time>2014-05-09T15:14:04Z</time>
      </trkpt>
      <trkpt lat="43.13614" lon="5.73771">
        <ele>1.579346</ele>
        <time>2014-05-09T15:14:11Z</time>
      </trkpt>
      <trkpt lat="43.13609" lon="5.73778">
        <ele>1.098633</ele>
        <time>2014-05-09T15:14:19Z</time>
      </trkpt>
      <trkpt lat="43.13604" lon="5.73782">
        <ele>0.137451</ele>
        <time>2014-05-09T15:14:25Z</time>
      </trkpt>
      <trkpt lat="43.13597" lon="5.73791">
        <ele>0.137451</ele>
        <time>2014-05-09T15:14:35Z</time>
      </trkpt>
      <trkpt lat="43.13593" lon="5.73798">
        <ele>0.137451</ele>
        <time>2014-05-09T15:14:41Z</time>
      </trkpt>
      <trkpt lat="43.1359" lon="5.73805">
        <ele>2.060059</ele>
        <time>2014-05-09T15:14:48Z</time>
      </trkpt>
      <trkpt lat="43.13589" lon="5.73812">
        <ele>3.02124</ele>
        <time>2014-05-09T15:14:56Z</time>
      </trkpt>
      <trkpt lat="43.13584" lon="5.7382">
        <ele>1.579346</ele>
        <time>2014-05-09T15:15:05Z</time>
      </trkpt>
      <trkpt lat="43.13582" lon="5.73826">
        <ele>4.463257</ele>
        <time>2014-05-09T15:15:10Z</time>
      </trkpt>
      <trkpt lat="43.13579" lon="5.73835">
        <ele>4.943848</ele>
        <time>2014-05-09T15:15:16Z</time>
      </trkpt>
      <trkpt lat="43.13574" lon="5.73846">
        <ele>4.463257</ele>
        <time>2014-05-09T15:15:26Z</time>
      </trkpt>
      <trkpt lat="43.1357" lon="5.73854">
        <ele>7.827881</ele>
        <time>2014-05-09T15:15:33Z</time>
      </trkpt>
      <trkpt lat="43.13564" lon="5.73863">
        <ele>11.673218</ele>
        <time>2014-05-09T15:15:41Z</time>
      </trkpt>
      <trkpt lat="43.13562" lon="5.73872">
        <ele>12.634399</ele>
        <time>2014-05-09T15:15:48Z</time>
      </trkpt>
      <trkpt lat="43.13559" lon="5.73875">
        <ele>9.75061</ele>
        <time>2014-05-09T15:15:53Z</time>
      </trkpt>
      <trkpt lat="43.13553" lon="5.73872">
        <ele>8.789185</ele>
        <time>2014-05-09T15:16:01Z</time>
      </trkpt>
      <trkpt lat="43.13548" lon="5.7387">
        <ele>10.711792</ele>
        <time>2014-05-09T15:16:09Z</time>
      </trkpt>
      <trkpt lat="43.1354" lon="5.73868">
        <ele>8.308594</ele>
        <time>2014-05-09T15:16:19Z</time>
      </trkpt>
      <trkpt lat="43.13537" lon="5.73866">
        <ele>9.269897</ele>
        <time>2014-05-09T15:16:25Z</time>
      </trkpt>
      <trkpt lat="43.13532" lon="5.73865">
        <ele>9.269897</ele>
        <time>2014-05-09T15:16:30Z</time>
      </trkpt>
      <trkpt lat="43.13523" lon="5.73863">
        <ele>14.557007</ele>
        <time>2014-05-09T15:16:38Z</time>
      </trkpt>
      <trkpt lat="43.13516" lon="5.73862">
        <ele>16.960449</ele>
        <time>2014-05-09T15:16:45Z</time>
      </trkpt>
      <trkpt lat="43.13509" lon="5.73862">
        <ele>21.766968</ele>
        <time>2014-05-09T15:16:51Z</time>
      </trkpt>
      <trkpt lat="43.13501" lon="5.73866">
        <ele>22.247559</ele>
        <time>2014-05-09T15:16:59Z</time>
      </trkpt>
      <trkpt lat="43.13496" lon="5.73868">
        <ele>20.805664</ele>
        <time>2014-05-09T15:17:07Z</time>
      </trkpt>
      <trkpt lat="43.13494" lon="5.73869">
        <ele>15.999023</ele>
        <time>2014-05-09T15:17:13Z</time>
      </trkpt>
      <trkpt lat="43.13487" lon="5.73876">
        <ele>14.557007</ele>
        <time>2014-05-09T15:17:22Z</time>
      </trkpt>
      <trkpt lat="43.13481" lon="5.73881">
        <ele>16.479736</ele>
        <time>2014-05-09T15:17:29Z</time>
      </trkpt>
      <trkpt lat="43.13473" lon="5.73888">
        <ele>13.595825</ele>
        <time>2014-05-09T15:17:36Z</time>
      </trkpt>
      <trkpt lat="43.13471" lon="5.7389">
        <ele>13.115112</ele>
        <time>2014-05-09T15:17:38Z</time>
      </trkpt>
      <trkpt lat="43.13465" lon="5.73904">
        <ele>14.076416</ele>
        <time>2014-05-09T15:17:48Z</time>
      </trkpt>
      <trkpt lat="43.13466" lon="5.73918">
        <ele>14.557007</ele>
        <time>2014-05-09T15:17:58Z</time>
      </trkpt>
      <trkpt lat="43.13464" lon="5.73924">
        <ele>23.208984</ele>
        <time>2014-05-09T15:18:05Z</time>
      </trkpt>
      <trkpt lat="43.13463" lon="5.73928">
        <ele>25.131714</ele>
        <time>2014-05-09T15:18:09Z</time>
      </trkpt>
      <trkpt lat="43.13464" lon="5.7394">
        <ele>21.286377</ele>
        <time>2014-05-09T15:18:17Z</time>
      </trkpt>
      <trkpt lat="43.13462" lon="5.73951">
        <ele>25.131714</ele>
        <time>2014-05-09T15:18:26Z</time>
      </trkpt>
      <trkpt lat="43.13461" lon="5.73958">
        <ele>23.208984</ele>
        <time>2014-05-09T15:18:34Z</time>
      </trkpt>
      <trkpt lat="43.13461" lon="5.73969">
        <ele>19.36377</ele>
        <time>2014-05-09T15:18:43Z</time>
      </trkpt>
      <trkpt lat="43.1346" lon="5.73978">
        <ele>18.883057</ele>
        <time>2014-05-09T15:18:51Z</time>
      </trkpt>
      <trkpt lat="43.13456" lon="5.73993">
        <ele>21.766968</ele>
        <time>2014-05-09T15:19:01Z</time>
      </trkpt>
      <trkpt lat="43.13453" lon="5.74002">
        <ele>16.960449</ele>
        <time>2014-05-09T15:19:08Z</time>
      </trkpt>
      <trkpt lat="43.13454" lon="5.74016">
        <ele>14.076416</ele>
        <time>2014-05-09T15:19:18Z</time>
      </trkpt>
      <trkpt lat="43.13452" lon="5.74027">
        <ele>11.192505</ele>
        <time>2014-05-09T15:19:26Z</time>
      </trkpt>
      <trkpt lat="43.13448" lon="5.74035">
        <ele>12.634399</ele>
        <time>2014-05-09T15:19:34Z</time>
      </trkpt>
      <trkpt lat="43.13445" lon="5.74042">
        <ele>11.673218</ele>
        <time>2014-05-09T15:19:41Z</time>
      </trkpt>
      <trkpt lat="43.13443" lon="5.74046">
        <ele>8.308594</ele>
        <time>2014-05-09T15:19:49Z</time>
      </trkpt>
      <trkpt lat="43.13436" lon="5.74051">
        <ele>7.347168</ele>
        <time>2014-05-09T15:19:57Z</time>
      </trkpt>
      <trkpt lat="43.13431" lon="5.74056">
        <ele>7.827881</ele>
        <time>2014-05-09T15:20:04Z</time>
      </trkpt>
      <trkpt lat="43.13428" lon="5.74059">
        <ele>6.385864</ele>
        <time>2014-05-09T15:20:10Z</time>
      </trkpt>
      <trkpt lat="43.13423" lon="5.74062">
        <ele>6.866455</ele>
        <time>2014-05-09T15:20:15Z</time>
      </trkpt>
      <trkpt lat="43.13417" lon="5.74065">
        <ele>5.424561</ele>
        <time>2014-05-09T15:20:20Z</time>
      </trkpt>
      <trkpt lat="43.1341" lon="5.74071">
        <ele>4.943848</ele>
        <time>2014-05-09T15:20:28Z</time>
      </trkpt>
      <trkpt lat="43.13406" lon="5.74076">
        <ele>5.905273</ele>
        <time>2014-05-09T15:20:34Z</time>
      </trkpt>
      <trkpt lat="43.134" lon="5.7408">
        <ele>5.424561</ele>
        <time>2014-05-09T15:20:41Z</time>
      </trkpt>
      <trkpt lat="43.13399" lon="5.74088">
        <ele>7.347168</ele>
        <time>2014-05-09T15:20:47Z</time>
      </trkpt>
      <trkpt lat="43.13401" lon="5.74097">
        <ele>9.75061</ele>
        <time>2014-05-09T15:20:54Z</time>
      </trkpt>
      <trkpt lat="43.13405" lon="5.74108">
        <ele>10.231201</ele>
        <time>2014-05-09T15:21:03Z</time>
      </trkpt>
      <trkpt lat="43.13409" lon="5.74116">
        <ele>10.711792</ele>
        <time>2014-05-09T15:21:11Z</time>
      </trkpt>
      <trkpt lat="43.13414" lon="5.74124">
        <ele>11.673218</ele>
        <time>2014-05-09T15:21:20Z</time>
      </trkpt>
      <trkpt lat="43.13417" lon="5.74131">
        <ele>13.595825</ele>
        <time>2014-05-09T15:21:27Z</time>
      </trkpt>
      <trkpt lat="43.13425" lon="5.7414">
        <ele>14.557007</ele>
        <time>2014-05-09T15:21:37Z</time>
      </trkpt>
      <trkpt lat="43.13428" lon="5.74146">
        <ele>12.634399</ele>
        <time>2014-05-09T15:21:43Z</time>
      </trkpt>
      <trkpt lat="43.13432" lon="5.74155">
        <ele>10.231201</ele>
        <time>2014-05-09T15:21:51Z</time>
      </trkpt>
      <trkpt lat="43.13437" lon="5.74167">
        <ele>7.827881</ele>
        <time>2014-05-09T15:22:00Z</time>
      </trkpt>
      <trkpt lat="43.13444" lon="5.74174">
        <ele>8.308594</ele>
        <time>2014-05-09T15:22:08Z</time>
      </trkpt>
      <trkpt lat="43.13454" lon="5.74181">
        <ele>7.347168</ele>
        <time>2014-05-09T15:22:18Z</time>
      </trkpt>
      <trkpt lat="43.13463" lon="5.74188">
        <ele>7.347168</ele>
        <time>2014-05-09T15:22:29Z</time>
      </trkpt>
      <trkpt lat="43.13468" lon="5.74189">
        <ele>7.827881</ele>
        <time>2014-05-09T15:22:35Z</time>
      </trkpt>
      <trkpt lat="43.13474" lon="5.74191">
        <ele>6.385864</ele>
        <time>2014-05-09T15:22:41Z</time>
      </trkpt>
      <trkpt lat="43.1348" lon="5.74194">
        <ele>5.905273</ele>
        <time>2014-05-09T15:22:49Z</time>
      </trkpt>
      <trkpt lat="43.13488" lon="5.74199">
        <ele>5.905273</ele>
        <time>2014-05-09T15:22:58Z</time>
      </trkpt>
      <trkpt lat="43.13494" lon="5.74204">
        <ele>6.866455</ele>
        <time>2014-05-09T15:23:05Z</time>
      </trkpt>
      <trkpt lat="43.13501" lon="5.74211">
        <ele>6.385864</ele>
        <time>2014-05-09T15:23:14Z</time>
      </trkpt>
      <trkpt lat="43.13506" lon="5.74215">
        <ele>4.943848</ele>
        <time>2014-05-09T15:23:22Z</time>
      </trkpt>
      <trkpt lat="43.13508" lon="5.74219">
        <ele>6.385864</ele>
        <time>2014-05-09T15:23:31Z</time>
      </trkpt>
      <trkpt lat="43.13511" lon="5.74223">
        <ele>8.308594</ele>
        <time>2014-05-09T15:23:38Z</time>
      </trkpt>
      <trkpt lat="43.13512" lon="5.74224">
        <ele>5.424561</ele>
        <time>2014-05-09T15:23:45Z</time>
      </trkpt>
      <trkpt lat="43.13514" lon="5.7423">
        <ele>6.866455</ele>
        <time>2014-05-09T15:23:52Z</time>
      </trkpt>
      <trkpt lat="43.13513" lon="5.74238">
        <ele>4.943848</ele>
        <time>2014-05-09T15:23:59Z</time>
      </trkpt>
      <trkpt lat="43.13512" lon="5.7425">
        <ele>2.060059</ele>
        <time>2014-05-09T15:24:08Z</time>
      </trkpt>
      <trkpt lat="43.13512" lon="5.74253">
        <ele>1.098633</ele>
        <time>2014-05-09T15:24:10Z</time>
      </trkpt>
      <trkpt lat="43.13509" lon="5.74263">
        <ele>0.618042</ele>
        <time>2014-05-09T15:24:18Z</time>
      </trkpt>
      <trkpt lat="43.13507" lon="5.74273">
        <ele>1.098633</ele>
        <time>2014-05-09T15:24:25Z</time>
      </trkpt>
      <trkpt lat="43.13506" lon="5.74285">
        <ele>4.943848</ele>
        <time>2014-05-09T15:24:34Z</time>
      </trkpt>
      <trkpt lat="43.13505" lon="5.74293">
        <ele>8.308594</ele>
        <time>2014-05-09T15:24:40Z</time>
      </trkpt>
      <trkpt lat="43.13506" lon="5.74299">
        <ele>7.347168</ele>
        <time>2014-05-09T15:24:47Z</time>
      </trkpt>
      <trkpt lat="43.13506" lon="5.74304">
        <ele>9.75061</ele>
        <time>2014-05-09T15:24:53Z</time>
      </trkpt>
      <trkpt lat="43.13505" lon="5.74314">
        <ele>14.076416</ele>
        <time>2014-05-09T15:25:01Z</time>
      </trkpt>
      <trkpt lat="43.13505" lon="5.74325">
        <ele>15.518433</ele>
        <time>2014-05-09T15:25:10Z</time>
      </trkpt>
      <trkpt lat="43.13507" lon="5.74342">
        <ele>15.999023</ele>
        <time>2014-05-09T15:25:22Z</time>
      </trkpt>
      <trkpt lat="43.1351" lon="5.74352">
        <ele>18.402344</ele>
        <time>2014-05-09T15:25:31Z</time>
      </trkpt>
      <trkpt lat="43.13513" lon="5.74361">
        <ele>18.883057</ele>
        <time>2014-05-09T15:25:39Z</time>
      </trkpt>
      <trkpt lat="43.13516" lon="5.74369">
        <ele>24.170288</ele>
        <time>2014-05-09T15:25:48Z</time>
      </trkpt>
      <trkpt lat="43.13518" lon="5.74379">
        <ele>27.054321</ele>
        <time>2014-05-09T15:25:56Z</time>
      </trkpt>
      <trkpt lat="43.13522" lon="5.74389">
        <ele>24.651001</ele>
        <time>2014-05-09T15:26:04Z</time>
      </trkpt>
      <trkpt lat="43.13525" lon="5.74397">
        <ele>20.324951</ele>
        <time>2014-05-09T15:26:09Z</time>
      </trkpt>
      <trkpt lat="43.13527" lon="5.7441">
        <ele>17.441162</ele>
        <time>2014-05-09T15:26:18Z</time>
      </trkpt>
      <trkpt lat="43.13529" lon="5.74419">
        <ele>14.076416</ele>
        <time>2014-05-09T15:26:25Z</time>
      </trkpt>
      <trkpt lat="43.13527" lon="5.74435">
        <ele>15.999023</ele>
        <time>2014-05-09T15:26:36Z</time>
      </trkpt>
      <trkpt lat="43.13527" lon="5.74445">
        <ele>12.634399</ele>
        <time>2014-05-09T15:26:45Z</time>
      </trkpt>
      <trkpt lat="43.13527" lon="5.74452">
        <ele>8.308594</ele>
        <time>2014-05-09T15:26:50Z</time>
      </trkpt>
      <trkpt lat="43.13526" lon="5.74464">
        <ele>5.424561</ele>
        <time>2014-05-09T15:26:57Z</time>
      </trkpt>
      <trkpt lat="43.13526" lon="5.74476">
        <ele>3.501953</ele>
        <time>2014-05-09T15:27:05Z</time>
      </trkpt>
      <trkpt lat="43.13524" lon="5.74485">
        <ele>4.943848</ele>
        <time>2014-05-09T15:27:12Z</time>
      </trkpt>
      <trkpt lat="43.13522" lon="5.74494">
        <ele>10.711792</ele>
        <time>2014-05-09T15:27:20Z</time>
      </trkpt>
      <trkpt lat="43.13526" lon="5.74503">
        <ele>10.231201</ele>
        <time>2014-05-09T15:27:27Z</time>
      </trkpt>
      <trkpt lat="43.13527" lon="5.74514">
        <ele>7.347168</ele>
        <time>2014-05-09T15:27:35Z</time>
      </trkpt>
      <trkpt lat="43.13522" lon="5.74525">
        <ele>9.75061</ele>
        <time>2014-05-09T15:27:43Z</time>
      </trkpt>
      <trkpt lat="43.13521" lon="5.74534">
        <ele>10.231201</ele>
        <time>2014-05-09T15:27:51Z</time>
      </trkpt>
      <trkpt lat="43.1352" lon="5.74539">
        <ele>9.75061</ele>
        <time>2014-05-09T15:27:56Z</time>
      </trkpt>
      <trkpt lat="43.13517" lon="5.74544">
        <ele>11.192505</ele>
        <time>2014-05-09T15:28:03Z</time>
      </trkpt>
      <trkpt lat="43.13522" lon="5.74547">
        <ele>8.308594</ele>
        <time>2014-05-09T15:28:15Z</time>
      </trkpt>
      <trkpt lat="43.13523" lon="5.74546">
        <ele>5.905273</ele>
        <time>2014-05-09T15:28:26Z</time>
      </trkpt>
      <trkpt lat="43.13525" lon="5.74548">
        <ele>5.905273</ele>
        <time>2014-05-09T15:28:34Z</time>
      </trkpt>
      <trkpt lat="43.13529" lon="5.74552">
        <ele>6.866455</ele>
        <time>2014-05-09T15:28:39Z</time>
      </trkpt>
      <trkpt lat="43.1353" lon="5.74556">
        <ele>9.269897</ele>
        <time>2014-05-09T15:28:42Z</time>
      </trkpt>
      <trkpt lat="43.13528" lon="5.74566">
        <ele>13.595825</ele>
        <time>2014-05-09T15:28:49Z</time>
      </trkpt>
      <trkpt lat="43.13527" lon="5.74572">
        <ele>18.883057</ele>
        <time>2014-05-09T15:28:57Z</time>
      </trkpt>
      <trkpt lat="43.13526" lon="5.74575">
        <ele>19.36377</ele>
        <time>2014-05-09T15:29:04Z</time>
      </trkpt>
      <trkpt lat="43.13522" lon="5.74582">
        <ele>25.131714</ele>
        <time>2014-05-09T15:29:11Z</time>
      </trkpt>
      <trkpt lat="43.13519" lon="5.74589">
        <ele>32.341553</ele>
        <time>2014-05-09T15:29:18Z</time>
      </trkpt>
      <trkpt lat="43.13525" lon="5.74598">
        <ele>27.534912</ele>
        <time>2014-05-09T15:29:26Z</time>
      </trkpt>
      <trkpt lat="43.13524" lon="5.74599">
        <ele>27.534912</ele>
        <time>2014-05-09T15:29:27Z</time>
      </trkpt>
      <trkpt lat="43.13524" lon="5.74602">
        <ele>27.054321</ele>
        <time>2014-05-09T15:29:29Z</time>
      </trkpt>
      <trkpt lat="43.13519" lon="5.74614">
        <ele>29.93811</ele>
        <time>2014-05-09T15:29:36Z</time>
      </trkpt>
      <trkpt lat="43.13519" lon="5.7462">
        <ele>25.612305</ele>
        <time>2014-05-09T15:29:40Z</time>
      </trkpt>
      <trkpt lat="43.13524" lon="5.74631">
        <ele>19.36377</ele>
        <time>2014-05-09T15:29:47Z</time>
      </trkpt>
      <trkpt lat="43.1352" lon="5.7464">
        <ele>17.921753</ele>
        <time>2014-05-09T15:29:53Z</time>
      </trkpt>
      <trkpt lat="43.13512" lon="5.74653">
        <ele>22.728271</ele>
        <time>2014-05-09T15:30:01Z</time>
      </trkpt>
      <trkpt lat="43.1351" lon="5.74661">
        <ele>24.170288</ele>
        <time>2014-05-09T15:30:08Z</time>
      </trkpt>
      <trkpt lat="43.13509" lon="5.74669">
        <ele>23.689575</ele>
        <time>2014-05-09T15:30:14Z</time>
      </trkpt>
      <trkpt lat="43.13507" lon="5.74678">
        <ele>20.324951</ele>
        <time>2014-05-09T15:30:22Z</time>
      </trkpt>
      <trkpt lat="43.13506" lon="5.74691">
        <ele>22.247559</ele>
        <time>2014-05-09T15:30:30Z</time>
      </trkpt>
      <trkpt lat="43.13507" lon="5.74697">
        <ele>18.883057</ele>
        <time>2014-05-09T15:30:36Z</time>
      </trkpt>
      <trkpt lat="43.13509" lon="5.74702">
        <ele>13.595825</ele>
        <time>2014-05-09T15:30:46Z</time>
      </trkpt>
      <trkpt lat="43.13509" lon="5.74715">
        <ele>11.673218</ele>
        <time>2014-05-09T15:30:53Z</time>
      </trkpt>
      <trkpt lat="43.13509" lon="5.74723">
        <ele>15.518433</ele>
        <time>2014-05-09T15:31:01Z</time>
      </trkpt>
      <trkpt lat="43.13515" lon="5.7473">
        <ele>13.115112</ele>
        <time>2014-05-09T15:31:08Z</time>
      </trkpt>
      <trkpt lat="43.13521" lon="5.7474">
        <ele>17.921753</ele>
        <time>2014-05-09T15:31:18Z</time>
      </trkpt>
      <trkpt lat="43.13526" lon="5.74751">
        <ele>21.766968</ele>
        <time>2014-05-09T15:31:27Z</time>
      </trkpt>
      <trkpt lat="43.13529" lon="5.74756">
        <ele>22.247559</ele>
        <time>2014-05-09T15:31:35Z</time>
      </trkpt>
      <trkpt lat="43.13532" lon="5.74763">
        <ele>24.651001</ele>
        <time>2014-05-09T15:31:42Z</time>
      </trkpt>
      <trkpt lat="43.13534" lon="5.74769">
        <ele>27.054321</ele>
        <time>2014-05-09T15:31:48Z</time>
      </trkpt>
      <trkpt lat="43.13537" lon="5.74776">
        <ele>36.66748</ele>
        <time>2014-05-09T15:31:55Z</time>
      </trkpt>
      <trkpt lat="43.13542" lon="5.74778">
        <ele>40.512817</ele>
        <time>2014-05-09T15:32:02Z</time>
      </trkpt>
      <trkpt lat="43.13547" lon="5.74781">
        <ele>39.070679</ele>
        <time>2014-05-09T15:32:07Z</time>
      </trkpt>
      <trkpt lat="43.13553" lon="5.74788">
        <ele>39.55127</ele>
        <time>2014-05-09T15:32:14Z</time>
      </trkpt>
      <trkpt lat="43.13556" lon="5.74796">
        <ele>40.993408</ele>
        <time>2014-05-09T15:32:22Z</time>
      </trkpt>
      <trkpt lat="43.13565" lon="5.74805">
        <ele>47.241821</ele>
        <time>2014-05-09T15:32:32Z</time>
      </trkpt>
      <trkpt lat="43.13572" lon="5.74815">
        <ele>43.877319</ele>
        <time>2014-05-09T15:32:40Z</time>
      </trkpt>
      <trkpt lat="43.13579" lon="5.7482">
        <ele>31.860718</ele>
        <time>2014-05-09T15:32:48Z</time>
      </trkpt>
      <trkpt lat="43.13581" lon="5.74823">
        <ele>24.651001</ele>
        <time>2014-05-09T15:32:55Z</time>
      </trkpt>
      <trkpt lat="43.13581" lon="5.74827">
        <ele>20.324951</ele>
        <time>2014-05-09T15:33:02Z</time>
      </trkpt>
      <trkpt lat="43.13575" lon="5.74835">
        <ele>18.883057</ele>
        <time>2014-05-09T15:33:17Z</time>
      </trkpt>
      <trkpt lat="43.13572" lon="5.74834">
        <ele>18.883057</ele>
        <time>2014-05-09T15:33:24Z</time>
      </trkpt>
      <trkpt lat="43.13568" lon="5.74837">
        <ele>13.595825</ele>
        <time>2014-05-09T15:33:32Z</time>
      </trkpt>
      <trkpt lat="43.13566" lon="5.74839">
        <ele>10.711792</ele>
        <time>2014-05-09T15:33:37Z</time>
      </trkpt>
      <trkpt lat="43.13563" lon="5.74844">
        <ele>9.75061</ele>
        <time>2014-05-09T15:33:42Z</time>
      </trkpt>
      <trkpt lat="43.13563" lon="5.74851">
        <ele>12.634399</ele>
        <time>2014-05-09T15:33:48Z</time>
      </trkpt>
      <trkpt lat="43.13565" lon="5.74856">
        <ele>14.076416</ele>
        <time>2014-05-09T15:33:53Z</time>
      </trkpt>
      <trkpt lat="43.13568" lon="5.74864">
        <ele>16.960449</ele>
        <time>2014-05-09T15:34:01Z</time>
      </trkpt>
      <trkpt lat="43.13572" lon="5.74875">
        <ele>16.479736</ele>
        <time>2014-05-09T15:34:11Z</time>
      </trkpt>
      <trkpt lat="43.13576" lon="5.74883">
        <ele>8.308594</ele>
        <time>2014-05-09T15:34:18Z</time>
      </trkpt>
      <trkpt lat="43.1358" lon="5.74893">
        <ele>4.463257</ele>
        <time>2014-05-09T15:34:27Z</time>
      </trkpt>
      <trkpt lat="43.13581" lon="5.74897">
        <ele>0.618042</ele>
        <time>2014-05-09T15:34:33Z</time>
      </trkpt>
      <trkpt lat="43.1358" lon="5.74903">
        <ele>3.02124</ele>
        <time>2014-05-09T15:34:40Z</time>
      </trkpt>
      <trkpt lat="43.13578" lon="5.74911">
        <ele>5.905273</ele>
        <time>2014-05-09T15:34:46Z</time>
      </trkpt>
      <trkpt lat="43.13579" lon="5.74922">
        <ele>7.347168</ele>
        <time>2014-05-09T15:34:54Z</time>
      </trkpt>
      <trkpt lat="43.13577" lon="5.74924">
        <ele>15.518433</ele>
        <time>2014-05-09T15:35:01Z</time>
      </trkpt>
      <trkpt lat="43.13572" lon="5.74918">
        <ele>39.55127</ele>
        <time>2014-05-09T15:35:13Z</time>
      </trkpt>
      <trkpt lat="43.13572" lon="5.74918">
        <ele>39.070679</ele>
        <time>2014-05-09T15:35:23Z</time>
      </trkpt>
      <trkpt lat="43.13573" lon="5.74928">
        <ele>26.092896</ele>
        <time>2014-05-09T15:35:42Z</time>
      </trkpt>
      <trkpt lat="43.13571" lon="5.74937">
        <ele>27.534912</ele>
        <time>2014-05-09T15:35:50Z</time>
      </trkpt>
      <trkpt lat="43.13568" lon="5.74946">
        <ele>27.534912</ele>
        <time>2014-05-09T15:35:58Z</time>
      </trkpt>
      <trkpt lat="43.13567" lon="5.74954">
        <ele>23.689575</ele>
        <time>2014-05-09T15:36:06Z</time>
      </trkpt>
      <trkpt lat="43.13565" lon="5.74959">
        <ele>18.883057</ele>
        <time>2014-05-09T15:36:13Z</time>
      </trkpt>
      <trkpt lat="43.13564" lon="5.74968">
        <ele>13.595825</ele>
        <time>2014-05-09T15:36:21Z</time>
      </trkpt>
      <trkpt lat="43.13561" lon="5.74974">
        <ele>9.75061</ele>
        <time>2014-05-09T15:36:29Z</time>
      </trkpt>
      <trkpt lat="43.13559" lon="5.74977">
        <ele>12.153809</ele>
        <time>2014-05-09T15:36:34Z</time>
      </trkpt>
      <trkpt lat="43.13556" lon="5.74987">
        <ele>15.518433</ele>
        <time>2014-05-09T15:36:43Z</time>
      </trkpt>
      <trkpt lat="43.13551" lon="5.74992">
        <ele>18.402344</ele>
        <time>2014-05-09T15:36:49Z</time>
      </trkpt>
      <trkpt lat="43.1355" lon="5.74996">
        <ele>15.999023</ele>
        <time>2014-05-09T15:36:54Z</time>
      </trkpt>
      <trkpt lat="43.13546" lon="5.75002">
        <ele>14.076416</ele>
        <time>2014-05-09T15:37:02Z</time>
      </trkpt>
      <trkpt lat="43.13545" lon="5.75006">
        <ele>8.789185</ele>
        <time>2014-05-09T15:37:07Z</time>
      </trkpt>
      <trkpt lat="43.13542" lon="5.75009">
        <ele>7.827881</ele>
        <time>2014-05-09T15:37:12Z</time>
      </trkpt>
      <trkpt lat="43.13536" lon="5.75014">
        <ele>8.789185</ele>
        <time>2014-05-09T15:37:20Z</time>
      </trkpt>
      <trkpt lat="43.13534" lon="5.75019">
        <ele>5.905273</ele>
        <time>2014-05-09T15:37:25Z</time>
      </trkpt>
      <trkpt lat="43.13533" lon="5.75021">
        <ele>3.501953</ele>
        <time>2014-05-09T15:37:29Z</time>
      </trkpt>
      <trkpt lat="43.1353" lon="5.7503">
        <ele>-0.343384</ele>
        <time>2014-05-09T15:37:37Z</time>
      </trkpt>
      <trkpt lat="43.13528" lon="5.75035">
        <ele>-4.188599</ele>
        <time>2014-05-09T15:37:43Z</time>
      </trkpt>
      <trkpt lat="43.13524" lon="5.75039">
        <ele>-7.07251</ele>
        <time>2014-05-09T15:37:49Z</time>
      </trkpt>
      <trkpt lat="43.13516" lon="5.75044">
        <ele>-2.746704</ele>
        <time>2014-05-09T15:37:58Z</time>
      </trkpt>
      <trkpt lat="43.13509" lon="5.75051">
        <ele>-3.707886</ele>
        <time>2014-05-09T15:38:07Z</time>
      </trkpt>
      <trkpt lat="43.13504" lon="5.75057">
        <ele>-4.669312</ele>
        <time>2014-05-09T15:38:15Z</time>
      </trkpt>
      <trkpt lat="43.13498" lon="5.75062">
        <ele>-5.630493</ele>
        <time>2014-05-09T15:38:24Z</time>
      </trkpt>
      <trkpt lat="43.13491" lon="5.75066">
        <ele>-5.149902</ele>
        <time>2014-05-09T15:38:32Z</time>
      </trkpt>
      <trkpt lat="43.13484" lon="5.75071">
        <ele>-4.188599</ele>
        <time>2014-05-09T15:38:40Z</time>
      </trkpt>
      <trkpt lat="43.13479" lon="5.75072">
        <ele>-3.707886</ele>
        <time>2014-05-09T15:38:47Z</time>
      </trkpt>
      <trkpt lat="43.1347" lon="5.75077">
        <ele>-3.707886</ele>
        <time>2014-05-09T15:38:57Z</time>
      </trkpt>
      <trkpt lat="43.13469" lon="5.75078">
        <ele>-4.188599</ele>
        <time>2014-05-09T15:38:59Z</time>
      </trkpt>
      <trkpt lat="43.13461" lon="5.75081">
        <ele>-3.227295</ele>
        <time>2014-05-09T15:39:08Z</time>
      </trkpt>
      <trkpt lat="43.13454" lon="5.75082">
        <ele>-2.746704</ele>
        <time>2014-05-09T15:39:16Z</time>
      </trkpt>
      <trkpt lat="43.13449" lon="5.75081">
        <ele>0.137451</ele>
        <time>2014-05-09T15:39:23Z</time>
      </trkpt>
      <trkpt lat="43.13442" lon="5.75082">
        <ele>1.098633</ele>
        <time>2014-05-09T15:39:32Z</time>
      </trkpt>
      <trkpt lat="43.13441" lon="5.75082">
        <ele>0.618042</ele>
        <time>2014-05-09T15:39:34Z</time>
      </trkpt>
      <trkpt lat="43.13435" lon="5.75082">
        <ele>0.618042</ele>
        <time>2014-05-09T15:39:40Z</time>
      </trkpt>
      <trkpt lat="43.13427" lon="5.75082">
        <ele>0.137451</ele>
        <time>2014-05-09T15:39:48Z</time>
      </trkpt>
      <trkpt lat="43.13417" lon="5.75082">
        <ele>0.137451</ele>
        <time>2014-05-09T15:39:58Z</time>
      </trkpt>
      <trkpt lat="43.13408" lon="5.75084">
        <ele>0.618042</ele>
        <time>2014-05-09T15:40:07Z</time>
      </trkpt>
      <trkpt lat="43.13402" lon="5.75084">
        <ele>2.060059</ele>
        <time>2014-05-09T15:40:14Z</time>
      </trkpt>
      <trkpt lat="43.13396" lon="5.75083">
        <ele>3.02124</ele>
        <time>2014-05-09T15:40:22Z</time>
      </trkpt>
      <trkpt lat="43.13393" lon="5.75082">
        <ele>3.501953</ele>
        <time>2014-05-09T15:40:27Z</time>
      </trkpt>
      <trkpt lat="43.13386" lon="5.75076">
        <ele>2.540649</ele>
        <time>2014-05-09T15:40:37Z</time>
      </trkpt>
      <trkpt lat="43.13384" lon="5.75074">
        <ele>2.540649</ele>
        <time>2014-05-09T15:40:41Z</time>
      </trkpt>
      <trkpt lat="43.13375" lon="5.75072">
        <ele>3.02124</ele>
        <time>2014-05-09T15:40:50Z</time>
      </trkpt>
      <trkpt lat="43.13372" lon="5.75069">
        <ele>2.540649</ele>
        <time>2014-05-09T15:40:55Z</time>
      </trkpt>
      <trkpt lat="43.13363" lon="5.75066">
        <ele>1.579346</ele>
        <time>2014-05-09T15:41:06Z</time>
      </trkpt>
      <trkpt lat="43.13356" lon="5.75062">
        <ele>1.579346</ele>
        <time>2014-05-09T15:41:15Z</time>
      </trkpt>
      <trkpt lat="43.13348" lon="5.75059">
        <ele>0.618042</ele>
        <time>2014-05-09T15:41:25Z</time>
      </trkpt>
      <trkpt lat="43.13341" lon="5.75055">
        <ele>1.098633</ele>
        <time>2014-05-09T15:41:34Z</time>
      </trkpt>
      <trkpt lat="43.13335" lon="5.75052">
        <ele>3.02124</ele>
        <time>2014-05-09T15:41:43Z</time>
      </trkpt>
      <trkpt lat="43.1333" lon="5.75049">
        <ele>4.943848</ele>
        <time>2014-05-09T15:41:51Z</time>
      </trkpt>
      <trkpt lat="43.13324" lon="5.75046">
        <ele>4.463257</ele>
        <time>2014-05-09T15:41:59Z</time>
      </trkpt>
      <trkpt lat="43.13317" lon="5.75039">
        <ele>3.982666</ele>
        <time>2014-05-09T15:42:10Z</time>
      </trkpt>
      <trkpt lat="43.13312" lon="5.75035">
        <ele>3.501953</ele>
        <time>2014-05-09T15:42:17Z</time>
      </trkpt>
      <trkpt lat="43.13308" lon="5.75028">
        <ele>3.02124</ele>
        <time>2014-05-09T15:42:25Z</time>
      </trkpt>
      <trkpt lat="43.13301" lon="5.75021">
        <ele>2.060059</ele>
        <time>2014-05-09T15:42:34Z</time>
      </trkpt>
      <trkpt lat="43.13297" lon="5.75013">
        <ele>1.579346</ele>
        <time>2014-05-09T15:42:43Z</time>
      </trkpt>
      <trkpt lat="43.13293" lon="5.75007">
        <ele>0.618042</ele>
        <time>2014-05-09T15:42:51Z</time>
      </trkpt>
      <trkpt lat="43.1329" lon="5.74999">
        <ele>0.137451</ele>
        <time>2014-05-09T15:43:00Z</time>
      </trkpt>
      <trkpt lat="43.13285" lon="5.74994">
        <ele>-0.343384</ele>
        <time>2014-05-09T15:43:07Z</time>
      </trkpt>
      <trkpt lat="43.13282" lon="5.74986">
        <ele>-0.824097</ele>
        <time>2014-05-09T15:43:15Z</time>
      </trkpt>
      <trkpt lat="43.13279" lon="5.74978">
        <ele>-0.343384</ele>
        <time>2014-05-09T15:43:25Z</time>
      </trkpt>
      <trkpt lat="43.13277" lon="5.74969">
        <ele>-0.343384</ele>
        <time>2014-05-09T15:43:34Z</time>
      </trkpt>
      <trkpt lat="43.13274" lon="5.74959">
        <ele>-0.824097</ele>
        <time>2014-05-09T15:43:44Z</time>
      </trkpt>
      <trkpt lat="43.13273" lon="5.74951">
        <ele>-0.824097</ele>
        <time>2014-05-09T15:43:52Z</time>
      </trkpt>
      <trkpt lat="43.13271" lon="5.74942">
        <ele>-0.343384</ele>
        <time>2014-05-09T15:44:01Z</time>
      </trkpt>
      <trkpt lat="43.13271" lon="5.74937">
        <ele>0.137451</ele>
        <time>2014-05-09T15:44:10Z</time>
      </trkpt>
      <trkpt lat="43.13274" lon="5.74932">
        <ele>0.618042</ele>
        <time>2014-05-09T15:44:19Z</time>
      </trkpt>
      <trkpt lat="43.13278" lon="5.74925">
        <ele>1.579346</ele>
        <time>2014-05-09T15:44:27Z</time>
      </trkpt>
      <trkpt lat="43.13284" lon="5.74919">
        <ele>3.501953</ele>
        <time>2014-05-09T15:44:36Z</time>
      </trkpt>
      <trkpt lat="43.13289" lon="5.74913">
        <ele>4.463257</ele>
        <time>2014-05-09T15:44:44Z</time>
      </trkpt>
      <trkpt lat="43.13293" lon="5.74907">
        <ele>5.424561</ele>
        <time>2014-05-09T15:44:52Z</time>
      </trkpt>
      <trkpt lat="43.13298" lon="5.74901">
        <ele>6.385864</ele>
        <time>2014-05-09T15:45:01Z</time>
      </trkpt>
      <trkpt lat="43.13304" lon="5.74893">
        <ele>7.347168</ele>
        <time>2014-05-09T15:45:11Z</time>
      </trkpt>
      <trkpt lat="43.13308" lon="5.74887">
        <ele>8.789185</ele>
        <time>2014-05-09T15:45:20Z</time>
      </trkpt>
      <trkpt lat="43.1331" lon="5.74884">
        <ele>8.789185</ele>
        <time>2014-05-09T15:45:26Z</time>
      </trkpt>
      <trkpt lat="43.13311" lon="5.7488">
        <ele>6.385864</ele>
        <time>2014-05-09T15:45:33Z</time>
      </trkpt>
      <trkpt lat="43.13308" lon="5.74874">
        <ele>5.424561</ele>
        <time>2014-05-09T15:45:54Z</time>
      </trkpt>
      <trkpt lat="43.13306" lon="5.74871">
        <ele>4.943848</ele>
        <time>2014-05-09T15:46:00Z</time>
      </trkpt>
      <trkpt lat="43.13307" lon="5.74871">
        <ele>4.463257</ele>
        <time>2014-05-09T15:46:08Z</time>
      </trkpt>
      <trkpt lat="43.13307" lon="5.74871">
        <ele>3.02124</ele>
        <time>2014-05-09T15:46:16Z</time>
      </trkpt>
      <trkpt lat="43.13307" lon="5.7487">
        <ele>3.02124</ele>
        <time>2014-05-09T15:46:17Z</time>
      </trkpt>
      <trkpt lat="43.13307" lon="5.74865">
        <ele>3.501953</ele>
        <time>2014-05-09T15:46:23Z</time>
      </trkpt>
      <trkpt lat="43.13307" lon="5.74869">
        <ele>3.02124</ele>
        <time>2014-05-09T15:46:27Z</time>
      </trkpt>
      <trkpt lat="43.13309" lon="5.74878">
        <ele>2.060059</ele>
        <time>2014-05-09T15:46:36Z</time>
      </trkpt>
      <trkpt lat="43.13308" lon="5.74882">
        <ele>0.137451</ele>
        <time>2014-05-09T15:46:44Z</time>
      </trkpt>
      <trkpt lat="43.13302" lon="5.7489">
        <ele>-0.343384</ele>
        <time>2014-05-09T15:46:55Z</time>
      </trkpt>
      <trkpt lat="43.13296" lon="5.74896">
        <ele>-0.343384</ele>
        <time>2014-05-09T15:47:05Z</time>
      </trkpt>
      <trkpt lat="43.13294" lon="5.74902">
        <ele>0.618042</ele>
        <time>2014-05-09T15:47:12Z</time>
      </trkpt>
      <trkpt lat="43.13289" lon="5.74908">
        <ele>0.137451</ele>
        <time>2014-05-09T15:47:21Z</time>
      </trkpt>
      <trkpt lat="43.13285" lon="5.74914">
        <ele>0.137451</ele>
        <time>2014-05-09T15:47:29Z</time>
      </trkpt>
      <trkpt lat="43.13279" lon="5.74919">
        <ele>-1.304688</ele>
        <time>2014-05-09T15:47:38Z</time>
      </trkpt>
      <trkpt lat="43.13279" lon="5.74918">
        <ele>-0.343384</ele>
        <time>2014-05-09T15:47:46Z</time>
      </trkpt>
      <trkpt lat="43.13277" lon="5.74918">
        <ele>0.618042</ele>
        <time>2014-05-09T15:47:55Z</time>
      </trkpt>
      <trkpt lat="43.13275" lon="5.74915">
        <ele>3.982666</ele>
        <time>2014-05-09T15:48:03Z</time>
      </trkpt>
      <trkpt lat="43.13273" lon="5.74911">
        <ele>5.424561</ele>
        <time>2014-05-09T15:48:11Z</time>
      </trkpt>
      <trkpt lat="43.13272" lon="5.74911">
        <ele>5.424561</ele>
        <time>2014-05-09T15:48:17Z</time>
      </trkpt>
      <trkpt lat="43.13271" lon="5.74912">
        <ele>5.424561</ele>
        <time>2014-05-09T15:48:21Z</time>
      </trkpt>
      <trkpt lat="43.13264" lon="5.74921">
        <ele>4.943848</ele>
        <time>2014-05-09T15:48:32Z</time>
      </trkpt>
      <trkpt lat="43.13259" lon="5.74922">
        <ele>4.943848</ele>
        <time>2014-05-09T15:48:38Z</time>
      </trkpt>
      <trkpt lat="43.1325" lon="5.74925">
        <ele>6.385864</ele>
        <time>2014-05-09T15:48:48Z</time>
      </trkpt>
      <trkpt lat="43.13242" lon="5.74928">
        <ele>8.308594</ele>
        <time>2014-05-09T15:48:57Z</time>
      </trkpt>
      <trkpt lat="43.13236" lon="5.74926">
        <ele>7.347168</ele>
        <time>2014-05-09T15:49:05Z</time>
      </trkpt>
      <trkpt lat="43.1323" lon="5.74924">
        <ele>5.905273</ele>
        <time>2014-05-09T15:49:12Z</time>
      </trkpt>
      <trkpt lat="43.13219" lon="5.74924">
        <ele>4.943848</ele>
        <time>2014-05-09T15:49:22Z</time>
      </trkpt>
      <trkpt lat="43.13211" lon="5.74924">
        <ele>4.463257</ele>
        <time>2014-05-09T15:49:31Z</time>
      </trkpt>
      <trkpt lat="43.132" lon="5.74925">
        <ele>5.424561</ele>
        <time>2014-05-09T15:49:41Z</time>
      </trkpt>
      <trkpt lat="43.13197" lon="5.74924">
        <ele>4.463257</ele>
        <time>2014-05-09T15:49:47Z</time>
      </trkpt>
      <trkpt lat="43.13193" lon="5.74924">
        <ele>4.463257</ele>
        <time>2014-05-09T15:49:56Z</time>
      </trkpt>
      <trkpt lat="43.13191" lon="5.74925">
        <ele>3.982666</ele>
        <time>2014-05-09T15:50:01Z</time>
      </trkpt>
      <trkpt lat="43.13184" lon="5.74924">
        <ele>3.501953</ele>
        <time>2014-05-09T15:50:08Z</time>
      </trkpt>
      <trkpt lat="43.13175" lon="5.74925">
        <ele>5.424561</ele>
        <time>2014-05-09T15:50:16Z</time>
      </trkpt>
      <trkpt lat="43.13165" lon="5.74926">
        <ele>6.385864</ele>
        <time>2014-05-09T15:50:26Z</time>
      </trkpt>
      <trkpt lat="43.13157" lon="5.74928">
        <ele>5.905273</ele>
        <time>2014-05-09T15:50:34Z</time>
      </trkpt>
      <trkpt lat="43.13148" lon="5.74929">
        <ele>4.943848</ele>
        <time>2014-05-09T15:50:44Z</time>
      </trkpt>
      <trkpt lat="43.13141" lon="5.74932">
        <ele>4.943848</ele>
        <time>2014-05-09T15:50:52Z</time>
      </trkpt>
      <trkpt lat="43.13133" lon="5.74936">
        <ele>5.424561</ele>
        <time>2014-05-09T15:51:01Z</time>
      </trkpt>
      <trkpt lat="43.13127" lon="5.7494">
        <ele>5.905273</ele>
        <time>2014-05-09T15:51:08Z</time>
      </trkpt>
      <trkpt lat="43.1312" lon="5.74947">
        <ele>4.943848</ele>
        <time>2014-05-09T15:51:16Z</time>
      </trkpt>
      <trkpt lat="43.13115" lon="5.74956">
        <ele>3.982666</ele>
        <time>2014-05-09T15:51:25Z</time>
      </trkpt>
      <trkpt lat="43.1311" lon="5.74964">
        <ele>3.501953</ele>
        <time>2014-05-09T15:51:33Z</time>
      </trkpt>
      <trkpt lat="43.13105" lon="5.74977">
        <ele>2.060059</ele>
        <time>2014-05-09T15:51:44Z</time>
      </trkpt>
      <trkpt lat="43.13104" lon="5.7498">
        <ele>1.579346</ele>
        <time>2014-05-09T15:51:46Z</time>
      </trkpt>
      <trkpt lat="43.13102" lon="5.74996">
        <ele>-0.343384</ele>
        <time>2014-05-09T15:51:58Z</time>
      </trkpt>
      <trkpt lat="43.13101" lon="5.75007">
        <ele>0.137451</ele>
        <time>2014-05-09T15:52:07Z</time>
      </trkpt>
      <trkpt lat="43.131" lon="5.75019">
        <ele>1.098633</ele>
        <time>2014-05-09T15:52:16Z</time>
      </trkpt>
      <trkpt lat="43.13099" lon="5.75027">
        <ele>3.501953</ele>
        <time>2014-05-09T15:52:24Z</time>
      </trkpt>
      <trkpt lat="43.13098" lon="5.75036">
        <ele>8.308594</ele>
        <time>2014-05-09T15:52:32Z</time>
      </trkpt>
      <trkpt lat="43.13099" lon="5.75043">
        <ele>9.269897</ele>
        <time>2014-05-09T15:52:37Z</time>
      </trkpt>
      <trkpt lat="43.13098" lon="5.75053">
        <ele>13.115112</ele>
        <time>2014-05-09T15:52:45Z</time>
      </trkpt>
      <trkpt lat="43.13096" lon="5.75065">
        <ele>17.441162</ele>
        <time>2014-05-09T15:52:54Z</time>
      </trkpt>
      <trkpt lat="43.13095" lon="5.75076">
        <ele>18.883057</ele>
        <time>2014-05-09T15:53:02Z</time>
      </trkpt>
      <trkpt lat="43.13095" lon="5.75087">
        <ele>15.03772</ele>
        <time>2014-05-09T15:53:11Z</time>
      </trkpt>
      <trkpt lat="43.13095" lon="5.75098">
        <ele>14.557007</ele>
        <time>2014-05-09T15:53:19Z</time>
      </trkpt>
      <trkpt lat="43.13095" lon="5.75107">
        <ele>13.595825</ele>
        <time>2014-05-09T15:53:27Z</time>
      </trkpt>
      <trkpt lat="43.13095" lon="5.75121">
        <ele>13.115112</ele>
        <time>2014-05-09T15:53:37Z</time>
      </trkpt>
      <trkpt lat="43.131" lon="5.75131">
        <ele>12.634399</ele>
        <time>2014-05-09T15:53:47Z</time>
      </trkpt>
      <trkpt lat="43.13103" lon="5.75134">
        <ele>13.115112</ele>
        <time>2014-05-09T15:53:51Z</time>
      </trkpt>
      <trkpt lat="43.13112" lon="5.75143">
        <ele>11.192505</ele>
        <time>2014-05-09T15:54:02Z</time>
      </trkpt>
      <trkpt lat="43.13121" lon="5.75151">
        <ele>10.231201</ele>
        <time>2014-05-09T15:54:14Z</time>
      </trkpt>
      <trkpt lat="43.13129" lon="5.75157">
        <ele>8.789185</ele>
        <time>2014-05-09T15:54:23Z</time>
      </trkpt>
      <trkpt lat="43.13135" lon="5.75163">
        <ele>6.866455</ele>
        <time>2014-05-09T15:54:32Z</time>
      </trkpt>
      <trkpt lat="43.13139" lon="5.75166">
        <ele>4.463257</ele>
        <time>2014-05-09T15:54:38Z</time>
      </trkpt>
      <trkpt lat="43.13146" lon="5.75172">
        <ele>4.463257</ele>
        <time>2014-05-09T15:54:46Z</time>
      </trkpt>
      <trkpt lat="43.13153" lon="5.75179">
        <ele>3.02124</ele>
        <time>2014-05-09T15:54:55Z</time>
      </trkpt>
      <trkpt lat="43.1316" lon="5.75184">
        <ele>3.02124</ele>
        <time>2014-05-09T15:55:04Z</time>
      </trkpt>
      <trkpt lat="43.13161" lon="5.75186">
        <ele>1.579346</ele>
        <time>2014-05-09T15:55:10Z</time>
      </trkpt>
      <trkpt lat="43.13161" lon="5.75191">
        <ele>0.137451</ele>
        <time>2014-05-09T15:55:22Z</time>
      </trkpt>
      <trkpt lat="43.13159" lon="5.75199">
        <ele>1.098633</ele>
        <time>2014-05-09T15:55:30Z</time>
      </trkpt>
      <trkpt lat="43.1316" lon="5.75205">
        <ele>1.579346</ele>
        <time>2014-05-09T15:55:37Z</time>
      </trkpt>
      <trkpt lat="43.13163" lon="5.75207">
        <ele>4.943848</ele>
        <time>2014-05-09T15:55:44Z</time>
      </trkpt>
      <trkpt lat="43.13163" lon="5.75208">
        <ele>4.943848</ele>
        <time>2014-05-09T15:55:52Z</time>
      </trkpt>
      <trkpt lat="43.13164" lon="5.75208">
        <ele>5.905273</ele>
        <time>2014-05-09T15:56:02Z</time>
      </trkpt>
      <trkpt lat="43.13164" lon="5.75207">
        <ele>4.463257</ele>
        <time>2014-05-09T15:56:08Z</time>
      </trkpt>
      <trkpt lat="43.13163" lon="5.75207">
        <ele>3.982666</ele>
        <time>2014-05-09T15:56:12Z</time>
      </trkpt>
    </trkseg>
  </trk>
</gpx>